     2              OBSERVATION DATA    GPS                 RINEX VERSION / TYPE
teqc 2000Jul20 Karen Wendt 20030425 19:01:44UTC             PGM / RUN BY / DATE
                                                            COMMENT
L2: 1 -> 1; 150 -> 5; 250 -> 9                              COMMENT
L2: 1 -> 1; 150 -> 5; 250 -> 9                              COMMENT
L2: 1 -> 1; 150 -> 5; 250 -> 9                              COMMENT
L2: 1 -> 1; 150 -> 5; 250 -> 9                              COMMENT
L2: 1 -> 1; 150 -> 5; 250 -> 9                              COMMENT
L2: 1 -> 1; 150 -> 5; 250 -> 9                              COMMENT
L2: 1 -> 1; 150 -> 5; 250 -> 9                              COMMENT
L2: 1 -> 1; 150 -> 5; 250 -> 9                              COMMENT
L2: 1 -> 1; 150 -> 5; 250 -> 9                              COMMENT
L2: 1 -> 1; 150 -> 5; 250 -> 9                              COMMENT
L2: 1 -> 1; 150 -> 5; 250 -> 9                              COMMENT
L2: 1 -> 1; 150 -> 5; 250 -> 9                              COMMENT
L2: 1 -> 1; 150 -> 5; 250 -> 9                              COMMENT
L2: 1 -> 1; 150 -> 5; 250 -> 9                              COMMENT
Original Marker Name: mont Montosa_1944_USC&GS              COMMENT
Campaign Name: USGS 2003                                    COMMENT
4-Character Station Name: MONT                              COMMENT
6-Character Antenna Code: DMRCHT                            COMMENT
Vertical Measurement Point: BCR                             COMMENT
Vertical Offset to Rinex Ref. Point: 0.0348                 COMMENT
Radial Measurement Point: ECF                               COMMENT
Radial Offset to Rinex Ref. Point: 0.1897                   COMMENT
Antenna Height from Field Measurement: 1.1810 m             COMMENT
Additional Antenna Identification Info.:                    COMMENT
Turborogue and Ashtech Choke Ring                           COMMENT
Original XYZ: -2639974.9055 -4444942.9816 3723959.9898      COMMENT
New XYZ position is based on association with SCEC monument COMMENT
E1F1N1C4+0011. Position of that monument is believed to be  COMMENT
valid to within 1 m horizontally; vertical accuracy         COMMENT
should be no worse than 3-times this value.                 COMMENT
                                                            COMMENT
Revised Rinex header created by UCSD GPS archive for        COMMENT
GSAC on 11-Jul-2003 (2003:192) 16:24:27 GMT                 COMMENT
For assistance contact dagnew@ucsd.edu                      COMMENT
or anderson@python.ucsd.edu                                 COMMENT
                                                            COMMENT
MONTOSA 1944                                                MARKER NAME
JMS US GEOLOGICAL SURVEY                                    OBSERVER / AGENCY
LP019992804 ASHTECH Z-XII3 CD00                             REC # / TYPE / VERS
CR14341 DORNE-MARGOL. TYPE T                                ANT # / TYPE
 -2639993.4439 -4444918.7120  3723951.4686                  APPROX POSITION XYZ
        1.1309        0.0000        0.0000                  ANTENNA: DELTA H/E/N
     1     1     0                                          WAVELENGTH FACT L1/2
     5    C1    L1    L2    P1    P2                        # / TYPES OF OBSERV
    30                                                      INTERVAL
  2003     4    15     0     1    0.000000                  TIME OF FIRST OBS
  2003     4    15    11    41   30.000000                  TIME OF LAST OBS
                                                            END OF HEADER
 03  4 15  0  1  0.0000000  0  9G 9G21G14G 3G17G15G23G31G18
  23486451.023    -7329094.19249  -5690869.08945  23486450.779    23486456.934
  22383725.646   -19075911.74949 -14839160.82946  22383725.000    22383728.921
  20844631.846   -22772329.58549 -17722131.75047  20844631.392    20844634.572
  21706540.814   -15810700.18149 -12307875.63047  21706540.495    21706544.948
  22652083.663   -15287792.48549 -11886723.74746  22652083.069    22652089.487
  20455380.231   -27985750.86949 -21781470.81048  20455379.475    20455383.583
  21833433.758   -16092394.82949 -12513517.11447  21833433.209    21833437.422
  22619963.140    -9821728.64949  -7092294.26146  22619962.676    22619967.369
  21399294.147   -20265377.49249 -15769835.54047  21399293.747    21399296.691
 03  4 15  0  1 30.0000000  0  9G 9G21G14G 3G17G15G23G31G18
  23484924.996    -7337113.76849  -5697118.08245  23484924.834    23484930.841
  22398212.520   -18999782.74449 -14779839.58946  22398211.920    22398215.876
  20833416.566   -22831265.96549 -17768056.15247  20833416.106    20833419.279
  21708505.215   -15800377.28749 -12299831.83447  21708504.865    21708509.314
  22666581.128   -15211608.35449 -11827359.57246  22666580.503    22666586.948
  20461248.977   -27954910.60249 -21757439.44748  20461248.233    20461252.315
  21842348.861   -16045545.73149 -12477011.33847  21842348.327    21842352.500
  22612355.536    -9861706.68049  -7123445.95946  22612355.112    22612359.726
  21408919.738   -20214794.93749 -15730420.58447  21408919.323    21408922.212
 03  4 15  0  2  0.0000000  0  9G 9G21G14G 3G17G15G23G31G18
  23483507.103    -7344564.43449  -5702923.77445  23483506.936    23483513.011
  22412755.874   -18923357.22849 -14720287.31046  22412755.312    22412759.219
  20822295.097   -22889709.48649 -17813596.50947  20822294.636    20822297.802
  21710575.941   -15789495.42049 -12291352.46747  21710575.631    21710580.118
  22681134.768   -15135128.10249 -11767764.64546  22681134.237    22681140.740
  20467195.779   -27923659.77149 -21733088.16348  20467195.056    20467199.128
  21851280.934   -15998607.06949 -12440435.77747  21851280.413    21851284.583
  22604852.333    -9901136.31649  -7154170.32746  22604851.896    22604856.521
  21418574.977   -20164056.45549 -15690884.11847  21418574.539    21418577.440
 03  4 15  0  2 30.0000000  0  9G 9G21G14G 3G17G15G23G31G18
  23482197.449    -7351446.52549  -5708286.40045  23482197.273    23482203.408
  22427355.230   -18846637.18149 -14660505.51646  22427354.665    22427358.608
  20811267.349   -22947660.24249 -17858752.89647  20811266.910    20811270.083
  21712752.567   -15778057.33649 -12282439.69647  21712752.274    21712756.687
  22695744.638   -15058353.42849 -11707940.32146  22695744.053    22695750.576
  20473220.515   -27891999.58649 -21708417.90048  20473219.795    20473223.876
  21860229.713   -15951581.14949 -12403792.22247  21860229.198    21860233.339
  22597453.396    -9940017.88249  -7184467.62246  22597452.979    22597457.566
  21428259.361   -20113164.65349 -15651228.18647  21428258.945    21428261.886
 03  4 15  0  3  0.0000000  0  9G 9G21G14G 3G17G15G23G31G18
  23480995.924    -7357760.03149  -5713205.97445  23480995.795    23481001.957
  22442010.378   -18769624.57149 -14600495.74746  22442009.760    22442013.718
  20800333.535   -23005117.90649 -17903525.05247  20800333.079    20800336.257
  21715034.780   -15766064.49949 -12273094.65047  21715034.464    21715038.834
  22710410.054   -14981286.63649 -11647888.36046  22710409.451    22710415.971
  20479323.011   -27859930.67749 -21683429.16048  20479322.310    20479326.382
  21869194.746   -15904469.77049 -12367082.07747  21869194.212    21869198.379
  22590158.815    -9978351.25249  -7214337.75546  22590158.379    22590162.995
  21437972.663   -20062121.12849 -15611454.03147  21437972.211    21437975.156
 03  4 15  0  3 30.0000000  0  9G 9G21G14G 3G17G15G23G31G18
  23479903.359    -7363501.51949  -5717679.82145  23479903.221    23479909.341
  22456721.303   -18692317.76549 -14540256.73446  22456720.766    22456724.801
  20789494.123   -23062079.05949 -17947910.31447  20789493.653    20789496.828
  21717422.787   -15753515.40549 -12263316.14747  21717422.471    21717426.896
  22725131.532   -14903925.45249 -11587607.00646  22725130.869    22725137.355
  20485503.798   -27827450.46549 -21658119.91848  20485503.081    20485507.169
  21878176.274   -15857271.34949 -12330304.10647  21878175.754    21878179.979
  22582969.185   -10016133.00849  -7243778.05546  22582968.746    22582973.298
  21447715.023   -20010924.84349 -15571560.83947  21447714.566    21447717.519
 03  4 15  0  4  0.0000000  0  9G 9G21G14G 3G17G15G23G31G18
  23478919.513    -7368672.14149  -5721708.81845  23478919.332    23478925.373
  22471487.855   -18614719.19149 -14479790.39546  22471487.313    22471491.363
  20778749.150   -23118544.00649 -17991908.92947  20778748.692    20778751.840
  21719916.123   -15740412.81349 -12253106.35847  21719915.805    21719920.222
  22739908.350   -14826272.28649 -11527098.13246  22739907.819    22739914.337
  20491762.535   -27794560.41749 -21632491.33648  20491761.858    20491765.924
  21887173.907   -15809988.42149 -12293460.29747  21887173.395    21887177.654
  22575884.309   -10053364.06849  -7272789.24646  22575883.881    22575888.411
  21457485.932   -19959578.43949 -15531550.68347  21457485.472    21457488.433
 03  4 15  0  4 30.0000000  0  9G 9G21G14G 3G17G15G23G31G18
  23478044.914    -7373268.53849  -5725290.38045  23478044.608    23478050.658
  22486310.207   -18536827.43449 -14419095.57446  22486309.662    22486313.725
  20768099.229   -23174509.49649 -18035518.35247  20768098.775    20768101.884
  21722515.073   -15726755.46949 -12242464.28847  21722514.746    21722519.137
  22754741.195   -14748325.82749 -11466360.73046  22754740.620    22754747.160
  20498099.784   -27761258.26349 -21606541.61748  20498099.071    20498103.160
  21896187.927   -15762619.63649 -12256549.58547  21896187.415    21896191.622
  22568904.892   -10090040.99949  -7301368.64046  22568904.463    22568909.015
  21467285.634   -19908080.53949 -15491422.47047  21467285.198    21467288.127
 03  4 15  0  5  0.0000000  0  9G 9G21G14G 3G17G15G23G31G18
  23477279.518    -7377290.72849  -5728424.51245  23477279.328    23477285.215
  22501187.941   -18458644.59149 -14358173.93146  22501187.391    22501191.479
  20757544.428   -23229975.35749 -18078738.45647  20757543.971    20757547.018
  21725219.188   -15712545.21249 -12231391.38247  21725218.894    21725223.276
  22769629.616   -14670087.45949 -11405395.85046  22769628.944    22769635.530
  20504515.268   -27727544.65649 -21580271.29448  20504514.570    20504518.631
  21905217.969   -15715166.69749 -12219573.29847  21905217.434    21905221.612
  22562030.962   -10126163.89849  -7329516.33846  22562030.511    22562035.012
  21477113.841   -19856433.12349 -15451177.76247  21477113.414    21477116.299
 03  4 15  0  5 30.0000000  0  9G 9G21G14G 3G17G15G23G31G18
  23476623.514    -7380738.09249  -5731110.73145  23476623.252    23476629.085
  22516121.042   -18380171.15049 -14297025.86246  22516120.454    22516124.562
  20747084.891   -23284940.49849 -18121568.38747  20747084.402    20747087.446
  21728028.337   -15697783.14649 -12219888.49247  21728028.029    21728032.439
  22784573.300   -14591558.05649 -11344204.18546  22784572.698    22784579.233
  20511009.106   -27693419.48249 -21553680.27048  20511008.394    20511012.458
  21914263.755   -15667630.57749 -12182532.19647  21914263.221    21914267.439
  22555262.560   -10161731.92549  -7357231.66146  22555262.067    22555266.650
  21486970.351   -19804637.32149 -15410817.42947  21486969.890    21486972.739
 03  4 15  0  6  0.0000000  0  9G 9G21G14G 3G17G15G23G31G18
  23476076.727    -7383610.22049  -5733348.72245  23476076.601    23476082.570
  22531109.063   -18301408.42349 -14235652.36346  22531108.548    22531112.660
  20736720.684   -23339404.47749 -18164007.80648  20736720.227    20736723.252
  21730942.182   -15682470.71149 -12207956.74147  21730941.882    21730946.299
  22799572.195   -14512738.79349 -11282786.66746  22799571.525    22799578.137
  20517581.170   -27658882.92649 -21526768.68148  20517580.465    20517584.560
  21923325.210   -15620012.35649 -12145427.11547  21923324.658    21923328.944
  22548599.829   -10196744.53349  -7384514.18946  22548599.349    22548603.916
  21496854.735   -19752694.63549 -15370342.63647  21496854.267    21496857.139
 03  4 15  0  6 30.0000000  0  9G 9G21G14G 3G17G15G23G31G18
  23475640.224    -7385904.38149  -5735136.35345  23475639.943    23475645.918
  22546152.450   -18222355.51549 -14174052.75846  22546151.894    22546155.993
  20726452.447   -23393364.33849 -18206054.40848  20726451.996    20726455.000
  21733961.012   -15666606.90849 -12195595.36347  21733960.702    21733965.156
  22814626.271   -14433628.60849 -11221142.44846  22814625.673    22814632.429
  20524231.983   -27623932.96349 -21499534.96748  20524231.260    20524235.346
  21932402.494   -15572311.09949 -12108257.33747  21932401.944    21932406.229
  22542043.379   -10231198.97249  -7411361.78846  22542042.869    22542047.391
  21506767.209   -19700603.80249 -15329752.41247  21506766.765    21506769.724
 03  4 15  0  7  0.0000000  0  9G 9G21G14G 3G17G15G23G31G18
  23475313.191    -7387621.71949  -5736474.51745  23475313.059    23475318.919
  22561250.485   -18143014.82149 -14112228.89446  22561249.962    22561254.038
  20716280.055   -23446820.71149 -18247708.67948  20716279.588    20716282.562
  21737084.109   -15650194.88849 -12182806.79847  21737083.790    21737088.295
  22829735.445   -14354229.68449 -11159273.24546  22829734.843    22829741.685
  20530961.052   -27588571.40749 -21471980.52148  20530960.342    20530964.466
  21941495.169   -15524529.40849 -12071024.88147  21941494.589    21941498.821
  22535592.916   -10265096.17149  -7437775.15746  22535592.405    22535596.965
  21516707.426   -19648367.62349 -15289048.92747  21516706.994    21516709.918
 03  4 15  0  7 30.0000000  0  9G 9G21G14G 3G17G15G23G31G18
  23475096.900    -7388759.15749  -5737360.80945  23475096.629    23475102.548
  22576403.573   -18063385.15049 -14050179.87346  22576403.032    22576407.058
  20706204.054   -23499770.16549 -18288967.95248  20706203.593    20706206.544
  21740311.766   -15633233.46149 -12169590.12847  21740311.445    21740315.919
  22844899.797   -14274540.70149 -11097178.03546  22844899.265    22844906.094
  20537768.925   -27552795.86749 -21444103.49648  20537768.199    20537772.322
  21950603.375   -15476665.72549 -12033728.53147  21950602.784    21950606.997
  22529249.056   -10298433.09049  -7463751.96046  22529248.605    22529253.088
  21526675.563   -19595984.88249 -15248231.24347  21526675.123    21526678.058
 03  4 15  0  8  0.0000000  0  9G 9G21G14G 3G17G15G23G31G18
  23474990.416    -7389317.72249  -5737796.04045  23474990.223    23474996.220
  22591611.298   -17983468.65649 -13987907.34446  22591610.703    22591614.778
  20696224.386   -23552213.60649 -18329832.92848  20696223.922    20696226.879
  21743643.528   -15615725.04549 -12155947.23547  21743643.219    21743647.681
  22860119.016   -14194564.10349 -11034858.70546  22860118.399    22860125.194
  20544655.303   -27516607.84149 -21415905.05648  20544654.562    20544658.675
  21959726.635   -15428722.33849 -11996370.08347  21959726.048    21959730.304
  22523011.748   -10331210.41249  -7489292.71746  22523011.284    22523015.774
  21536671.001   -19543458.22349 -15207301.41447  21536670.603    21536673.622
 03  4 15  0  8 30.0000000  0  9G 9G21G14G 3G17G15G23G31G18
  23474994.588    -7389296.33549  -5737779.34845  23474994.360    23475000.337
  22606873.378   -17903265.83949 -13925411.71146  22606872.828    22606876.953
  20686341.266   -23604149.74749 -18370302.60548  20686340.794    20686343.743
  21747079.248   -15597670.45049 -12141878.74547  21747078.941    21747083.367
  22875392.845   -14114300.07549 -10972315.39646  22875392.216    22875399.005
  20551620.299   -27480006.69849 -21387384.70348  20551619.570    20551623.674
  21968865.059   -15380699.66449 -11958949.84347  21968864.521    21968868.767
  22516881.108   -10363426.99249  -7514396.51146  22516880.658    22516885.160
  21546693.888   -19490787.96749 -15166259.68747  21546693.465    21546696.487
 03  4 15  0  9  0.0000000  0  9G 9G21G14G 3G17G15G23G31G18
  23475108.771    -7388695.75649  -5737311.37645  23475108.571    23475114.615
  22622189.605   -17822779.05249 -13862694.79046  22622189.074    22622193.120
  20676554.540   -23655578.85649 -18410377.18748  20676554.089    20676557.043
  21750618.308   -15579072.54649 -12127386.88847  21750618.001    21750622.435
  22890720.823   -14033750.95949 -10909549.92846  22890720.284    22890727.011
  20558663.627   -27442993.83749 -21358543.52647  20558662.874    20558667.008
  21978018.208   -15332599.92149 -11921469.54347  21978017.635    21978021.905
  22510857.010   -10395083.53749  -7539063.92246  22510856.539    22510861.074
  21556743.555   -19437976.67349 -15125108.05147  21556743.127    21556746.112
 03  4 15  0  9 30.0000000  0  9G 9G21G14G 3G17G15G23G31G18
  23475334.285    -7387511.52549  -5736388.55845  23475333.905    23475339.833
  22637560.310   -17742005.60549 -13799754.50546  22637559.763    22637563.846
  20666865.326   -23706496.07149 -18450052.89748  20666864.877    20666867.791
  21754261.284   -15559928.69449 -12112469.62947  21754260.978    21754265.458
  22906103.816   -13952913.56549 -10846559.83145  22906103.185    22906109.904
  20565786.033   -27405565.35449 -21329378.49347  20565785.303    20565789.428
  21987186.531   -15284420.04149 -11883926.80447  21987185.978    21987190.251
  22504940.377   -10426175.45449  -7563291.36146  22504939.934    22504944.460
  21566820.752   -19385021.07549 -15083843.98147  21566820.301    21566823.225
 03  4 15  0 10  0.0000000  0  9G 9G21G14G 3G17G15G23G31G18
  23475670.277    -7385744.99149  -5735012.04145  23475669.992    23475676.065
  22652985.065   -17660948.25049 -13736592.99746  22652984.536    22652988.651
  20657273.212   -23756902.85649 -18489330.87148  20657272.728    20657275.631
  21758007.573   -15540242.00949 -12097129.38347  21758007.255    21758011.668
  22921540.945   -13871790.99949 -10783347.54245  22921540.348    22921547.056
  20572987.151   -27367723.18449 -21299891.10947  20572986.448    20572990.541
  21996369.563   -15236162.74249 -11846323.73847  21996369.001    21996373.319
  22499131.090   -10456704.01149  -7587079.83246  22499130.596    22499135.093
  21576924.785   -19331924.45449 -15042470.01247  21576924.286    21576927.226
 03  4 15  0 10 30.0000000  0  9G 9G21G14G 3G17G15G23G31G18
  23476117.562    -7383395.49049  -5733181.22545  23476117.252    23476123.074
  22668463.798   -17579607.45849 -13673210.63346  22668463.230    22668467.350
  20647778.482   -23806797.69649 -18528209.92848  20647778.021    20647780.904
  21761856.926   -15520013.47649 -12081366.92147  21761856.620    21761861.058
  22937032.311   -13790383.44249 -10719913.15945  22937031.723    22937038.441
  20580267.088   -27329467.02949 -21270081.13947  20580266.358    20580270.471
  22005567.259   -15187828.31649 -11808660.56747  22005566.733    22005571.092
  22493429.039   -10486668.23149  -7610428.56546  22493428.524    22493432.975
  21587055.416   -19278687.49149 -15000986.68047  21587054.933    21587057.925
 03  4 15  0 11  0.0000000  0  9G 9G21G14G 3G17G15G23G31G18
  23476675.558    -7380463.09549  -5730896.23245  23476675.276    23476681.135
  22683996.087   -17497984.94549 -13609608.74746  22683995.507    22683999.663
  20638381.209   -23856180.40249 -18566689.91648  20638380.756    20638383.641
  21765809.083   -15499245.02549 -12065183.73147  21765808.764    21765813.192
  22952577.711   -13708692.57449 -10656258.03145  22952577.011    22952583.760
  20587625.620   -27290797.55349 -21239949.09847  20587624.914    20587629.008
  22014779.495   -15139418.32449 -11770938.51147  22014778.936    22014783.272
  22487834.387   -10516068.15949  -7633337.58346  22487833.916    22487838.338
  21597212.524   -19225311.48549 -14959395.00647  21597212.071    21597215.084
 03  4 15  0 11 30.0000000  0  9G 9G21G14G 3G17G15G23G31G18
  23477344.305    -7376947.82649  -5728157.06045  23477344.233    23477350.003
  22699581.623   -17416082.37149 -13545788.63546  22699581.117    22699585.339
  20629081.473   -23905050.78449 -18604770.68748  20629081.014    20629083.888
  21769863.586   -15477938.30649 -12048581.11647  21769863.287    21769867.707
  22968176.689   -13626719.92549 -10592383.33445  22968176.013    22968182.731
  20595062.754   -27251715.14549 -21209495.28547  20595062.045    20595066.168
  22024005.805   -15090933.99549 -11733158.52847  22024005.229    22024009.508
  22482347.134   -10544903.78749  -7655806.88246  22482346.655    22482351.067
  21607395.878   -19171797.91949 -14917696.14347  21607395.401    21607398.362
 03  4 15  0 12  0.0000000  0  9G 9G21G14G 3G17G15G23G31G18
  23478125.145    -7372843.99549  -5724959.25245  23478125.062    23478130.898
  22715221.470   -17333895.33049 -13481746.85546  22715220.839    22715225.029
  20619880.306   -23953402.86449 -18642447.59548  20619879.844    20619882.725
  21774021.257   -15456089.63049 -12031556.19447  21774020.959    21774025.427
  22983830.000   -13544461.40249 -10528285.88245  22983829.346    22983836.115
  20602579.477   -27212214.80349 -21178715.81847  20602578.761    20602582.874
  22033247.031   -15042370.91049 -11695317.18447  22033246.471    22033250.756
  22476968.345   -10573169.16949  -7677831.83146  22476967.879    22476972.315
  21617606.112   -19118142.68549 -14875886.89347  21617605.633    21617608.649
 03  4 15  0 12 30.0000000  0  9G 9G21G14G 3G17G15G23G31G18
  23479017.241    -7368155.99749  -5721306.23845  23479017.185    23479023.044
  22730914.185   -17251429.52449 -13417487.84946  22730913.666    22730917.782
  20610777.092   -24001240.52349 -18679723.65348  20610776.646    20610779.473
  21778280.885   -15433705.16949 -12014113.77547  21778280.580    21778285.077
  22999536.682   -13461922.31549 -10463969.80645  22999536.052    22999542.880
  20610174.764   -27172301.17349 -21147614.29647  20610174.043    20610178.200
  22042502.223   -14993734.51449 -11657418.70847  22042501.674    22042505.964
  22471697.359   -10600868.41749  -7699415.65146  22471696.888    22471701.338
  21627842.284   -19064351.13149 -14833971.41547  21627841.827    21627844.872
 03  4 15  0 13  0.0000000  0  9G 9G21G14G 3G17G15G23G31G18
  23480020.961    -7362882.07049  -5717196.66245  23480020.730    23480026.612
  22746660.151   -17168684.45549 -13353011.24446  22746659.555    22746663.703
  20601772.194   -24048561.57749 -18716597.15648  20601771.700    20601774.512
  21782642.496   -15410784.81949 -11996253.78347  21782642.191    21782646.683
  23015296.929   -13379101.63549 -10399434.30645  23015296.392    23015303.214
  20617848.967   -27131972.95849 -21116189.72947  20617848.271    20617852.396
  22051771.516   -14945024.16549 -11619462.60647  22051770.937    22051775.243
  22466534.517   -10627999.57349  -7720556.79346  22466534.042    22466538.470
  21638104.460   -19010422.91549 -14791949.44947  21638104.022    21638107.035
 03  4 15  0 13 30.0000000  0  9G 9G21G14G 3G17G15G23G31G18
  23481136.068    -7357022.28849  -5712630.56245  23481135.858    23481141.692
  22762458.868   -17085661.77149 -13288318.32346  22762458.218    22762462.463
  20592865.609   -24095365.67449 -18753067.84748  20592865.156    20592867.976
  21787105.796   -15387329.98849 -11977977.31747  21787105.491    21787110.006
  23031110.476   -13296000.96949 -10334680.62645  23031109.934    23031116.858
  20625602.006   -27091230.57249 -21084442.43547  20625601.313    20625605.473
  22061054.669   -14896240.96049 -11581449.74547  22061054.090    22061058.387
  22461479.767   -10654562.57649  -7741255.23046  22461479.291    22461483.664
  21648392.473   -18956359.14149 -14749821.85647  21648392.020    21648395.040
 03  4 15  0 14  0.0000000  0  9G 9G21G14G 3G17G15G23G31G18
  23482362.842    -7350574.90749  -5707606.61245  23482362.619    23482368.559
  22778310.471   -17002360.88349 -13223408.62146  22778309.884    22778314.192
  20584057.773   -24141650.93449 -18789134.24648  20584057.314    20584060.119
  21791670.818   -15363340.85749 -11959284.50947  21791670.510    21791675.057
  23046977.424   -13212620.09249 -10269708.60345  23046976.860    23046983.783
  20633434.097   -27050072.75549 -21052371.43347  20633433.391    20633437.538
  22070351.805   -14847384.21649 -11543379.57347  22070351.214    22070355.535
  22456533.438   -10680555.57549  -7761509.50246  22456532.966    22456537.346
  21658706.304   -18902159.64049 -14707588.50447  21658705.880    21658708.906
 03  4 15  0 14 30.0000000  0  9G 9G21G14G 3G17G15G23G31G18
  23483701.869    -7343539.07149  -5702124.10445  23483701.602    23483707.308
  22794214.889   -16918782.49049 -13158282.69046  22794214.343    22794218.702
  20575348.987   -24187415.88749 -18824795.20948  20575348.513    20575351.314
  21796337.276   -15338818.58649 -11940176.26447  21796336.970    21796341.558
  23062897.691   -13128959.50549 -10204518.62745  23062897.078    23062904.042
  20641345.299   -27008498.89349 -21019976.23347  20641344.604    20641348.812
  22079662.900   -14798454.00249 -11505252.15847  22079662.308    22079666.622
  22451695.775   -10705977.51949  -7781318.81046  22451695.295    22451699.675
  21669045.995   -18847824.55149 -14665249.49947  21669045.552    21669048.537
 03  4 15  0 15  0.0000000  0  9G 9G21G14G 3G17G15G23G31G18
  23485152.194    -7335916.68049  -5696184.56845  23485151.907    23485157.852
  22810171.691   -16834929.72549 -13092942.96946  22810171.097    22810175.470
  20566738.847   -24232662.16749 -18860052.01348  20566738.383    20566741.182
  21801104.458   -15313766.88249 -11920655.47547  21801104.130    21801108.733
  23078870.534   -13045022.25649 -10139113.05445  23078869.921    23078876.926
  20649335.301   -26966511.36949 -20987258.70247  20649334.593    20649338.785
  22088987.487   -14749453.30949 -11467069.82547  22088986.902    22088991.160
  22446966.400   -10730830.22549  -7800684.54746  22446965.959    22446970.340
  21679410.876   -18793356.94249 -14622807.23647  21679410.426    21679413.395
 03  4 15  0 15 30.0000000  0  9G 9G21G14G 3G17G15G23G31G18
  23486715.004    -7327704.88849  -5689785.75445  23486714.666    23486720.488
  22826180.869   -16750800.90449 -13027388.11746  22826180.284    22826184.784
  20558228.071   -24277386.31749 -18894901.96348  20558227.595    20558230.423
  21805972.644   -15288184.13149 -11900720.89247  21805972.340    21805976.899
  23094896.279   -12960806.31249 -10073490.33845  23094895.666    23094902.711
  20657404.463   -26924107.61949 -20954216.84047  20657403.777    20657407.987
  22098325.807   -14700380.04849 -11428830.94347  22098325.228    22098329.501
  22442346.042   -10755110.44149  -7819604.19946  22442345.587    22442349.963
  21689801.160   -18738755.15049 -14580260.40947  21689800.743    21689803.762
 03  4 15  0 16  0.0000000  0  9G 9G21G14G 3G17G15G23G31G18
  23488389.408    -7318905.45649  -5682929.03945  23488389.126    23488395.008
  22842242.002   -16666399.14449 -12961620.60746  22842241.455    22842245.962
  20549816.346   -24321589.91949 -18929346.29748  20549815.918    20549818.721
  21810941.180   -15262074.33549 -11880375.62147  21810940.890    21810945.460
  23110974.584   -12876314.94049 -10007653.00045  23110973.946    23110980.963
  20665552.449   -26881289.93449 -20920852.43247  20665551.716    20665555.925
  22107677.351   -14651237.00249 -11390537.68747  22107676.784    22107681.156
  22437834.271   -10778819.99749  -7838079.17346  22437833.781    22437838.240
  21700216.592   -18684021.96449 -14537611.20247  21700216.173    21700219.157
 03  4 15  0 16 30.0000000  0  9G 9G21G14G 3G17G15G23G31G18
  23490176.357    -7309514.96749  -5675611.76145  23490176.070    23490181.865
  22858355.657   -16581722.26149 -12895638.70346  22858355.030    22858359.517
  20541504.473   -24365269.10849 -18963381.99448  20541503.993    20541506.818
  21816010.411   -15235435.64049 -11859618.21547  21816010.110    21816014.717
  23127105.691   -12791545.56349  -9941599.05745  23127105.098    23127112.139
  20673779.792   -26838054.98449 -20887162.88647  20673779.071    20673783.253
  22117042.743   -14602021.60049 -11352188.04547  22117042.200    22117046.592
  22433431.802   -10801955.14149  -7856106.56446  22433431.319    22433435.747
  21710657.485   -18629155.15049 -14494857.86647  21710657.035    21710660.031
 03  4 15  0 17  0.0000000  0  9G 9G21G14G 3G17G15G23G31G18
  23492075.087    -7299537.12349  -5667836.79445  23492074.765    23492080.567
  22874520.454   -16496775.14449 -12829446.22446  22874519.959    22874524.409
  20533291.691   -24408427.17449 -18997011.62248  20533291.238    20533294.073
  21821179.172   -15208273.64049 -11838453.04447  21821178.872    21821183.475
  23143288.778   -12706503.20449  -9875332.36145  23143288.185    23143295.250
  20682085.732   -26794407.05549 -20853151.53747  20682085.010    20682089.206
  22126421.119   -14552738.33449 -11313785.52747  22126420.548    22126424.920
  22429138.004   -10824519.49049  -7873689.18046  22429137.531    22429141.864
  21721122.842   -18574159.51649 -14452004.15547  21721122.370    21721125.472
 03  4 15  0 17 30.0000000  0  9G 9G21G14G 3G17G15G23G31G18
  23494086.127    -7288968.16149  -5659601.24245  23494085.872    23494091.764
  22890737.466   -16411555.13449 -12763041.12746  22890736.932    22890741.333
  20525178.978   -24451059.87449 -19030231.87648  20525178.495    20525181.322
  21826447.992   -15180586.22849 -11816878.46847  21826447.665    21826452.244
  23159524.237   -12621185.38949  -9808851.04845  23159523.695    23159530.847
  20690470.915   -26750342.62349 -20818815.63847  20690470.215    20690474.382
  22135812.886   -14503384.24549 -11275327.82447  22135812.336    22135816.694
  22424953.472   -10846509.07549  -7890823.91846  22424953.018    22424957.408
  21731613.249   -18519031.98849 -14409047.66647  21731612.768    21731615.873
 03  4 15  0 18  0.0000000  0  9G 9G21G14G 3G17G15G23G31G18
  23496209.809    -7277808.83549  -5650905.64645  23496209.612    23496215.274
  22907005.914   -16326064.24149 -12696424.92946  22907005.420    22907009.808
  20517166.128   -24493167.44749 -19063042.94448  20517165.672    20517168.480
  21831816.223   -15152375.79549 -11794896.33747  21831815.928    21831820.544
  23175811.932   -12535593.45849  -9742156.13145  23175811.349    23175818.555
  20698935.218   -26705862.61149 -20784155.90947  20698934.506    20698938.692
  22145217.851   -14453960.90649 -11236816.15847  22145217.305    22145221.689
  22420878.188   -10867924.47249  -7907511.23446  22420877.749    22420882.183
  21742128.425   -18463774.41849 -14365989.84147  21742127.978    21742131.072
 03  4 15  0 18 30.0000000  0  9G 9G21G14G 3G17G15G23G31G18
  23498445.289    -7266060.78449  -5641751.32145  23498445.095    23498450.883
  22923325.161   -16240305.41349 -12629599.96446  22923324.723    22923329.224
  20509253.014   -24534751.06849 -19095445.73348  20509252.570    20509255.317
  21837283.404   -15123645.70549 -11772509.28447  21837283.094    21837287.731
  23192151.264   -12449730.80749  -9675250.27145  23192150.648    23192157.705
  20707478.199   -26660968.99049 -20749173.89347  20707477.482    20707481.695
  22154635.475   -14404470.75349 -11198252.42247  22154634.926    22154639.410
  22416912.069   -10888767.01249  -7923752.18346  22416911.585    22416915.950
  21752667.870   -18408389.45249 -14322832.75047  21752667.402    21752670.579
 03  4 15  0 19  0.0000000  0  9G 9G21G14G 3G17G15G23G31G18
  23500793.650    -7253720.19949  -5632135.25745  23500793.539    23500799.175
  22939696.171   -16154276.06849 -12562564.20546  22939695.659    22939700.200
  20501440.382   -24575806.75749 -19127437.14748  20501439.909    20501442.663
  21842849.820   -15094393.73649 -11749715.57347  21842849.550    21842854.232
  23208542.462   -12363594.76049  -9608131.37545  23208541.871    23208548.919
  20716100.555   -26615658.31749 -20713866.89947  20716099.823    20716104.056
  22164066.391   -14354910.61649 -11159634.15747  22164065.876    22164070.397
  22413055.574   -10909032.92049  -7939543.80746  22413055.105    22413059.430
  21763231.996   -18352874.08849 -14279574.04847  21763231.568    21763234.792
 03  4 15  0 19 30.0000000  0  9G 9G21G14G 3G17G15G23G31G18
  23503254.039    -7240791.00449  -5622060.57145  23503253.756    23503259.684
  22956117.563   -16067981.08749 -12495321.44846  22956117.111    22956121.720
  20493727.492   -24616337.99049 -19159019.90448  20493727.048    20493729.820
  21848514.563   -15064625.69549 -11726519.74747  21848514.278    21848518.877
  23224984.840   -12277189.77849  -9540802.92445  23224984.208    23224991.387
  20724801.530   -26569934.51149 -20678237.98447  20724800.819    20724805.076
  22173509.889   -14305285.02849 -11120964.89547  22173509.339    22173513.860
  22409308.100   -10928725.73149  -7954888.84946  22409307.669    22409312.003
  21773820.176   -18297233.01549 -14236217.39947  21773819.738    21773822.869
 03  4 15  0 20  0.0000000  0  9G 9G21G14G 3G17G15G23G31G18
  23505827.115    -7227269.40449  -5611524.23345  23505826.905    23505832.745
  22972590.149   -15981417.68449 -12427869.54046  22972589.657    22972594.254
  20486115.281   -24656340.32049 -19190190.52348  20486114.818    20486117.570
  21854277.915   -15034339.16549 -11702919.88247  21854277.628    21854282.262
  23241479.105   -12190512.89549  -9473262.59145  23241478.359    23241485.567
  20733581.796   -26523794.20849 -20642284.52847  20733581.080    20733585.310
  22182966.415   -14255590.78349 -11082242.12347  22182965.882    22182970.393
  22405670.550   -10947841.43849  -7969784.20446  22405670.098    22405674.435
  21784432.892   -18241463.40949 -14192760.58247  21784432.431    21784435.490
 03  4 15  0 20 30.0000000  0  9G 9G21G14G 3G17G15G23G31G18
  23508512.213    -7213158.65249  -5600528.83245  23508512.056    23508517.844
  22989113.016   -15894590.36249 -12360211.98646  22989112.449    22989117.013
  20478603.179   -24695816.50749 -19220951.15748  20478602.728    20478605.478
  21860138.941   -15003539.47549 -11678920.15947  21860138.641    21860143.285
  23258024.188   -12103568.55049  -9405513.84145  23258023.435    23258030.646
  20742440.605   -26477240.91949 -20606009.26447  20742439.888    20742444.117
  22192435.269   -14205831.86049 -11043468.95747  22192434.757    22192439.228
  22402142.149   -10966383.15349  -7984232.28746  22402141.700    22402146.044
  21795069.171   -18185569.24049 -14149206.70047  21795068.718    21795071.864
 03  4 15  0 21  0.0000000  0  9G 9G21G14G 3G17G15G23G31G18
  23511310.322    -7198454.94749  -5589071.39445  23511310.169    23511315.933
  23005686.467   -15807496.41549 -12292346.63746  23005685.955    23005690.543
  20471192.091   -24734762.05449 -19251298.30748  20471191.619    20471194.373
  21866098.124   -14972224.02149 -11654518.53947  21866097.815    21866102.441
  23274620.471   -12016354.26749  -9337554.75545  23274619.845    23274627.039
  20751378.767   -26430270.73549 -20569409.14347  20751378.030    20751382.277
  22201917.080   -14156004.74249 -11004642.64047  22201916.563    22201920.963
  22398723.775   -10984346.73149  -7998229.87746  22398723.307    22398727.675
  21805729.843   -18129547.07149 -14105553.08147  21805729.387    21805732.486
 03  4 15  0 21 30.0000000  0  9G 9G21G14G 3G17G15G23G31G18
  23514220.376    -7183161.95649  -5577154.77745  23514220.194    23514226.074
  23022309.827   -15720140.46549 -12224277.17146  23022309.246    23022313.902
  20463881.268   -24773180.36049 -19281234.61948  20463880.800    20463883.578
  21872154.380   -14940398.34149 -11629719.33447  21872154.053    21872158.678
  23291267.428   -11928874.68849  -9269388.95645  23291266.751    23291273.936
  20760395.508   -26382887.54349 -20532487.19947  20760394.778    20760399.017
  22211411.102   -14106113.68249 -10965766.50447  22211410.550    22211414.913
  22395414.739   -11001735.64649  -8011779.67746  22395414.308    22395418.706
  21816414.053   -18073401.60849 -14061803.39147  21816413.561    21816416.601
 03  4 15  0 22  0.0000000  0  9G 9G21G14G 3G17G15G23G31G18
  23517243.674    -7167275.06749  -5564775.36545  23517243.521    23517249.227
  23038983.701   -15632519.15149 -12156000.90846  23038983.103    23038987.819
  20456671.712   -24811066.48649 -19310756.24948  20456671.271    20456674.048
  21878308.228   -14908059.80349 -11604520.50647  21878307.902    21878312.490
  23307965.492   -11841126.38149  -9201013.72945  23307964.822    23307971.958
  20769491.620   -26335087.21749 -20495240.22247  20769490.891    20769495.117
  22220918.010   -14056154.76449 -10926837.49247  22220917.449    22220921.815
  22392215.921   -11018545.35649  -8024878.14646  22392215.492    22392219.873
  21827122.328   -18017129.23949 -14017954.81247  21827121.858    21827124.920
 03  4 15  0 22 30.0000000  0  9G 9G21G14G 3G17G15G23G31G18
  23520378.886    -7150799.38249  -5551937.17345  23520378.621    23520384.451
  23055706.892   -15544638.41149 -12087522.50746  23055706.296    23055711.048
  20449562.623   -24848424.90349 -19339866.67648  20449562.193    20449564.925
  21884558.434   -14875214.88449 -11578927.10947  21884558.086    21884562.697
  23324713.568   -11753114.86049  -9132433.41845  23324712.876    23324720.073
  20778666.201   -26286874.73449 -20457672.08147  20778665.449    20778669.658
  22230436.744   -14006133.40849 -10887859.82947  22230436.189    22230440.621
  22389126.513   -11034780.55049  -8037528.92946  22389126.080    22389130.475
  21837853.766   -17960735.33349 -13974011.52847  21837853.299    21837856.347
 03  4 15  0 23  0.0000000  0  9G 9G21G14G 3G17G15G23G31G18
  23523626.641    -7133732.37349  -5538638.17545  23523626.392    23523632.134
  23072479.713   -15456496.87849 -12018840.88646  23072479.135    23072483.939
  20442554.584   -24885252.57849 -19368563.53348  20442554.144    20442556.831
  21890905.115   -14841862.82149 -11552938.53047  21890904.812    21890909.405
  23341512.180   -11664838.30149  -9063646.57745  23341511.518    23341518.680
  20787919.569   -26238247.96249 -20419781.11447  20787918.813    20787923.063
  22239967.785   -13956047.47749 -10848831.85147  22239967.241    22239971.672
  22386146.875   -11050438.47649  -8049729.89146  22386146.433    22386150.836
  21848608.686   -17904218.07149 -13929972.11747  21848608.213    21848611.223
 03  4 15  0 23 30.0000000  0  9G 9G21G14G 3G17G15G23G31G18
  23526987.109    -7116072.50549  -5524877.23945  23526986.846    23526992.798
  23089302.276   -15368093.76449 -11949955.44246  23089301.749    23089306.533
  20435647.918   -24921547.30349 -19396845.11048  20435647.456    20435650.136
  21897348.405   -14808003.48049 -11526554.67047  21897348.071    21897352.643
  23358361.103   -11576296.69849  -8994653.22945  23358360.503    23358367.725
  20797252.087   -26189205.33949 -20381566.11747  20797251.333    20797255.614
  22249511.317   -13905895.66149 -10809752.53847  22249510.774    22249515.226
  22383277.467   -11065517.27549  -8061479.59046  22383277.040    22383281.473
  21859387.335   -17847576.30449 -13885835.69647  21859386.851    21859389.871
 03  4 15  0 24  0.0000000  0  9G 9G21G14G 3G17G15G23G31G18
  23530459.822    -7097822.35949  -5510656.36545  23530459.622    23530465.588
  23106174.079   -15279432.50549 -11880868.86046  23106173.439    23106178.202
  20428842.258   -24957311.22649 -19424713.07448  20428841.767    20428844.472
  21903887.408   -14773640.89749 -11499778.66647  21903887.084    21903891.669
  23375259.765   -11487493.06049  -8925455.67545  23375259.295    23375266.587
  20806663.278   -26139749.33849 -20343029.01047  20806662.537    20806666.814
  22259066.866   -13855680.81749 -10770624.10647  22259066.339    22259070.779
  22380517.806   -11080019.26849  -8072779.83246  22380517.370    22380521.817
  21870188.989   -17790813.25949 -13841604.76947  21870188.534    21870191.589
 03  4 15  0 24 30.0000000  0  9G 9G21G14G 3G17G15G23G31G18
  23534045.379    -7078980.60049  -5495974.47145  23534045.179    23534051.032
  23123094.930   -15190513.05049 -11811581.07446  23123094.345    23123099.140
  20422137.900   -24992542.54749 -19452166.02248  20422137.449    20422140.149
  21910522.127   -14738775.59349 -11472610.93047  21910521.802    21910526.404
  23392208.510   -11398427.54349  -8856054.08945  23392207.941    23392215.282
  20816153.249   -26089879.04449 -20304169.06847  20816152.537    20816156.802
  22268634.618   -13805402.00649 -10731445.83347  22268634.115    22268638.554
  22377868.190   -11093943.10049  -8083629.54946  22377867.744    22377872.233
  21881013.858   -17733928.23949 -13797278.79947  21881013.399    21881016.499
 03  4 15  0 25  0.0000000  0  9G 9G21G14G 3G17G15G23G31G18
  23537743.279    -7059548.33149  -5480832.43945  23537742.840    23537748.954
  23140064.583   -15101337.40949 -11742093.65946  23140063.957    23140068.730
  20415534.873   -25027241.84749 -19479204.41448  20415534.410    20415537.085
  21917251.885   -14703410.40849 -11445053.69047  21917251.592    21917256.185
  23409206.803   -11309101.72549  -8786449.64445  23409206.193    23409213.519
  20825721.870   -26039595.57349 -20264987.17547  20825721.173    20825725.476
  22278214.275   -13755060.63949 -10692218.81847  22278213.773    22278218.182
  22375328.384   -11107289.58749  -8094029.40146  22375327.963    22375332.457
  21891861.633   -17676922.87249 -13752859.06147  21891861.150    21891864.282
 03  4 15  0 25 30.0000000  0  9G 9G21G14G 3G17G15G23G31G18
  23541553.520    -7039525.13749  -5465229.95945  23541553.112    23541559.111
  23157082.888   -15011905.87049 -11672406.84946  23157082.286    23157087.068
  20409033.175   -25061408.29549 -19505827.58748  20409032.721    20409035.378
  21924076.577   -14667546.70649 -11417107.98747  21924076.298    21924080.857
  23426254.423   -11219515.89849  -8716642.63645  23426253.881    23426261.220
  20835369.214   -25988898.55949 -20225483.04347  20835368.514    20835372.828
  22287805.898   -13704656.46449 -10652942.85747  22287805.363    22287809.753
  22372898.698   -11120057.98349  -8103978.78846  22372898.255    22372902.661
  21902732.332   -17619796.84949 -13708345.29647  21902731.894    21902735.078
 03  4 15  0 26  0.0000000  0  9G 9G21G14G 3G17G15G23G31G18
  23545476.066    -7018912.02549  -5449167.80145  23545475.706    23545481.656
  23174149.537   -14922220.33349 -11602522.11346  23174148.980    23174153.731
  20402632.878   -25095042.17049 -19532035.77048  20402632.402    20402635.054
  21930995.625   -14631186.85149 -11388775.67647  21930995.328    21930999.906
  23443351.168   -11129671.88749  -8646634.43245  23443350.716    23443358.017
  20845095.078   -25937789.02649 -20185657.46747  20845094.381    20845098.680
  22297409.256   -13654190.74049 -10613618.94547  22297408.735    22297413.146
  22370578.843   -11132249.02549  -8113478.29846  22370578.401    22370582.804
  21913625.777   -17562551.65649 -13663738.68647  21913625.323    21913628.442
 03  4 15  0 26 30.0000000  0  9G 9G21G14G 3G17G15G23G31G18
  23549511.187    -6997707.50149  -5432644.80245  23549510.813    23549516.823
  23191264.670   -14832280.31949 -11532439.10046  23191264.082    23191268.865
  20396334.253   -25128141.43549 -19557827.38048  20396333.812    20396336.451
  21938009.104   -14594330.86649 -11360056.77347  21938008.812    21938013.427
  23460497.206   -11039568.94449  -8576424.46645  23460496.776    23460504.166
  20854899.677   -25886265.61349 -20145509.38647  20854898.974    20854903.278
  22307024.605   -13603662.18049 -10574246.07647  22307024.058    22307028.471
  22368369.071   -11143861.09249  -8122526.65046  22368368.621    22368373.037
  21924542.122   -17505186.37949 -13619038.50247  21924541.626    21924544.738
 03  4 15  0 27  0.0000000  0  9G 9G21G14G 3G17G15G23G31G18
  23553658.428    -6975913.24049  -5415662.27645  23553658.151    23553663.998
  23208427.733   -14742088.35849 -11462159.76346  23208427.130    23208431.950
  20390137.157   -25160707.31949 -19583203.36548  20390136.712    20390139.315
  21945116.452   -14556981.95649 -11330953.76847  21945116.132    21945120.796
  23477692.019   -10949209.78349  -8506014.84245  23477691.622    23477699.021
  20864782.741   -25834329.99549 -20105040.09947  20864782.022    20864786.321
  22316651.484   -13553072.59249 -10534825.64747  22316650.924    22316655.433
  22366269.266   -11154895.65949  -8131125.00746  22366268.834    22366273.191
  21935480.801   -17447703.00949 -13574246.28847  21935480.333    21935483.491
 03  4 15  0 27 30.0000000  0  9G 9G21G14G 3G17G15G23G31G18
  23557918.022    -6953529.16749  -5398220.14645  23557917.722    23557923.506
  23225638.612   -14651645.26749 -11391684.73246  23225637.965    23225642.824
  20384041.679   -25192739.37149 -19608163.38048  20384041.212    20384043.806
  21952317.216   -14519141.87949 -11301468.03647  21952316.897    21952321.542
  23494935.561   -10858595.13149  -8435406.11645  23494935.155    23494942.431
  20874744.303   -25781982.09749 -20064249.56447  20874743.566    20874747.837
  22326289.932   -13502422.01849 -10495357.69547  22326289.401    22326293.975
  22364279.484   -11165352.43349  -8139273.14446  22364279.032    22364283.365
  21946441.992   -17390101.65649 -13529362.15547  21946441.515    21946444.638
 03  4 15  0 28  0.0000000  0  9G 9G21G14G 3G17G15G23G31G18
  23562289.811    -6930555.21349  -5380318.38045  23562289.547    23562295.331
  23242897.086   -14560951.76549 -11321014.57946  23242896.497    23242901.346
  20378047.899   -25224236.63549 -19632706.67748  20378047.451    20378050.034
  21959611.138   -14480811.95049 -11271600.59847  21959610.878    21959615.532
  23512227.533   -10767725.80649  -8364598.94245  23512227.104    23512234.406
  20884784.229   -25729221.87749 -20023137.73747  20884783.515    20884787.767
  22335940.134   -13451710.29549 -10455842.09647  22335939.590    22335944.165
  22362399.632   -11175231.13549  -8146970.82446  22362399.163    22362403.512
  21957425.607   -17332382.69749 -13484386.37647  21957425.111    21957428.224
 03  4 15  0 28 30.0000000  0  9G 9G21G14G 3G17G15G23G31G18
  23566773.973    -6906990.90649  -5361956.59545  23566773.802    23566779.348
  23260203.179   -14470008.10249 -11250149.49046  23260202.616    23260207.381
  20372156.068   -25255198.21049 -19656832.55448  20372155.630    20372158.195
  21966998.221   -14441993.03149 -11241352.12847  21966997.924    21967002.568
  23529567.943   -10676601.98549  -8293593.47745  23529567.439    23529574.830
  20894902.750   -25676048.83949 -19981704.23447  20894902.050    20894906.302
  22345601.968   -13400937.00449 -10416278.52347  22345601.432    22345606.060
  22360629.882   -11184530.92149  -8154217.40746  22360629.438    22360633.796
  21968431.645   -17274545.69849 -13439318.61647  21968431.162    21968434.285
 03  4 15  0 29  0.0000000  0  9G 9G21G14G 3G17G15G23G31G18
  23571369.855    -6882839.05249  -5343136.96845  23571369.710    23571375.420
  23277556.150   -14378817.92049 -11179092.33645  23277555.633    23277560.431
  20366365.794   -25285626.29249 -19680542.72548  20366365.359    20366367.889
  21974477.486   -14402689.55749 -11210726.08447  21974477.176    21974481.773
  23546956.184   -10585226.91349  -8222392.22045  23546955.712    23546963.080
  20905099.280   -25622465.80249 -19939951.25647  20905098.571    20905102.858
  22355274.983   -13350104.82249 -10376669.05247  22355274.475    22355279.116
  22358969.859   -11193254.27949  -8161014.82946  22358969.438    22358973.771
  21979459.575   -17216593.49649 -13394161.08947  21979459.087    21979462.247
 03  4 15  0 29 30.0000000  0  9G 9G21G14G 3G17G15G23G31G18
  23576077.777    -6858098.87349  -5323858.94045  23576077.561    23576083.433
  23294956.023   -14287381.26449 -11107843.11945  23294955.547    23294960.393
  20360677.258   -25315519.79549 -19703836.33948  20360676.797    20360679.326
  21982048.618   -14362902.79049 -11179723.43447  21982048.305    21982052.976
  23564392.244   -10493600.58849  -8150995.17945  23564391.611    23564398.950
  20915373.969   -25568472.03749 -19897878.22947  20915373.259    20915377.560
  22364959.490   -13299213.06549 -10337013.16847  22364958.941    22364963.425
  22357419.701   -11201400.48249  -8167362.52046  22357419.231    22357423.624
  21990509.419   -17158525.89249 -13348913.63647  21990508.967    21990512.164
 03  4 15  0 30  0.0000000  0  9G 9G21G14G 3G17G15G23G31G18
  23580897.909    -6832769.36349  -5304121.66445  23580897.615    23580903.424
  23312403.003   -14195697.70149 -11036401.50445  23312402.460    23312407.344
  20355090.821   -25344876.73749 -19726711.85448  20355090.364    20355092.849
  21989711.719   -14322632.91049 -11148344.35147  21989711.429    21989716.125
  23581876.162   -10401722.63649  -8079402.05645  23581875.587    23581882.837
  20925727.025   -25514066.34149 -19855484.22347  20925726.341    20925730.667
  22374655.395   -13248260.58049 -10297309.95447  22374654.859    22374659.381
  22355979.615   -11208968.02149  -8173259.30546  22355979.148    22355983.589
  22001581.573   -17100341.84249 -13303575.45047  22001581.092    22001584.264
 03  4 15  0 30 30.0000000  0  9G 9G21G14G 3G17G15G23G31G18
  23585829.768    -6806851.66149  -5283926.04345  23585829.560    23585835.465
  23329896.510   -14103769.22949 -10964769.05845  23329895.929    23329900.831
  20349606.331   -25373697.83249 -19749169.82348  20349605.881    20349608.345
  21997466.308   -14281882.61449 -11116590.90847  21997466.001    21997470.676
  23599407.470   -10309595.20749  -8007614.54345  23599406.761    23599414.122
  20936158.308   -25459249.80349 -19812770.07447  20936157.610    20936161.939
  22384362.718   -13197248.55749 -10257560.34747  22384362.178    22384366.701
  22354649.415   -11215958.00149  -8178706.04346  22354648.978    22354653.441
  22012675.504   -17042042.77949 -13258147.62747  22012675.032    22012678.240
 03  4 15  0 31  0.0000000  0  9G 9G21G14G 3G17G15G23G31G18
  23590873.686    -6780345.85449  -5263272.17345  23590873.488    23590879.351
  23347436.386   -14011596.78249 -10892946.48145  23347435.796    23347440.783
  20344223.858   -25401982.74049 -19771209.99148  20344223.417    20344225.894
  22005311.863   -14240653.64049 -11084464.47547  22005311.580    22005316.349
  23616986.113   -10217218.65849  -7935632.91145  23616985.461    23616992.914
  20946667.742   -25404022.57749 -19769735.91447  20946667.044    20946671.404
  22394081.326   -13146176.90349 -10217764.27647  22394080.780    22394085.308
  22353429.198   -11222370.15549  -8183702.51946  22353428.763    22353433.243
  22023791.335   -16983628.69149 -13212630.18247  22023790.897    22023794.070
 03  4 15  0 31 30.0000000  0  9G 9G21G14G 3G17G15G23G31G18
  23596029.128    -6753253.22449  -5242161.04445  23596029.039    23596034.851
  23365022.407   -13919182.14449 -10820935.19745  23365021.851    23365026.834
  20338943.357   -25429731.97249 -19792832.75148  20338942.893    20338945.376
  22013248.043   -14198948.88549 -11051967.31547  22013247.766    22013252.580
  23634611.795   -10124594.99149  -7863458.72445  23634611.258    23634618.785
  20957255.114   -25348385.72149 -19726382.56247  20957254.425    20957258.792
  22403811.048   -13095046.78749 -10177922.64847  22403810.525    22403815.061
  22352318.737   -11228205.62249  -8188249.64146  22352318.302    22352322.820
  22034928.875   -16925100.85949 -13167024.10547  22034928.417    22034931.553
 03  4 15  0 32  0.0000000  0  9G 9G21G14G 3G17G15G23G31G18
  23601296.441    -6725573.83549  -5220592.68945  23601296.252    23601302.154
  23382654.285   -13826526.10049 -10748735.80245  23382653.776    23382658.766
  20333764.889   -25456944.94249 -19814037.64448  20333764.428    20333766.898
  22021274.563   -14156769.53649 -11019100.33647  22021274.269    22021279.107
  23652284.519   -10031725.03349  -7791092.63845  23652283.884    23652291.566
  20967920.503   -25292339.05849 -19682709.87147  20967919.791    20967924.154
  22413551.997   -13043857.83649 -10138035.17947  22413551.441    22413556.050
  22351318.152   -11233463.92949  -8192347.03046  22351317.725    22351322.120
  22046087.966   -16866459.38849 -13121329.47347  22046087.501    22046090.711
 03  4 15  0 32 30.0000000  0  9G 9G21G14G 3G17G15G23G31G18
  23606674.914    -6697310.17449  -5198569.08645  23606674.669    23606680.550
  23400331.667   -13733631.72149 -10676350.67645  23400331.048    23400336.114
  20328688.080   -25483623.57149 -19834826.16248  20328687.642    20328690.103
  22029390.639   -14114119.59749 -10985866.65147  22029390.311    22029395.171
  23670003.551    -9938611.85749  -7718537.03145  23670002.868    23670010.434
  20978663.339   -25235884.98249 -19638719.71847  20978662.634    20978667.030
  22423303.654   -12992612.29949 -10098103.61347  22423303.130    22423307.796
  22350426.955   -11238147.54449  -8195996.59746  22350426.512    22350430.842
  22057268.257   -16807706.87149 -13075548.32047  22057267.791    22057270.997
 03  4 15  0 33  0.0000000  0  9G 9G21G14G 3G17G15G23G31G18
  23612165.064    -6668459.61949  -5176088.11645  23612164.730    23612170.593
  23418054.671   -13640496.97849 -10603778.26145  23418054.109    23418059.254
  20323713.589   -25509764.65349 -19855195.81348  20323713.136    20323715.576
  22037596.356   -14070998.23749 -10952265.61947  22037596.050    22037600.931
  23687769.086    -9845253.14049  -7645790.07245  23687768.430    23687776.109
  20989484.256   -25179020.83549 -19594410.03847  20989483.563    20989487.957
  22433066.632   -12941307.46349 -10058125.83846  22433066.112    22433070.780
  22349645.614   -11242253.52349  -8199196.04746  22349645.162    22349649.539
  22068470.108   -16748840.49749 -13029678.44147  22068469.646    22068472.907
 03  4 15  0 33 30.0000000  0  9G 9G21G14G 3G17G15G23G31G18
  23617766.426    -6639023.34849  -5153150.79545  23617766.191    23617772.091
  23435823.025   -13547123.79649 -10531020.05745  23435822.457    23435827.629
  20318841.270   -25535368.86649 -19875147.12448  20318840.809    20318843.251
  22045891.287   -14027408.20749 -10918299.39947  22045890.967    22045895.832
  23705580.815    -9751651.40949  -7572853.78045  23705580.208    23705588.035
  21000382.914   -25121747.83649 -19549781.76347  21000382.228    21000386.671
  22442840.762   -12889944.22749 -10018102.55646  22442840.225    22442844.893
  22348973.973   -11245782.91549  -8201946.21946  22348973.498    22348977.936
  22079693.394   -16689861.61649 -12983720.89047  22079692.957    22079696.285
 03  4 15  0 34  0.0000000  0  9G 9G21G14G 3G17G15G23G31G18
  23623479.044    -6609003.92649  -5129759.03745  23623478.756    23623484.448
  23453636.059   -13453515.26249 -10458078.45245  23453635.586    23453640.898
  20314070.730   -25560437.99749 -19894681.49348  20314070.272    20314072.698
  22054274.737   -13983353.02749 -10883970.71247  22054274.433    22054279.279
  23723438.667    -9657809.01149  -7499729.95245  23723438.015    23723445.751
  21011359.029   -25064068.28849 -19504836.70347  21011358.329    21011362.774
  22452625.595   -12838524.58049  -9978035.32246  22452625.101    22452629.775
  22348411.625   -11248737.77349  -8204248.70746  22348411.217    22348415.644
  22090937.785   -16630772.25549 -12937677.25847  22090937.362    22090940.640
 03  4 15  0 34 30.0000000  0  9G 9G21G14G 3G17G15G23G31G18
  23629302.652    -6578400.61649  -5105912.32945  23629302.484    23629308.056
  23471494.006   -13359671.17549 -10384953.28145  23471493.503    23471498.972
  20309402.340   -25584970.61049 -19913797.79748  20309401.874    20309404.282
  22062746.560   -13938833.36249 -10849280.09647  22062746.249    22062751.116
  23741342.314    -9563725.45249  -7426418.20445  23741341.751    23741349.337
  21022412.623   -25005981.19349 -19459574.07347  21022411.937    21022416.405
  22462421.408   -12787047.31649  -9937923.18546  22462420.890    22462425.540
  22347958.879   -11251117.19449  -8206102.80246  22347958.430    22347962.834
  22102203.335   -16571571.65149 -12891546.93747  22102202.883    22102206.107
 03  4 15  0 35  0.0000000  0  9G 9G21G14G 3G17G15G23G31G18
  23635237.504    -6547213.03249  -5081610.31545  23635237.315    23635242.920
  23489396.906   -13265591.55949 -10311644.59145  23489396.370    23489401.830
  20304836.208   -25608965.72049 -19932495.26648  20304835.735    20304838.126
  22071306.642   -13893850.00249 -10814228.16047  22071306.352    22071311.185
  23759291.558    -9469401.26349  -7352918.94645  23759290.995    23759298.772
  21033543.987   -24947485.75549 -19413993.24047  21033543.271    21033547.761
  22472228.327   -12735511.59149  -9897765.48746  22472227.840    22472232.494
  22347615.738   -11252920.38949  -8207507.88346  22347615.258    22347619.730
  22113490.085   -16512259.17049 -12845329.43247  22113489.660    22113492.909
 03  4 15  0 35 30.0000000  0  9G 9G21G14G 3G17G15G23G31G18
  23641282.690    -6515444.94049  -5056855.99145  23641282.521    23641288.189
  23507343.809   -13171280.96249 -10238155.91845  23507343.215    23507348.622
  20300371.800   -25632426.44949 -19950776.33248  20300371.315    20300373.671
  22079953.870   -13848408.89549 -10778819.54847  22079953.566    22079958.398
  23777285.919    -9374840.90349  -7279235.67645  23777285.308    23777293.137
  21044752.306   -24888585.82649 -19368097.23047  21044751.572    21044756.103
  22482045.722   -12683920.86149  -9857564.93846  22482045.234    22482049.948
  22347381.533   -11254151.05749  -8208466.84346  22347381.060    22347385.549
  22124797.492   -16452838.58649 -12799027.70447  22124797.042    22124800.266
 03  4 15  0 36  0.0000000  0  9G 9G21G14G 3G17G15G23G31G18
  23647438.831    -6483094.26149  -5031647.68545  23647438.619    23647444.332
  23525334.893   -13076737.83149 -10164486.06945  23525334.250    23525339.760
  20296009.523   -25655349.96349 -19968638.79148  20296009.065    20296011.444
  22088688.319   -13802509.07849 -10743053.50147  22088688.000    22088692.897
  23795325.514    -9280042.42649  -7205366.87345  23795325.029    23795332.730
  21056038.042   -24829278.87449 -19321884.05147  21056037.329    21056041.884
  22491874.063   -12632272.67549  -9817319.61346  22491873.560    22491878.279
  22347256.787   -11254806.79649  -8208977.80946  22347256.277    22347260.732
  22136125.874   -16393307.33749 -12752639.73846  22136125.439    22136128.669
 03  4 15  0 36 30.0000000  0  9G 9G21G14G 3G17G15G23G31G18
  23653705.362    -6450163.33249  -5005987.24945  23653705.051    23653710.968
  23543369.797   -12981964.59349 -10090636.91045  23543369.174    23543374.641
  20291749.180   -25677738.10049 -19986084.07448  20291748.735    20291751.106
  22097509.400   -13756154.10649 -10706932.77947  22097509.103    22097514.016
  23813409.960    -9185008.60749  -7131314.68345  23813409.359    23813417.233
  21067400.887   -24769567.09849 -19275355.43147  21067400.152    21067404.717
  22501713.098   -12580568.66749  -9777030.80246  22501712.588    22501717.246
  22347241.033   -11254889.45549  -8209042.22546  22347240.557    22347244.965
  22147474.935   -16333667.45949 -12706167.12746  22147474.542    22147477.750
 03  4 15  0 37  0.0000000  0  9G 9G21G14G 3G17G15G23G31G18
  23660082.537    -6416651.84249  -4979874.41245  23660082.106    23660088.027
  23561448.331   -12886961.84249 -10016608.90345  23561447.659    23561453.234
  20287590.911   -25699590.00749 -20003111.51448  20287590.444    20287592.806
  22106416.836   -13709345.43449 -10670458.53047  22106416.506    22106421.485
  23831539.049    -9089739.70849  -7057079.30645  23831538.399    23831546.562
  21078840.754   -24709450.20749 -19228511.12747  21078840.023    21078844.585
  22511562.800   -12528808.06949  -9736697.89346  22511562.300    22511566.948
  22347334.380   -11254398.75849  -8208659.86446  22347333.883    22347338.311
  22158844.818   -16273918.35049 -12659609.40546  22158844.411    22158847.618
 03  4 15  0 37 30.0000000  0  9G 9G21G14G 3G17G15G23G31G18
  23666569.941    -6382560.23849  -4953309.53945  23666569.435    23666575.486
  23579570.248   -12791730.49349  -9942402.76345  23579569.672    23579575.138
  20283534.715   -25720905.27849 -20019720.79348  20283534.271    20283536.608
  22115410.201   -13662085.00949 -10633632.25947  22115409.890    22115414.868
  23849712.652    -8994236.62049  -6982661.46545  23849712.108    23849720.342
  21090357.711   -24648928.28249 -19181351.21047  21090357.010    21090361.577
  22521423.292   -12476990.86349  -9696320.87446  22521422.803    22521427.402
  22347536.775   -11253334.87649  -8207830.87046  22347536.322    22347540.759
  22170235.476   -16214060.16349 -12612966.68646  22170235.055    22170238.218
 03  4 15  0 38  0.0000000  0  9G 9G21G14G 3G17G15G23G31G18
  23673167.442    -6347890.39249  -4926294.10745  23673167.088    23673172.971
  23597735.228   -12696273.15849  -9868020.52345  23597734.659    23597740.092
  20279580.416   -25741685.31449 -20035913.01148  20279579.949    20279582.282
  22124488.899   -13614376.14549 -10596456.55847  22124488.595    22124493.611
  23867930.333    -8898502.00449  -6908063.19045  23867929.875    23867938.166
  21101951.399   -24588003.09249 -19133877.07247  21101950.693    21101955.278
  22531294.413   -12425118.28049  -9655900.70946  22531293.920    22531298.410
  22347848.005   -11251699.61049  -8206556.65246  22347847.527    22347851.985
  22181646.562   -16154094.78549 -12566240.44846  22181646.136    22181649.283
 03  4 15  0 38 30.0000000  0  9G 9G21G14G 3G17G15G23G31G18
  23679874.853    -6312642.91449  -4898828.57045  23679874.404    23679880.343
  23615943.249   -12600590.55249  -9793462.76045  23615942.624    23615948.030
  20275727.943   -25761930.01849 -20051688.08048  20275727.476    20275729.809
  22133652.613   -13566220.36049 -10558932.61447  22133652.351    22133657.397
  23886192.059    -8802536.59949  -6833285.09145  23886191.534    23886199.776
  21113621.748   -24526674.86349 -19086088.86847  21113621.074    21113625.681
  22541176.056   -12373190.18449  -9615437.28246  22541175.559    22541180.027
  22348267.851   -11249493.18149  -8204837.35946  22348267.377    22348271.869
  22193078.002   -16094022.02449 -12519430.52346  22193077.582    22193080.794
 03  4 15  0 39  0.0000000  0  9G 9G21G14G 3G17G15G23G31G18
  23686692.143    -6276817.54949  -4870912.72445  23686691.804    23686697.702
  23634193.905   -12504682.47249  -9718729.29445  23634193.388    23634198.730
  20271977.575   -25781638.40249 -20067045.24548  20271977.082    20271979.396
  22142901.247   -13517618.79449 -10521061.31147  22142900.949    22142906.030
  23904497.816    -8706340.08049  -6758326.88745  23904497.181    23904505.452
  21125369.047   -24464942.84249 -19037986.03047  21125368.362    21125372.921
  22551068.506   -12321205.28449  -9574929.59746  22551067.981    22551072.439
  22348796.570   -11246714.77449  -8202672.38646  22348796.140    22348800.573
  22204530.147   -16033840.82249 -12472536.11046  22204529.724    22204532.968
 03  4 15  0 39 30.0000000  0  9G 9G21G14G 3G17G15G23G31G18
  23693619.272    -6240416.56249  -4842548.30145  23693618.839    23693624.497
  23652486.954   -12408551.94249  -9643822.50245  23652486.454    23652491.854
  20268328.919   -25800812.00749 -20081985.69648  20268328.448    20268330.766
  22152233.962   -13468575.08049 -10482845.46947  22152233.678    22152238.823
  23922846.986    -8609915.15749  -6683190.74245  23922846.428    23922854.803
  21137192.670   -24402809.17449 -18989570.21647  21137192.006    21137196.586
  22560971.396   -12269165.47949  -9534379.12746  22560970.845    22560975.266
  22349433.721   -11243366.65249  -8200063.46646  22349433.289    22349437.693
  22216002.444   -15973553.44749 -12425558.95646  22216002.052    22216005.281
 03  4 15  0 40  0.0000000  0  9G 9G21G14G 3G17G15G23G31G18
  23700655.017    -6203442.26049  -4813737.20545  23700654.749    23700660.632
  23670821.955   -12312201.58049  -9568744.40745  23670821.411    23670826.841
  20264781.778   -25819452.46849 -20096510.70948  20264781.284    20264783.602
  22161650.187   -13419092.95449 -10444288.01747  22161649.889    22161654.970
  23941239.171    -8513264.71249  -6607878.85445  23941238.525    23941246.918
  21149092.399   -24340275.83249 -18940842.96747  21149091.719    21149096.305
  22570884.313   -12217072.37649  -9493787.12246  22570883.782    22570888.252
  22350178.878   -11239450.75349  -8197012.12046  22350178.473    22350182.900
  22227494.709   -15913161.65249 -12378500.44546  22227494.256    22227497.520
 03  4 15  0 40 30.0000000  0  9G 9G21G14G 3G17G15G23G31G18
  23707800.455    -6165892.14049  -4784477.37545  23707800.221    23707806.165
  23689199.199   -12215629.35449  -9493493.42845  23689198.629    23689204.064
  20261336.657   -25837556.55549 -20110617.77548  20261336.179    20261338.508
  22171149.988   -13369171.39549 -10405388.15147  22171149.672    22171154.755
  23959674.837    -8416386.44849  -6532389.44745  23959674.052    23959682.297
  21161068.719   -24277340.08249 -18891802.16747  21161068.027    21161072.626
  22580808.062   -12164922.69749  -9453151.03746  22580807.562    22580811.988
  22351032.684   -11234964.33349  -8193516.21846  22351032.272    22351036.726
  22239007.309   -15852662.36149 -12331358.16946  22239006.926    22239010.157
 03  4 15  0 41  0.0000000  0  9G 9G21G14G 3G17G15G23G31G18
  23715054.961    -6127769.46349  -4754771.38945  23715054.770    23715060.719
  23707617.871   -12118838.70149  -9418072.26145  23707617.368    23707622.886
  20257993.046   -25855127.04749 -20124309.05648  20257992.594    20257994.905
  22180732.500   -13318815.08749 -10366149.52247  22180732.189    22180737.290
  23978152.879    -8319284.03349  -6456725.35645  23978152.091    23978160.433
  21173121.031   -24214004.97349 -18842450.17547  21173120.334    21173124.918
  22590742.150   -12112718.79349  -9412472.69746  22590741.595    22590746.079
  22351994.448   -11229910.40149  -8189578.10246  22351994.007    22351998.461
  22250539.966   -15792058.28249 -12284134.24946  22250539.512    22250542.754
 03  4 15  0 41 30.0000000  0  9G 9G21G14G 3G17G15G23G31G18
  23722418.317    -6089074.13049  -4724619.21245  23722418.222    23722424.084
  23726078.174   -12021829.91849  -9342481.12745  23726077.658    23726083.231
  20254751.217   -25872162.96749 -20137583.78548  20254750.768    20254753.095
  22190397.557   -13268024.95549 -10326572.85247  22190397.267    22190402.366
  23996673.348    -8221957.77449  -6380886.86645  23996672.679    23996681.256
  21185249.501   -24150269.76549 -18792786.41447  21185248.787    21185253.322
  22600686.730   -12060459.70649  -9371751.35746  22600686.171    22600690.742
  22353064.262   -11224288.56049  -8185197.46746  22353063.786    22353068.224
  22262092.652   -15731348.47049 -12236827.92746  22262092.194    22262095.544
 03  4 15  0 42  0.0000000  0  9G 9G21G14G 3G17G15G23G31G18
  23729890.871    -6049806.26549  -4694020.86745  23729890.688    23729896.607
  23744579.707   -11924603.59849  -9266720.45445  23744579.249    23744584.788
  20251611.193   -25888663.80649 -20150441.56248  20251610.742    20251613.084
  22200144.978   -13216802.48949 -10286659.29047  22200144.660    22200149.751
  24015236.655    -8124407.97449  -6304874.19445  24015235.928    24015244.472
  21197454.102   -24086134.27349 -18742810.74547  21197453.398    21197457.921
  22610641.951   -12008144.76249  -9330986.48746  22610641.419    22610646.016
  22354242.173   -11218098.65249  -8180374.18346  22354241.701    22354246.142
  22273665.566   -15670532.65849 -12189439.00946  22273665.112    22273668.454
 03  4 15  0 42 30.0000000  0  9G 9G21G14G 3G17G15G23G31G18
  23737471.421    -6009970.01749  -4662979.61345  23737471.101    23737477.036
  23763121.914   -11827164.13449  -9190793.72745  23763121.362    23763127.093
  20248572.339   -25904633.07949 -20162885.13448  20248571.885    20248574.211
  22209973.528   -13165153.15449 -10246413.10947  22209973.205    22209978.329
  24033841.672    -8026638.83849  -6228690.57645  24033841.057    24033849.379
  21209734.114   -24021602.33149 -18692526.16747  21209733.417    21209737.974
  22620607.213   -11955777.14449  -9290180.57546  22620606.690    22620611.241
  22355527.368   -11211344.65449  -8175111.34046  22355526.940    22355531.404
  22285257.946   -15609614.33249 -12141970.21946  22285257.537    22285260.807
 03  4 15  0 43  0.0000000  0  9G 9G21G14G 3G17G15G23G31G18
  23745160.408    -5969563.33349  -4631493.89645  23745160.228    23745166.174
  23781705.033   -11729509.58149  -9114699.39645  23781704.579    23781710.304
  20245635.202   -25920067.85649 -20174912.22248  20245634.719    20245637.073
  22219883.507   -13113076.14549 -10205833.66447  22219883.185    22219888.318
  24052488.639    -7928648.57849  -6152334.69345  24052488.129    24052496.568
  21222090.023   -23956671.62149 -18641930.86247  21222089.343    21222093.929
  22630583.166   -11903353.68449  -9249331.15346  22630582.613    22630587.140
  22356920.447   -11204024.15749  -8169407.07346  22356919.996    22356924.525
  22296870.362   -15548590.94049 -12094419.55646  22296869.928    22296873.258
 03  4 15  0 43 30.0000000  0  9G 9G21G14G 3G17G15G23G31G18
  23752957.462    -5928589.95949  -4599566.59545  23752957.250    23752963.268
  23800328.424   -11631643.98949  -9038440.62445  23800327.935    23800333.556
  20242799.101   -25934971.20949 -20186525.21248  20242798.652    20242801.044
  22229873.814   -13060576.52549 -10164924.91747  22229873.489    22229878.632
  24071177.005    -7830441.31149  -6075809.70145  24071176.391    24071184.733
  21234521.193   -23891345.42849 -18591027.37847  21234520.517    21234525.123
  22640569.056   -11850877.37549  -9208440.54246  22640568.531    22640573.087
  22358420.610   -11196140.68149  -8163264.11646  22358420.118    22358424.717
  22308502.236   -15487465.20649 -12046789.15146  22308501.815    22308505.070
 03  4 15  0 44  0.0000000  0  9G 9G21G14G 3G17G15G23G31G18
  23760862.939    -5887046.53949  -4567195.08945  23760862.787    23760868.741
  23818992.558   -11533564.28149  -8962014.98845  23818992.005    23818997.432
  20240064.976   -25949339.13249 -20197720.98248  20240064.555    20240066.897
  22239945.062   -13007652.18049 -10123685.22347  22239944.746    22239949.779
  24089907.286    -7732013.50949  -5999112.87445  24089906.764    24089914.918
  21247028.387   -23825619.94249 -18539812.75747  21247027.699    21247032.335
  22650565.901   -11798343.89049  -9167505.38246  22650565.350    22650569.945
  22360028.650   -11187690.60749  -8156679.67046  22360028.155    22360032.670
  22320154.416   -15426233.01849 -11999075.79646  22320153.979    22320157.181
 03  4 15  0 44 30.0000000  0  9G 9G21G14G 3G17G15G23G31G18
  23768875.551    -5844940.72149  -4534385.33845  23768875.420    23768881.362
  23837695.779   -11435278.37149  -8885428.69645  23837695.227    23837700.797
  20237431.431   -25963178.53949 -20208504.92448  20237430.968    20237433.288
  22250095.462   -12954311.80249 -10082121.35447  22250095.150    22250100.143
  24108677.983    -7633373.34949  -5922250.54645  24108677.619    24108685.773
  21259610.183   -23759502.36049 -18488292.61247  21259609.488    21259614.172
  22660572.309   -11745759.72749  -9126530.74246  22660571.782    22660576.418
  22361743.018   -11178681.45849  -8149659.57846  22361742.588    22361747.074
  22331825.452   -15364901.36749 -11951284.94146  22331824.999    22331828.291
 03  4 15  0 45  0.0000000  0  9G 9G21G14G 3G17G15G23G31G18
  23776995.619    -5802269.01749  -4501134.66045  23776995.479    23777001.502
  23856438.875   -11336782.81849  -8808679.03945  23856438.322    23856444.074
  20234899.231   -25976485.16249 -20218873.70548  20234898.801    20234901.121
  22260325.405   -12900553.10549 -10040231.50347  22260325.078    22260330.102
  24127489.786    -7534517.83149  -5845220.42745  24127489.387    24127497.491
  21272267.350   -23692988.70649 -18436463.82947  21272266.656    21272271.394
  22670589.299   -11693120.34549  -9085513.06646  22670588.728    22670593.423
  22363564.533   -11169109.22749  -8142200.71246  22363564.167    22363568.636
  22343516.245   -15303465.85049 -11903413.14646  22343515.786    22343519.119
 03  4 15  0 45 30.0000000  0  9G 9G21G14G 3G17G15G23G31G18
  23785223.179    -5759033.16249  -4467444.37245  23785223.003    23785229.037
  23875221.544   -11238079.64249  -8731767.60245  23875221.029    23875226.715
  20232468.226   -25989260.16249 -20228828.23648  20232467.774    20232470.101
  22270634.387   -12846379.27749  -9998018.18447  22270634.061    22270639.092
  24146342.334    -7435448.23749  -5768023.51445  24146341.775    24146350.072
  21284999.596   -23626080.49349 -18384327.61847  21284998.892    21285003.664
  22680616.603   -11640426.34149  -9044452.82946  22680616.056    22680620.742
  22365492.936   -11158975.38449  -8134304.21746  22365492.522    22365497.041
  22355226.670   -15241927.38249 -11855461.13746  22355226.239    22355229.606
 03  4 15  0 46  0.0000000  0  9G 9G21G14G 3G17G15G23G31G18
  23793557.891    -5715234.63649  -4433315.63645  23793557.582    23793563.571
  23894043.245   -11139170.48149  -8654695.66645  23894042.759    23894048.617
  20230138.228   -26001504.09049 -20238368.94248  20230137.797    20230140.113
  22281021.796   -12791793.05349  -9955483.51547  22281021.510    22281026.551
  24165235.163    -7336166.75349  -5690661.48345  24165234.516    24165242.693
  21297806.714   -23558778.62849 -18331884.65747  21297806.046    21297810.824
  22690654.364   -11587678.05549  -9003350.29846  22690653.777    22690658.475
  22367527.994   -11148281.13449  -8125971.05046  22367527.593    22367532.140
  22366956.548   -15180286.55749 -11807429.36146  22366956.099    22366959.488
 03  4 15  0 46 30.0000000  0  9G 9G21G14G 3G17G15G23G31G18
  23801999.042    -5670876.30549  -4398750.70945  23801998.700    23802004.588
  23912903.870   -11040058.38049  -8577465.59345  23912903.292    23912909.169
  20227908.921   -26013219.16649 -20247497.56248  20227908.500    20227910.824
  22291486.990   -12736798.48249  -9912630.65247  22291486.715    22291491.717
  24184167.581    -7236676.04849  -5613136.41645  24184167.039    24184175.152
  21310688.375   -23491085.47649 -18279136.80147  21310687.678    21310692.456
  22700702.030   -11534877.26449  -8962206.85546  22700701.402    22700706.148
  22369669.118   -11137029.28049  -8117203.39146  22369668.741    22369673.348
  22378705.565   -15118545.46049 -11759319.45446  22378705.065    22378708.486
 03  4 15  0 47  0.0000000  0 10G 9G21G25G14G 3G17G15G23G31G18
  23810546.368    -5625958.93449  -4363750.16045  23810546.162    23810552.014
  23931802.693   -10940744.23049  -8500078.08645  23931802.179    23931808.119
  24527630.714    -3818658.42759  -2697554.99345  24527630.935    24527640.403
  20225780.203   -26024405.54949 -20256214.20648  20225779.794    20225782.095
  22302029.450   -12681397.62549  -9869461.18447  22302029.157    22302034.210
  24203139.565    -7136977.08249  -5535449.08245  24203138.976    24203147.630
  21323644.341   -23423001.41249 -18226084.32647  21323643.689    21323648.445
  22710759.750   -11482023.62449  -8921022.23646  22710759.168    22710763.931
  22371916.324   -11125220.25949  -8108001.56946  22371915.965    22371920.518
  22390473.571   -15056704.02349 -11711131.35646  22390473.088    22390476.567
 03  4 15  0 47 30.0000000  0 10G 9G21G25G14G 3G17G15G23G31G18
  23819200.422    -5580481.79849  -4328313.42445  23819200.210    23819206.031
  23950740.209   -10841227.41649  -8422532.65945  23950739.668    23950745.772
  24509017.034    -3916474.19649  -2773774.93445  24509017.041    24509026.495
  20223752.430   -26035061.68749 -20264517.67448  20223751.998    20223754.298
  22312649.105   -12625590.96549  -9825975.51247  22312648.795    22312653.912
  24222151.597    -7037069.24549  -5457599.00145  24222150.933    24222159.799
  21336675.043   -23354525.09249 -18172726.20047  21336674.368    21336679.102
  22720827.919   -11429115.19549  -8879794.91946  22720827.339    22720832.111
  22374269.774   -11112853.02249  -8098364.78846  22374269.406    22374273.904
  22402261.008   -14994760.28149 -11662863.54746  22402260.587    22402264.069
 03  4 15  0 48  0.0000000  0 10G 9G21G25G14G 3G17G15G23G31G18
  23827960.518    -5534447.62149  -4292442.63745  23827960.217    23827966.089
  23969715.867   -10741510.71849  -8344831.49145  23969715.281    23969721.413
  24490392.685    -4014345.38449  -2850038.03845  24490392.654    24490402.039
  20221825.190   -26045189.35349 -20272409.34948  20221824.762    20221827.049
  22323345.386   -12569382.20749  -9782176.53847  22323345.090    22323350.139
  24241202.825    -6936954.99749  -5379588.07045  24241202.224    24241211.029
  21349779.803   -23285658.91849 -18119064.30247  21349779.155    21349783.914
  22730906.233   -11376153.29949  -8838525.93946  22730905.682    22730910.466
  22376728.933   -11099930.05049  -8088294.95546  22376728.603    22376733.100
  22414067.708   -14932716.12549 -11614517.49046  22414067.274    22414070.698
 03  4 15  0 48 30.0000000  0 10G 9G21G25G14G 3G17G15G23G31G18
  23836826.413    -5487857.11649  -4256138.35245  23836826.118    23836831.852
  23988729.347   -10641594.91649  -8266975.17445  23988728.728    23988734.893
  24471758.180    -4112269.51849  -2926342.37345  24471758.195    24471767.514
  20219998.483   -26054788.68249 -20279889.33148  20219998.057    20220000.340
  22334117.694   -12512773.33349  -9738065.78646  22334117.412    22334122.477
  24260293.195    -6836635.64549  -5301417.32945  24260292.688    24260301.447
  21362958.838   -23216403.13349 -18065098.80247  21362958.162    21362962.911
  22740994.819   -11323137.43849  -8797214.91346  22740994.257    22740999.064
  22379293.793   -11086451.90149  -8077792.51946  22379293.408    22379297.886
  22425893.509   -14870571.13649 -11566092.85146  22425893.077    22425896.475
 03  4 15  0 49  0.0000000  0 10G 9G21G25G14G 3G17G15G23G31G18
  23845798.028    -5440711.47349  -4219401.48145  23845797.648    23845803.322
  24007780.286   -10541481.38649  -8188964.77545  24007779.870    24007786.072
  24453114.261    -4210243.69349  -3002685.69645  24453114.282    24453123.541
  20218272.255   -26063860.05549 -20286957.91248  20218271.822    20218274.104
  22344965.754   -12455766.44649  -9693644.89046  22344965.532    22344970.593
  24279422.314    -6736111.89549  -5223087.31545  24279421.866    24279430.444
  21376211.794   -23146758.37149 -18010830.20247  21376211.117    21376215.895
  22751093.662   -11270067.39449  -8755861.65846  22751093.156    22751098.041
  22381964.134   -11072419.24849  -8066857.99746  22381963.729    22381968.206
  22437738.580   -14808325.42849 -11517589.73246  22437738.097    22437741.499
 03  4 15  0 49 30.0000000  0  9G 9G21G25G14G 3G15G23G31G18
  23854874.871    -5393011.25649  -4182232.47045  23854874.525    23854880.374
  24026868.778   -10441170.69049  -8110800.76045  24026868.415    24026874.746
  24434461.562    -4308264.48249  -3079065.32445  24434461.364    24434470.494
  20216646.567   -26072403.21349 -20293614.90548  20216646.107    20216648.401
  22355889.332   -12398363.33249  -9648915.24846  22355889.040    22355894.091
  21389538.874   -23076724.38749 -17956258.31847  21389538.191    21389542.935
  22761202.966   -11216942.49249  -8714465.66546  22761202.487    22761207.339
  22384739.932   -11057832.48149  -8055491.70446  22384739.547    22384743.989
  22449602.747   -14745978.60649 -11469007.81146  22449602.254    22449605.722
 03  4 15  0 50  0.0000000  0  9G 9G21G25G14G 3G15G23G31G18
  23864056.828    -5344759.56249  -4144633.76245  23864056.497    23864062.428
  24045994.358   -10340665.98349  -8032485.55245  24045994.034    24046000.317
  24415800.112    -4406331.00449  -3155480.57745  24415799.714    24415808.834
  20215120.853   -26080420.69949 -20299862.28548  20215120.423    20215122.696
  22366887.274   -12340568.51549  -9603880.37346  22366887.026    22366892.151
  21402939.473   -23006303.96349 -17901385.30647  21402938.774    21402943.543
  22771322.399   -11163764.48049  -8673028.28446  22771321.942    22771326.797
  22387620.616   -11042694.43149  -8043695.85146  22387620.243    22387624.701
  22461485.825   -14683532.70249 -11420348.70046  22461485.397    22461488.808
 03  4 15  0 50 30.0000000  0  9G 9G21G25G14G 3G15G23G31G18
  23873343.843    -5295956.06649  -4106605.05245  23873343.558    23873349.472
  24065156.933   -10239966.93749  -7954018.91745  24065156.568    24065162.897
  24397130.798    -4504438.92449  -3231928.07745  24397130.329    24397139.202
  20213695.390   -26087911.49449 -20305699.25248  20213694.930    20213697.216
  22377959.722   -12282382.63749  -9558540.76646  22377959.441    22377964.567
  21416413.767   -22935496.41049 -17846210.63947  21416413.056    21416417.836
  22781452.319   -11110531.76949  -8631548.26846  22781451.829    22781456.764
  22390606.307   -11027004.70849  -8031470.11346  22390605.896    22390610.344
  22473387.994   -14620986.34049 -11371611.29746  22473387.568    22473390.994
 03  4 15  0 51  0.0000000  0  9G 9G21G25G14G 3G15G23G31G18
  23882734.808    -5246606.32049  -4068150.72845  23882734.597    23882740.540
  24084355.271   -10139079.23549  -7875405.28845  24084354.878    24084361.263
  24378453.137    -4602590.07649  -3308409.25645  24378452.668    24378461.396
  20212369.188   -26094880.39449 -20311129.55948  20212368.758    20212371.063
  22389105.244   -12223812.36049  -9512901.64246  22389105.005    22389110.161
  21429960.674   -22864307.10849 -17790738.51347  21429959.977    21429964.745
  22791591.793   -11057248.57449  -8590028.93146  22791591.290    22791596.188
  22393695.955   -11010768.59149  -8018818.61546  22393695.527    22393699.983
  22485308.458   -14558343.71249 -11322798.88446  22485308.095    22485311.568
 03  4 15  0 51 30.0000000  0  9G 9G21G25G14G 3G15G23G31G18
  23892230.442    -5196706.47949  -4029267.74745  23892230.233    23892236.075
  24103590.231   -10037999.11349  -7796641.71345  24103589.772    24103596.319
  24359768.774    -4700776.78249  -3384918.14045  24359768.164    24359776.824
  20211143.304   -26101322.71149 -20316149.53448  20211142.877    20211145.161
  22400324.523   -12164855.08349  -9466960.95046  22400324.258    22400329.444
  21443581.076   -22792731.45449 -17734965.32247  21443580.378    21443585.201
  22801741.983   -11003909.56049  -8548466.08946  22801741.463    22801746.309
  22396890.389   -10993982.02749  -8005738.19146  22396889.956    22396894.430
  22497248.258   -14495599.94549 -11273907.65946  22497247.859    22497251.355
 03  4 15  0 52  0.0000000  0  9G 9G21G25G14G 3G15G23G31G18
  23901829.640    -5146261.88349  -3989960.27845  23901829.458    23901835.376
  24122861.049    -9936731.60849  -7717732.12045  24122860.490    24122867.299
  24341077.364    -4798999.75149  -3461455.29345  24341076.914    24341085.511
  20210016.757   -26107242.78149 -20320762.56348  20210016.297    20210018.563
  22411616.214   -12105516.96649  -9420723.51346  22411615.941    22411621.143
  21457274.209   -22720773.94349 -17678894.57647  21457273.489    21457278.301
  22811902.019   -10950518.39149  -8506862.60046  22811901.490    22811906.355
  22400188.572   -10976649.86249  -7992232.61746  22400188.142    22400192.713
  22509206.496   -14432759.17149 -11224940.84146  22509206.081    22509209.506
 03  4 15  0 52 30.0000000  0  9G 9G21G25G14G 3G15G23G31G18
  23911532.765    -5095272.07249  -3950227.95845  23911532.530    23911538.594
  24142167.435    -9835276.20449  -7638676.13845  24142166.995    24142173.666
  24322379.820    -4897254.69449  -3538017.37045  24322379.437    24322387.935
  20208989.798   -26112639.39049 -20324967.70048  20208989.338    20208991.622
  22422980.276   -12045798.67849  -9374189.83446  22422979.984    22422985.267
  21471040.202   -22648433.47449 -17622525.41947  21471039.468    21471044.270
  22822072.288   -10897072.94549  -8465216.80846  22822071.819    22822076.719
  22403590.712   -10958771.29749  -7978301.29446  22403590.287    22403594.879
  22521183.630   -14369819.37849 -11175896.87146  22521183.189    22521186.535
 03  4 15  0 53  0.0000000  0  9G 9G21G25G14G 3G15G23G31G18
  23921339.305    -5043738.93949  -3910072.28045  23921339.032    23921345.028
  24161509.151    -9733634.87849  -7559475.26345  24161508.815    24161515.362
  24303676.605    -4995539.41649  -3614602.64945  24303676.226    24303684.774
  20208062.158   -26117513.93849 -20328766.03748  20208061.730    20208063.986
  22434416.114   -11985703.24449  -9327362.27946  22434415.827    22434421.073
  21484878.752   -22575711.53849 -17565859.02547  21484878.068    21484882.812
  22832252.894   -10843573.67749  -8423529.09246  22832252.411    22832257.307
  22407096.524   -10940348.10949  -7963945.57846  22407096.110    22407100.700
  22533179.279   -14306781.50749 -11126776.46446  22533178.815    22533182.278
 03  4 15  0 53 30.0000000  0  9G 9G21G25G14G 3G15G23G31G18
  23931248.578    -4991665.50249  -3869495.57545  23931248.301    23931254.149
  24180885.976    -9631810.52949  -7480131.78845  24180885.480    24180891.989
  24284967.993    -5093852.63949  -3691210.14345  24284967.617    24284976.085
  20207233.496   -26121868.54949 -20332159.23148  20207233.054    20207235.319
  22445922.944   -11925234.70749  -9280243.99646  22445922.651    22445927.900
  21498789.426   -22502610.60949 -17508897.31047  21498788.738    21498793.469
  22842443.455   -10790022.17949  -8381800.67746  22842442.935    22842447.792
  22410705.437   -10921383.23549  -7949167.78446  22410705.022    22410709.578
  22545193.211   -14243647.32649 -11077581.02346  22545192.838    22545196.341
 03  4 15  0 54  0.0000000  0 10G 9G21G25G14G 3G15G11G23G31G18
  23941260.268    -4939054.14649  -3828499.70445  23941259.961    23941265.725
  24200297.102    -9529805.30849  -7400647.34945  24200296.614    24200303.074
  24266254.173    -5192192.50149  -3767838.41445  24266253.933    24266262.443
  20206503.415   -26125704.73049 -20335148.45448  20206503.009    20206505.279
  22457500.070   -11864396.38949  -9232837.57346  22457499.796    22457505.159
  21512771.927   -22429132.19449 -17451641.44747  21512771.278    21512775.990
  24670012.355    -1140940.16359   -873775.40845  24670011.797    24670017.022
  22852643.801   -10736419.17049  -8340032.11746  22852643.264    22852648.140
  22414417.142   -10901878.47049  -7933969.29146  22414416.712    22414421.205
  22557225.579   -14180417.66949 -11028311.19246  22557225.128    22557228.568
 03  4 15  0 54 30.0000000  0 10G 9G21G25G14G 3G15G11G23G31G18
  23951374.321    -4885903.97049  -3787083.98545  23951374.068    23951379.817
  24219742.668    -9427618.33349  -7321021.30045  24219742.141    24219748.850
  24247536.430    -5290554.10449  -3844483.64045  24247536.170    24247544.756
  20205872.424   -26129020.83649 -20337732.42648  20205871.986    20205874.271
  22469147.517   -11803188.61749  -9185143.27546  22469147.253    22469152.659
  21526826.482   -22355275.13149 -17394090.55247  21526825.859    21526830.570
  24650932.752    -1241203.61049   -951902.68245  24650932.255    24650937.307
  22862854.322   -10682762.23949  -8298221.55146  22862853.816    22862858.737
  22418231.700   -10881832.88249  -7918349.38146  22418231.272    22418235.816
  22569276.400   -14117090.51949 -10978965.39446  22569275.915    22569279.332
 03  4 15  0 55  0.0000000  0 10G 9G21G25G14G 3G15G11G23G31G18
  23961591.028    -4832215.18349  -3745248.55245  23961590.786    23961596.478
  24239222.830    -9325249.90049  -7241253.84345  24239222.296    24239229.023
  24228815.383    -5388933.76649  -3921142.96545  24228815.091    24228823.493
  20205340.422   -26131816.48849 -20339910.83948  20205339.964    20205342.249
  22480865.077   -11741612.64649  -9137162.06146  22480864.831    22480870.198
  21540953.213   -22281039.11149 -17336244.34947  21540952.549    21540957.277
  24631863.873    -1341410.24849  -1029985.69345  24631863.525    24631868.439
  22873075.427   -10629050.22249  -8256368.04846  22873074.910    22873079.798
  22422149.154   -10861246.63949  -7902308.16946  22422148.690    22422153.295
  22581345.802   -14053664.86849 -10929542.82546  22581345.350    22581348.915
 03  4 15  0 55 30.0000000  0 10G 9G21G25G14G 3G15G11G23G31G18
  23971909.403    -4777991.48949  -3702996.32645  23971909.143    23971914.928
  24258736.896    -9222703.71449  -7161347.89345  24258736.266    24258743.074
  24210090.910    -5487330.67049  -3997815.73545  24210090.743    24210099.139
  20204906.887   -26134094.50949 -20341685.90848  20204906.444    20204908.751
  22492651.815   -11679673.35749  -9088897.73946  22492651.532    22492656.912
  21555151.432   -22206427.12449 -17278105.18347  21555150.740    21555155.550
  24612805.838    -1441560.06749  -1108024.40645  24612805.530    24612810.582
  22883306.619   -10575284.99849  -8214473.09846  22883306.117    22883310.997
  22426168.763   -10840123.13949  -7885848.31746  22426168.337    22426172.981
  22593433.664   -13990142.86149 -10880045.19346  22593433.182    22593436.756
 03  4 15  0 56  0.0000000  0 10G 9G21G25G14G 3G15G11G23G31G18
  23982329.523    -4723233.06349  -3660327.43045  23982329.279    23982335.165
  24278284.939    -9119979.31449  -7081303.07945  24278284.274    24278291.050
  24191363.944    -5585740.65249  -4074498.71245  24191363.828    24191372.199
  20204572.005   -26135854.29049 -20343057.15348  20204571.576    20204573.837
  22504507.449   -11617371.77649  -9040351.11346  22504507.134    22504512.565
  21569421.293   -22131438.55749 -17219672.57847  21569420.591    21569425.424
  24593759.384    -1541649.52549  -1186016.09045  24593759.045    24593764.172
  22893548.274   -10521464.82049  -8172535.33046  22893547.816    22893552.662
  22430290.786   -10818462.09049  -7868969.59546  22430290.343    22430294.995
  22605540.130   -13926523.11049 -10830471.40146  22605539.690    22605543.149
 03  4 15  0 56 30.0000000  0 10G 9G21G25G14G 3G15G11G23G31G18
  23992850.744    -4667943.29349  -3617244.45045  23992850.505    23992856.370
  24297866.144    -9017079.94949  -7001121.90945  24297865.447    24297872.308
  24172634.939    -5684162.55549  -4151190.97245  24172634.634    24172642.937
  20204335.307   -26137098.31349 -20344026.50348  20204334.840    20204337.075
  22516431.159   -11554711.99849  -8991525.37146  22516430.899    22516436.413
  21583762.370   -22056076.12749 -17160948.65647  21583761.633    21583766.476
  24574724.477    -1641678.43049  -1263960.58645  24574724.122    24574729.392
  22903800.049   -10467591.46449  -8130556.12346  22903799.590    22903804.412
  22434514.464   -10796266.68049  -7851674.48846  22434514.019    22434518.703
  22617664.800   -13862807.65649 -10780823.02946  22617664.347    22617667.794
 03  4 15  0 57  0.0000000  0 10G 9G21G25G14G 3G15G11G23G31G18
  24003473.149    -4612122.07749  -3573747.41745  24003473.061    24003478.826
  24317480.733    -8914005.53849  -6920804.35245  24317480.189    24317486.814
  24153904.207    -5782592.28249  -4227889.33145  24153904.021    24153912.348
  20204196.857   -26137825.62749 -20344593.23048  20204196.406    20204198.635
  22528422.997   -11491695.13349  -8942421.37046  22528422.707    22528428.197
  21598174.698   -21980339.05549 -17101932.81947  21598173.945    21598178.798
  24555701.795    -1741643.02849  -1341854.97945  24555701.621    24555706.810
  22914062.329   -10413662.89949  -8088533.89846  22914061.836    22914066.784
  22438839.914   -10773536.48549  -7833962.67346  22438839.465    22438844.125
  22629808.012   -13798994.67449 -10731098.65646  22629807.600    22629811.024
 03  4 15  0 57 30.0000000  0 10G 9G21G25G14G 3G15G11G23G31G18
  24014196.038    -4555773.16549  -3529839.15545  24014195.908    24014201.650
  24337127.854    -8810759.42549  -6840352.99045  24337127.197    24337134.172
  24135172.248    -5881028.74449  -4304592.94945  24135172.089    24135180.370
  20204156.245   -26138039.10849 -20344759.56948  20204155.794    20204157.997
  22540481.892   -11428325.71449  -8893042.66246  22540481.589    22540487.043
  21612657.743   -21904230.21349 -17042627.29347  21612657.019    21612661.879
  24536691.328    -1841543.04349  -1419699.06245  24536691.143    24536696.285
  22924334.719   -10359681.08649  -8046470.18046  22924334.243    22924339.215
  22443266.425   -10750274.91449  -7815836.80246  22443265.990    22443270.692
  22641969.331   -13735086.45549 -10681300.09146  22641968.940    22641972.382
 03  4 15  0 58  0.0000000  0 10G 9G21G25G14G 3G15G11G23G31G18
  24025019.143    -4498897.55049  -3485520.46845  24025018.896    24025024.787
  24356807.508    -8707342.74849  -6759768.74545  24356806.902    24356813.828
  24116439.595    -5979468.94849  -4381299.48745  24116439.387    24116447.714
  20204213.289   -26137739.26849 -20344525.91348  20204212.835    20204215.040
  22552607.432   -11364605.83349  -8843390.85046  22552607.105    22552612.603
  21627211.365   -21827750.23949 -16983032.56347  21627210.664    21627215.568
  24517693.611    -1941376.42449  -1497491.20145  24517693.334    24517698.495
  22934617.457   -10305645.40649  -8004364.48746  22934616.975    22934621.856
  22447793.899   -10726483.04249  -7797297.71846  22447793.476    22447798.117
  22654148.925   -13671082.68249 -10631427.05046  22654148.469    22654151.893
 03  4 15  0 58 30.0000000  0 10G 9G21G25G14G 3G15G11G23G31G18
  24035942.041    -4441496.24849  -3440792.17945  24035941.874    24035947.920
  24376519.680    -8603756.08549  -6679052.02545  24376519.018    24376525.798
  24097706.859    -6077909.45149  -4458006.25345  24097706.685    24097714.925
  20204368.014   -26136926.00249 -20343892.18948  20204367.587    20204369.823
  22564799.283   -11300537.31449  -8793467.37846  22564798.955    22564804.480
  21641835.685   -21750899.28949 -16923148.76847  21641834.969    21641839.855
  24498709.097    -2041140.48649  -1575229.33345  24498708.877    24498713.804
  22944910.521   -10251554.91849  -7962216.09046  22944910.039    22944914.959
  22452422.206   -10702161.48349  -7778345.88846  22452421.732    22452426.353
  22666346.748   -13606982.75349 -10581479.09246  22666346.345    22666349.746
 03  4 15  0 59  0.0000000  0 10G 9G21G25G14G 3G15G11G23G31G18
  24046964.536    -4383572.89049  -3395657.08645  24046964.413    24046970.200
  24396263.433    -8500002.87449  -6598205.53645  24396262.699    24396269.556
  24078974.371    -6176349.33349  -4534712.52745  24078974.153    24078982.229
  20204619.897   -26135602.46349 -20342860.85248  20204619.473    20204621.703
  22577056.640   -11236124.76449  -8743275.85446  22577056.339    22577061.832
  21656529.976   -21673680.26249 -16862978.14247  21656529.257    21656534.170
  24479737.806    -2140834.83149  -1652913.13245  24479737.490    24479742.394
  22955213.688   -10197411.35949  -7920026.34046  22955213.177    22955218.142
  22457150.604   -10677313.61949  -7758983.94246  22457150.169    22457154.821
  22678562.566   -13542788.81949 -10531457.87046  22678562.108    22678565.521
 03  4 15  0 59 30.0000000  0 10G 9G21G25G14G 3G15G11G23G31G18
  24058086.486    -4325127.19849  -3350114.97845  24058086.234    24058092.037
  24416038.605    -8396082.71849  -6517228.95845  24416038.158    24416044.979
  24060242.900    -6274784.09449  -4611414.81445  24060242.511    24060250.533
  20204969.124   -26133767.45249 -20341430.96148  20204968.671    20204970.874
  22589379.292   -11171368.98549  -8692816.86746  22589378.968    22589384.498
  21671294.497   -21596092.39249 -16802520.11547  21671293.786    21671298.745
  24460780.529    -2240455.64449  -1730539.64145  24460780.274    24460785.120
  22965527.288   -10143212.79849  -7877793.73646  22965526.787    22965531.797
  22461979.220   -10651939.20449  -7739211.70946  22461978.756    22461983.410
  22690796.503   -13478499.10249 -10481362.01646  22690796.049    22690799.531
 03  4 15  1  0  0.0000000  0 10G 9G21G25G14G 3G15G11G23G31G18
  24069307.142    -4266161.26949  -3304167.49545  24069306.935    24069312.910
  24435845.504    -8291997.14749  -6436123.48345  24435844.887    24435851.831
  24041512.817    -6373211.02949  -4688110.97245  24041512.318    24041520.332
  20205415.403   -26131422.16649 -20339603.45348  20205414.952    20205417.162
  22601766.670   -11106272.91549  -8642092.72546  22601766.363    22601771.935
  21686128.946   -21518137.07049 -16741775.77147  21686128.255    21686133.224
  24441837.581    -2340000.88049  -1808107.26145  24441837.439    24441842.367
  22975851.394   -10088959.23949  -7835518.25146  22975850.869    22975855.862
  22466907.730   -10626039.77049  -7719030.37846  22466907.284    22466911.933
  22703048.584   -13414113.83749 -10431191.70346  22703048.127    22703051.681
 03  4 15  1  0 30.0000000  0 10G 9G21G25G14G 3G15G11G23G31G18
  24080626.467    -4206678.02049  -3257816.89645  24080626.290    24080632.218
  24455683.471    -8187748.97449  -6354891.32445  24455682.833    24455689.855
  24022784.360    -6471628.39549  -4764799.68445  24022784.003    24022792.015
  20205958.366   -26128568.81049 -20337380.04748  20205957.936    20205960.130
  22614218.070   -11040840.32149  -8591106.35046  22614217.753    22614223.353
  21701032.841   -21439816.43449 -16680746.75547  21701032.178    21701037.220
  24422909.165    -2439469.84049  -1885615.45745  24422908.942    24422913.898
  22986185.809   -10034651.81049  -7793200.80246  22986185.335    22986190.183
  22471935.590   -10599618.09349  -7698442.08746  22471935.133    22471939.821
  22715318.619   -13349634.27449 -10380947.91646  22715318.153    22715321.752
 03  4 15  1  1  0.0000000  0 10G 9G21G25G14G 3G15G11G23G31G18
  24092043.870    -4146678.75749  -3211064.18345  24092043.697    24092049.637
  24475552.240    -8083339.14249  -6273533.17645  24475551.578    24475558.508
  24004058.438    -6570033.43849  -4841478.77345  24004057.967    24004066.008
  20206597.939   -26125207.92049 -20334761.16048  20206597.514    20206599.696
  22626733.113   -10975073.57049  -8539859.59146  22626732.839    22626738.395
  21716006.198   -21361131.08049 -16619433.54147  21716005.542    21716010.618
  24403995.726    -2538860.16749  -1963062.37545  24403995.555    24404000.441
  22996530.627    -9980289.84849  -7750840.85046  22996530.064    22996534.987
  22477062.639   -10572675.37549  -7677447.80746  22477062.233    22477066.864
  22727606.563   -13285060.13349 -10330630.43246  22727606.145    22727609.836
 03  4 15  1  1 30.0000000  0 10G 9G21G25G14G 3G15G11G23G31G18
  24103559.116    -4086165.30549  -3163910.84745  24103559.074    24103564.890
  24495451.191    -7978769.30649  -6192050.35845  24495450.702    24495457.735
  23985335.240    -6668423.59049  -4918146.25045  23985334.779    23985342.740
  20207333.856   -26121340.44449 -20331747.53848  20207333.434    20207335.619
  22639311.289   -10908975.16549  -8488354.40646  22639311.031    22639316.509
  21731048.737   -21282082.30949 -16557837.15947  21731048.048    21731053.144
  24385097.577    -2638170.02649  -2040446.57545  24385097.459    24385102.512
  23006885.797    -9925873.17549  -7708438.26646  23006885.235    23006890.277
  22482288.611   -10545213.15749  -7656048.72446  22482288.146    22482292.774
  22739912.816   -13220391.37149 -10280239.21446  22739912.296    22739915.896
 03  4 15  1  2  0.0000000  0 10G 9G21G25G14G 3G15G11G23G31G18
  24115171.912    -4025139.86749  -3116358.53645  24115171.684    24115177.605
  24515380.163    -7874041.30149  -6110444.27845  24515379.865    24515386.844
  23966615.479    -6766796.32949  -4994800.16745  23966614.938    23966622.842
  20208165.952   -26116967.57249 -20328340.10048  20208165.538    20208167.733
  22651952.003   -10842548.13049  -8436593.15346  22651951.710    22651957.191
  21746160.190   -21202671.24849 -16495958.47047  21746159.557    21746164.622
  24366215.248    -2737397.28549  -2117766.44845  24366215.001    24366220.106
  23017251.467    -9871401.96349  -7665993.19146  23017250.899    23017255.871
  22487613.003   -10517233.28249  -7634246.26546  22487612.570    22487617.228
  22752236.669   -13155628.55649 -10229774.70546  22752236.244    22752239.844
 03  4 15  1  2 30.0000000  0 10G 9G21G25G14G 3G15G11G23G31G18
  24126881.794    -3963603.51149  -3068408.11445  24126881.577    24126887.515
  24535339.359    -7769155.86149  -6028715.53545  24535339.008    24535346.111
  23947899.511    -6865148.24449  -5071437.83945  23947899.104    23947906.940
  20209094.208   -26112089.69749 -20324539.15048  20209093.785    20209095.967
  22664654.851   -10775794.64849  -8384577.51646  22664654.556    22664660.021
  21761340.580   -21122898.35649 -16433797.82847  21761339.908    21761344.934
  24347349.215    -2836539.14049  -2195019.75045  24347348.881    24347353.858
  23027627.603    -9816875.26149  -7623504.86946  23027627.006    23027631.897
  22493035.787   -10488736.68249  -7612041.14746  22493035.336    22493040.032
  22764578.683   -13090771.29149 -10179236.60946  22764578.260    22764581.774
 03  4 15  1  3  0.0000000  0 10G 9G21G25G14G 3G15G11G23G31G18
  24138688.396    -3901559.62949  -3020062.21945  24138688.165    24138693.843
  24555328.137    -7664115.87349  -5946866.35045  24555327.480    24555334.752
  23929187.782    -6963477.76249  -5148058.05745  23929187.448    23929195.371
  20210117.988   -26106709.59349 -20320346.85448  20210117.557    20210119.774
  22677419.029   -10708718.81749  -8332310.69746  22677418.729    22677424.209
  21776589.232   -21042766.32849 -16371357.33847  21776588.551    21776593.586
  24328499.482    -2935595.23849  -2272206.24045  24328499.101    24328504.000
  23038014.007    -9762294.35249  -7580974.30546  23038013.425    23038018.376
  22498556.226   -10459726.53249  -7589435.86346  22498555.784    22498560.511
  22776938.379   -13025820.96349 -10128625.98246  22776937.954    22776941.429
 03  4 15  1  3 30.0000000  0  9G 9G25G14G 3G15G11G23G31G18
  24150591.311    -3839009.22149  -2971321.61045  24150591.084    24150596.932
  23910481.100    -7061781.25249  -5224658.01845  23910480.789    23910488.596
  20211237.366   -26100827.10749 -20315763.09248  20211236.942    20211239.161
  22690244.261   -10641322.34549  -8279794.02646  22690243.961    22690249.427
  21791906.153   -20962275.58849 -16308637.32647  21791905.438    21791910.549
  24309666.727    -3034562.39949  -2349323.42345  24309666.238    24309671.101
  23048410.897    -9707658.28549  -7538400.75546  23048410.358    23048415.283
  22504174.279   -10430203.66849  -7566431.06846  22504173.824    22504178.577
  22789315.807   -12960776.84549 -10077942.26846  22789315.475    22789319.033
 03  4 15  1  4  0.0000000  0  9G 9G25G14G 3G15G11G23G31G18
  24162590.400    -3775953.96749  -2922187.64245  24162590.087    24162595.939
  23891780.062    -7160055.80249  -5301235.40045  23891779.665    23891787.389
  20212452.148   -26094443.30949 -20310788.69548  20212451.731    20212453.938
  22703129.911   -10573608.06049  -8227029.69546  22703129.640    22703135.070
  21807291.135   -20881427.17649 -16245638.61847  21807290.417    21807295.571
  24290851.078    -3133438.87549  -2426369.93745  24290850.634    24290855.496
  23058818.391    -9652966.77349  -7495784.00646  23058817.833    23058822.716
  22509889.538   -10400169.65249  -7543027.97546  22509889.098    22509893.917
  22801711.145   -12895639.12949 -10027185.62246  22801710.774    22801714.362
 03  4 15  1  4 30.0000000  0  9G 9G25G14G 3G15G11G23G31G18
  24174685.147    -3712395.64449  -2872661.64945  24174684.914    24174690.591
  23873084.939    -7258298.49749  -5377787.98945  23873084.638    23873092.255
  20213762.194   -26087558.99049 -20305424.28648  20213761.764    20213763.959
  22716075.525   -10505578.27149  -8174019.52446  22716075.318    22716080.789
  21822744.071   -20800221.60449 -16182361.60747  21822743.389    21822748.541
  24272053.214    -3232221.65349  -2503343.43545  24272052.848    24272057.554
  23069236.432    -9598219.19749  -7453123.58546  23069235.910    23069240.875
  22515701.887   -10369625.71949  -7519227.56046  22515701.454    22515706.217
  22814124.368   -12830407.31749  -9976355.66146  22814123.991    22814127.589
 03  4 15  1  5  0.0000000  0  9G 9G25G14G 3G15G11G23G31G18
  24186875.072    -3648337.15149  -2822745.92745  24186874.755    24186880.420
  23854396.243    -7356507.60249  -5454314.38945  23854395.956    23854403.487
  20215167.009   -26080176.46249 -20299671.65648  20215166.581    20215168.795
  22729080.554   -10437236.69049  -8120766.39646  22729080.345    22729085.836
  21838264.493   -20718661.06649 -16118807.97947  21838263.874    21838269.023
  24253273.412    -3330909.62849  -2580243.05245  24253273.088    24253277.780
  23079665.061    -9543416.49249  -7410420.18546  23079664.551    23079669.510
  22521610.769   -10338574.75249  -7495032.02646  22521610.303    22521615.043
  22826555.202   -12765082.47049  -9925453.20946  22826554.885    22826558.507
 03  4 15  1  5 30.0000000  0  9G 9G25G14G 3G15G11G23G31G18
  24199160.004    -3583779.33849  -2772441.11945  24199159.661    24199165.322
  23835714.719    -7454679.08449  -5530811.48745  23835714.468    23835721.851
  20216666.750   -26072295.51349 -20293530.65048  20216666.303    20216668.514
  22742144.671   -10368584.95949  -8067271.59946  22742144.431    22742149.855
  21853852.521   -20636745.60649 -16054977.80647  21853851.923    21853857.089
  24234512.242    -3429499.91449  -2657066.55645  24234511.917    24234516.576
  23090104.584    -9488557.14849  -7367672.66146  23090103.983    23090108.855
  22527615.991   -10307017.24849  -7470441.79846  22527615.496    22527620.293
  22839004.085   -12699663.54249  -9874477.43946  22839003.737    22839007.301
 03  4 15  1  6  0.0000000  0  9G 9G25G14G 3G15G11G23G31G18
  24211539.121    -3518727.20749  -2721751.14645  24211538.800    24211544.564
  23817040.388    -7552813.12949  -5607279.43845  23817040.027    23817047.430
  20218260.503   -26063920.22049 -20287004.44248  20218260.050    20218262.292
  22755266.694   -10299628.82049  -8013539.59846  22755266.407    22755271.862
  21869507.300   -20554479.58449 -15990874.47147  21869506.655    21869511.840
  24215769.488    -3527993.26349  -2733814.49945  24215769.252    24215773.798
  23100554.111    -9433643.97349  -7324883.18646  23100553.560    23100558.506
  22533716.593   -10274958.04649  -7445460.63946  22533716.113    22533720.954
  22851470.205   -12634153.63249  -9823430.77946  22851469.827    22851473.405
 03  4 15  1  6 30.0000000  0  9G 9G25G14G 3G15G11G23G31G18
  24224012.390    -3453179.18949  -2670674.73745  24224011.886    24224017.767
  23798374.396    -7650903.52349  -5683713.35545  23798373.899    23798381.238
  20219948.734   -26055048.23449 -20280091.20048  20219948.301    20219950.560
  22768446.621   -10230367.59749  -7959569.87446  22768446.363    22768451.883
  21885229.148   -20471860.74849 -15926496.20047  21885228.521    21885233.696
  24197046.125    -3626384.34449  -2810482.75845  24197046.023    24197050.541
  23111014.686    -9378673.44349  -7282049.02646  23111014.167    23111019.051
  22539913.029   -10242395.43049  -7420087.21946  22539912.573    22539917.454
  22863954.283   -12568549.51549  -9772310.73146  22863953.934    22863957.457
 03  4 15  1  7  0.0000000  0  9G 9G25G14G 3G15G11G23G31G18
  24236579.511    -3387137.92749  -2619214.01545  24236579.135    24236585.248
  23779717.050    -7748948.14449  -5760111.61645  23779716.485    23779723.748
  20221731.150   -26045681.58649 -20272792.50748  20221730.737    20221732.960
  22781684.020   -10160804.79249  -7905365.16046  22781683.749    22781689.273
  21901017.871   -20388890.99149 -15861844.50647  21901017.191    21901022.378
  24178342.628    -3724671.41549  -2887069.96345  24178342.552    24178347.035
  23121486.099    -9323645.91349  -7239170.44746  23121485.578    23121490.463
  22546204.820   -10209331.98649  -7394323.52746  22546204.358    22546209.247
  22876456.219   -12502851.86049  -9721117.77846  22876455.819    22876459.404
 03  4 15  1  7 30.0000000  0  9G 9G25G14G 3G15G11G23G31G18
  24249239.599    -3320608.95349  -2567373.20945  24249239.271    24249245.242
  23761068.171    -7846947.81549  -5836474.84045  23761067.695    23761074.873
  20223606.817   -26035824.91349 -20265111.97248  20223606.369    20223608.608
  22794977.692   -10090946.41649  -7850930.13046  22794977.416    22794982.921
  21916872.401   -20305574.87149 -15796922.91147  21916871.745    21916876.991
  24159658.581    -3822855.81549  -2963577.17045  24159658.547    24159663.030
  23131967.725    -9268564.45949  -7196249.85146  23131967.222    23131972.079
  22552590.972   -10175772.84449  -7368173.58246  22552590.496    22552595.353
  22888975.286   -12437064.12449  -9669854.64146  22888974.832    22888978.458
 03  4 15  1  8  0.0000000  0  9G 9G25G14G 3G15G11G23G31G18
  24261992.918    -3253589.67649  -2515150.41645  24261992.592    24261998.628
  23742429.333    -7944894.98949  -5912797.16845  23742428.859    23742436.087
  20225576.419   -26025474.61549 -20257046.80048  20225575.975    20225578.206
  22808327.832   -10020790.85649  -7796263.53346  22808327.563    22808333.158
  21932793.503   -20221909.22049 -15731728.95847  21932792.803    21932798.110
  24140995.393    -3920930.79649  -3039999.11145  24140995.347    24141000.002
  23142460.619    -9213424.29249  -7153283.51346  23142460.058    23142464.875
  22559071.901   -10141715.25149  -7341635.22746  22559071.449    22559076.345
  22901512.259   -12371181.58149  -9618517.62146  22901511.843    22901515.485
 03  4 15  1  8 30.0000000  0  9G 9G25G14G 3G15G11G23G31G18
  24274838.479    -3186085.65349  -2462549.86145  24274838.229    24274844.106
  23723800.306    -8042790.05749  -5989078.86945  23723799.896    23723807.138
  20227639.042   -26014635.42449 -20248600.66648  20227638.627    20227640.801
  22821733.418    -9950344.17049  -7741370.07546  22821733.163    22821738.795
  21948780.228   -20137898.49449 -15666266.11047  21948779.536    21948784.862
  24122352.825    -4018897.71349  -3116336.85045  24122352.723    24122357.362
  23152963.913    -9158228.64949  -7110273.94546  23152963.427    23152968.245
  22565646.744   -10107164.52749  -7314712.61746  22565646.278    22565651.214
  22914066.695   -12305207.85249  -9567109.55946  22914066.233    22914069.910
 03  4 15  1  9  0.0000000  0  9G 9G25G14G 3G15G11G23G31G18
  24287776.329    -3118097.23849  -2409571.85045  24287775.993    24287781.860
  23705181.989    -8140628.96449  -6065316.81845  23705181.674    23705189.006
  20229794.779   -26003306.99349 -20239773.30548  20229794.345    20229796.494
  22835194.200    -9879607.51049  -7686250.65946  22835193.934    22835199.627
  21964832.655   -20053542.64449 -15600534.33047  21964831.983    21964837.270
  24103731.706    -4116752.78249  -3192587.44645  24103731.544    24103735.998
  23163478.283    -9102975.82049  -7067219.80746  23163477.738    23163482.539
  22572315.407   -10072121.04449  -7287406.04546  22572314.921    22572319.818
  22926638.735   -12239141.49149  -9515629.31346  22926638.278    22926641.953
 03  4 15  1  9 30.0000000  0  9G 9G25G14G 3G15G11G23G31G18
  24300805.705    -3049626.83349  -2356218.30745  24300805.492    24300811.529
  23686574.854    -8238408.91949  -6141508.82745  23686574.616    23686581.900
  20232043.310   -25991490.87449 -20230565.93148  20232042.868    20232045.057
  22848709.596    -9808584.27349  -7630907.95146  22848709.298    22848715.011
  21980950.470   -19968843.02549 -15534534.67647  21980949.815    21980955.119
  24085132.178    -4214494.15749  -3268749.42445  24085132.020    24085136.342
  23174003.435    -9047665.71649  -7024121.05646  23174002.902    23174007.722
  22579077.306   -10036586.94849  -7259717.18646  22579076.831    22579081.739
  22939228.276   -12172982.95649  -9464077.24846  22939227.833    22939231.552
 03  4 15  1 10  0.0000000  0  9G 9G25G14G 3G15G11G23G31G18
  24313926.541    -2980676.93649  -2302491.07445  24313926.309    24313932.132
  23667979.500    -8336127.42049  -6217652.94045  23667979.289    23667986.537
  20234384.348   -25979188.52349 -20220979.67448  20234383.937    20234386.097
  22862278.823    -9737277.48949  -7575344.29246  22862278.574    22862284.349
  21997133.547   -19883800.94749 -15468268.18847  21997132.821    21997138.119
  24066554.672    -4312119.96349  -3344821.36745  24066554.452    24066558.636
  23184539.530    -8992298.27949  -6980977.63146  23184538.988    23184543.878
  22585932.179   -10000564.36349  -7231647.67446  22585931.714    22585936.608
  22951835.477   -12106732.31649  -9412453.42246  22951834.995    22951838.699
 03  4 15  1 10 30.0000000  0  9G 9G25G14G 3G15G11G23G31G18
  24327137.992    -2911249.69549  -2248391.92445  24327137.794    24327143.816
  23649396.406    -8433781.96149  -6293747.24045  23649396.154    23649403.392
  20236817.668   -25966401.29449 -20211015.58848  20236817.253    20236819.388
  22875901.563    -9665689.80049  -7519561.74546  22875901.303    22875907.087
  22013381.441   -19798417.87649 -15401735.98047  22013380.723    22013386.041
  24047999.514    -4409627.72949  -3420801.33145  24047999.147    24048003.478
  23195086.562    -8936873.31249  -6937789.36546  23195086.006    23195090.936
  22592879.718    -9964055.22149  -7203199.01346  22592879.195    22592884.177
  22964460.187   -12040389.56349  -9360757.80446  22964459.696    22964463.393
 03  4 15  1 11  0.0000000  0  9G 9G25G14G 3G15G11G23G31G18
  24340439.977    -2841347.19849  -2193922.42845  24340439.694    24340445.780
  23630825.908    -8531369.56749  -6369789.37245  23630825.650    23630832.929
  20239342.984   -25953130.66349 -20200674.82348  20239342.565    20239344.697
  22889577.130    -9593824.11849  -7463562.58346  22889576.895    22889582.724
  22029694.023   -19712695.25749 -15334939.20347  22029693.281    22029698.560
  24029467.028    -4507015.51849  -3496687.80045  24029466.686    24029471.018
  23205644.525    -8881390.66949  -6894556.16646  23205643.987    23205648.993
  22599919.362    -9927061.58149  -7174372.83246  22599918.891    22599923.826
  22977102.326   -11973954.93849  -9308990.61246  22977101.813    22977105.506
 03  4 15  1 11 30.0000000  0  9G 9G25G14G 3G15G11G23G31G18
  24353831.862    -2770972.12949  -2139084.71445  24353831.583    24353837.578
  23612268.611    -8628888.20449  -6445777.77445  23612268.366    23612275.575
  20241959.957   -25939378.56449 -20189958.89148  20241959.503    20241961.673
  22903305.101    -9521683.73749  -7407349.37646  22903304.822    22903310.686
  22046070.805   -19626634.96849 -15267879.29847  22046070.093    22046075.354
  24010957.702    -4604281.95049  -3572479.72545  24010957.370    24010961.713
  23216213.377    -8825850.54549  -6851278.17246  23216212.910    23216217.981
  22607050.840    -9889586.08549  -7145171.19246  22607050.364    22607055.172
  22989761.764   -11907429.03149  -9257152.28146  22989761.240    22989764.913
 03  4 15  1 12  0.0000000  0  8G25G14G 3G15G11G23G31G18
  23593725.446    -8726333.05049  -6521708.69145  23593725.174    23593732.265
  20244668.621   -25925144.30449 -20178867.25248  20244668.178    20244670.366
  22917085.007    -9449269.77049  -7350922.97046  22917084.752    22917090.709
  22062511.934   -19540236.53449 -15200555.90547  22062511.201    22062516.548
  23992472.373    -4701422.77749  -3648173.78645  23992472.027    23992476.216
  23226793.753    -8770250.97349  -6807953.86146  23226793.186    23226798.270
  22614273.928    -9851628.74049  -7115594.06246  22614273.444    22614278.330
  23002438.804   -11840810.10349  -9205241.46046  23002438.333    23002442.098
 03  4 15  1 12 30.0000000  0  8G25G14G 3G15G11G23G31G18
  23575196.486    -8823702.91049  -6597581.18445  23575196.212    23575203.209
  20247468.474   -25910430.74449 -20167402.12848  20247468.040    20247470.223
  22930916.193    -9376586.51849  -7294286.73446  22930915.937    22930921.887
  22079016.850   -19453502.99149 -15132971.39546  22079016.095    22079021.449
  23974010.980    -4798437.31249  -3723769.43845  23974010.688    23974014.752
  23237385.050    -8714593.28349  -6764584.26946  23237384.504    23237389.613
  22621587.940    -9813193.21549  -7085644.34446  22621587.481    22621592.311
  23015133.374   -11774099.67749  -9153259.34746  23015132.965    23015136.682
 03  4 15  1 13  0.0000000  0  8G25G14G 3G15G11G23G31G18
  23556682.098    -8920995.25249  -6673393.25045  23556681.979    23556688.941
  20250359.197   -25895239.76449 -20155564.99148  20250358.768    20250360.940
  22944798.010    -9303637.28549  -7237443.24446  22944797.717    22944803.716
  22095585.131   -19366435.88749 -15065126.96146  22095584.435    22095589.810
  23955573.912    -4895323.79049  -3799265.30045  23955573.702    23955577.772
  23247987.466    -8658877.46449  -6721169.38146  23247986.893    23247992.108
  22628992.502    -9774281.93449  -7055323.90246  22628992.065    22628996.894
  23027845.333   -11707298.22949  -9101206.30546  23027844.895    23027848.564
 03  4 15  1 13 30.0000000  0  8G25G14G 3G15G11G23G31G18
  23538183.350    -9018206.38549  -6749142.04745  23538183.175    23538190.128
  20253340.798   -25879571.47849 -20143355.92648  20253340.344    20253342.488
  22958730.159    -9230423.72249  -7180393.77846  22958729.862    22958735.880
  22112217.045   -19279035.21049 -14997022.59646  22112216.301    22112221.697
  23937161.851    -4992078.96549  -3874658.85245  23937161.688    23937165.736
  23258601.194    -8603102.15149  -6677708.12446  23258600.626    23258605.789
  22636487.517    -9734895.72049  -7024633.37446  22636487.076    22636491.938
  23040574.809   -11640404.61349  -9049081.44646  23040574.362    23040578.084
 03  4 15  1 14  0.0000000  0  8G25G14G 3G15G11G23G31G18
  23519700.205    -9115335.26049  -6824826.72746  23519700.051    23519706.972
  20256412.506   -25863429.44949 -20130777.71448  20256412.078    20256414.209
  22972711.709    -9156950.64049  -7123142.09746  22972711.412    22972717.388
  22128911.678   -19191304.68249 -14928661.22146  22128910.923    22128916.317
  23918774.901    -5088702.69649  -3949949.98745  23918774.647    23918778.792
  23269225.868    -8547269.16749  -6634201.92446  23269225.320    23269230.456
  22644072.032    -9695038.82349  -6993576.08946  22644071.575    22644076.465
  23053321.416   -11573420.92949  -8996886.40646  23053320.938    23053324.755
 03  4 15  1 14 30.0000000  0  8G25G14G 3G15G11G23G31G18
  23501233.472    -9212377.80549  -6900444.14246  23501233.315    23501240.280
  20259574.405   -25846813.63049 -20117830.31448  20259573.959    20259576.111
  22986742.158    -9083219.76549  -7065689.52946  22986741.930    22986747.926
  22145669.092   -19103244.15149 -14860042.68546  22145668.333    22145673.714
  23900413.793    -5185191.20049  -4025135.74045  23900413.508    23900417.568
  23279861.879    -8491376.86149  -6590649.48946  23279861.367    23279866.431
  22651745.998    -9654712.01149  -6962152.64346  22651745.573    22651750.393
  23066085.519   -11506345.62349  -8944619.95946  23066085.022    23066088.773
 03  4 15  1 15  0.0000000  0  8G25G14G 3G15G11G23G31G18
  23482783.746    -9309331.34149  -6975992.17946  23482783.547    23482790.562
  20262826.187   -25829725.44849 -20104514.84248  20262825.738    20262827.862
  23000821.170    -9009234.06049  -7008038.40746  23000820.943    23000826.998
  22162488.964   -19014855.44949 -14791168.43246  22162488.249    22162493.580
  23882078.759    -5281542.50449  -4100214.59445  23882078.431    23882082.442
  23290509.186    -8435425.02949  -6547050.69246  23290508.627    23290513.747
  22659509.043    -9613917.26449  -6930364.54746  22659508.599    22659513.446
  23078866.716   -11439179.22249  -8892282.53046  23078866.244    23078870.091
 03  4 15  1 15 30.0000000  0  8G25G14G 3G15G11G23G31G18
  23464351.444    -9406193.24049  -7051468.81146  23464351.258    23464358.286
  20266167.459   -25812166.93349 -20090832.87648  20266167.005    20266169.126
  23014948.129    -8934996.64249  -6950191.13846  23014947.883    23014953.917
  22179370.899   -18926140.23149 -14722039.75346  22179370.202    22179375.568
  23863770.137    -5377754.50149  -4175184.89845  23863769.856    23863773.781
  23301167.778    -8379413.60949  -6503405.45446  23301167.247    23301172.434
  22667360.579    -9572657.21749  -6898213.88446  22667360.153    22667364.989
  23091665.518   -11371921.88249  -8839874.24846  23091665.003    23091668.832
 03  4 15  1 16  0.0000000  0  8G25G14G 3G15G11G23G31G18
  23445937.181    -9502959.78149  -7126871.12746  23445937.006    23445944.054
  20269598.171   -25794138.25749 -20076784.55648  20269597.700    20269599.878
  23029122.759    -8860509.12449  -6892148.98646  23029122.500    23029128.483
  22196314.902   -18837098.79349 -14652656.87946  22196314.242    22196319.670
  23845488.615    -5473824.10849  -4250044.23945  23845488.282    23845492.143
  23311838.080    -8323341.14049  -6459712.65946  23311837.511    23311842.696
  22675300.416    -9530932.94549  -6865701.49446  22675300.046    22675304.893
  23104481.684   -11304572.45949  -8787394.21646  23104481.240    23104484.901
 03  4 15  1 16 30.0000000  0  8G25G14G 3G15G11G23G31G18
  23427540.920    -9599630.85749  -7202199.05246  23427540.871    23427547.940
  20273117.518   -25775643.81749 -20062373.30248  20273117.083    20273119.229
  23043343.736    -8785777.42149  -6833916.55346  23043343.465    23043349.404
  22213320.139   -18747735.39249 -14583023.11846  22213319.529    22213325.075
  23827233.955    -5569752.19549  -4324793.32745  23827233.649    23827237.583
  23322519.476    -8267210.46349  -6415974.49646  23322518.896    23322524.008
  22683327.708    -9488749.46149  -6832831.27246  22683327.349    22683332.164
  23117314.935   -11237133.86549  -8734844.70246  23117314.427    23117318.092
 03  4 15  1 17  0.0000000  0  8G25G14G 3G15G11G23G31G18
  23409164.262    -9696200.09149  -7277447.60446  23409164.224    23409171.197
  20276725.924   -25756681.39649 -20047597.38248  20276725.485    20276727.604
  23057611.303    -8710800.89949  -6775493.36146  23057611.088    23057617.010
  22230387.223   -18658047.82249 -14513136.77146  22230386.613    22230392.125
  23809007.467    -5665532.46249  -4399427.21745  23809007.188    23809011.081
  23333212.645    -8211017.60449  -6372187.88546  23333212.063    23333217.187
  22691442.725    -9446105.25349  -6799602.07346  22691442.321    22691447.095
  23130165.668   -11169602.38849  -8682222.81146  23130165.180    23130168.906
 03  4 15  1 17 30.0000000  0  8G25G14G 3G15G11G23G31G18
  23390806.963    -9792667.35149  -7352616.69646  23390806.981    23390813.807
  20280422.594   -25737255.28149 -20032460.13948  20280422.156    20280424.320
  23071924.500    -8635585.01649  -6716883.64346  23071924.269    23071930.173
  22247515.228   -18568040.37949 -14443001.15646  22247514.546    22247520.002
  23790809.183    -5761165.34949  -4473946.27045  23790808.886    23790812.741
  23343917.228    -8154765.04249  -6328354.74546  23343916.623    23343921.703
  22699644.347    -9403005.34149  -6766017.75946  22699643.924    22699648.817
  23143033.496   -11101981.02949  -8629530.88446  23143033.061    23143036.909
 03  4 15  1 18  0.0000000  0  8G25G14G 3G15G11G23G31G18
  23372470.073    -9889028.22849  -7427702.87946  23372470.026    23372476.761
  20284207.418   -25717365.61649 -20016961.69848  20284207.006    20284209.177
  23086282.990    -8560131.21949  -6658088.55346  23086282.719    23086288.690
  22264703.896   -18477713.08849 -14372616.31446  22264703.247    22264708.776
  23772639.421    -5856647.67749  -4548347.99445  23772639.175    23772642.904
  23354633.357    -8098451.02649  -6284473.71846  23354632.794    23354637.927
  22707932.543    -9359450.45149  -6732078.92646  22707932.115    22707937.078
  23155918.824   -11034268.11549  -8576767.60246  23155918.361    23155922.226
 03  4 15  1 18 30.0000000  0  8G25G14G 3G15G11G23G31G18
  23354153.771    -9985281.01749  -7502704.85546  23354153.626    23354160.283
  20288080.076   -25697014.81749 -20001103.92548  20288079.655    20288081.793
  23100685.877    -8484443.53849  -6599111.21646  23100685.608    23100691.625
  22281953.026   -18387068.41949 -14301984.16646  22281952.375    22281957.948
  23754498.549    -5951977.93949  -4622631.23545  23754498.303    23754502.099
  23365361.074    -8042076.10549  -6240545.24246  23365360.527    23365365.663
  22716306.801    -9315443.92849  -6697788.16946  22716306.368    22716311.295
  23168821.281   -10966464.89349  -8523933.95046  23168820.929    23168824.825
 03  4 15  1 19  0.0000000  0  8G25G14G 3G15G11G23G31G18
  23335858.646   -10081422.13849  -7577619.81046  23335858.462    23335865.083
  20292040.355   -25676203.58149 -19984887.36848  20292039.903    20292042.032
  23115132.962    -8408523.87749  -6539953.12646  23115132.726    23115138.739
  22299262.444   -18296106.79749 -14231105.03646  22299261.792    22299267.399
  23736387.280    -6047152.94249  -4696793.47845  23736387.001    23736390.909
  23376100.678    -7985639.32349  -6196568.55646  23376100.152    23376105.304
  22724766.665    -9270987.10649  -6663146.52746  22724766.202    22724771.138
  23181741.309   -10898570.29149  -8471029.07646  23181740.885    23181744.878
 03  4 15  1 19 30.0000000  0  8G25G14G 3G15G11G23G31G18
  23317585.217   -10177449.16749  -7652445.87746  23317585.042    23317591.591
  20296087.844   -25654933.90649 -19968313.58248  20296087.401    20296089.530
  23129623.554    -8332375.63249  -6480616.89746  23129623.255    23129629.344
  22316631.844   -18204830.47049 -14159980.67946  22316631.168    22316636.781
  23718305.965    -6142170.92549  -4770833.36445  23718305.669    23718309.560
  23386852.001    -7929140.80549  -6152543.77046  23386851.490    23386856.570
  22733311.642    -9226082.63949  -6628156.07146  22733311.266    22733316.173
  23194678.416   -10830585.05749  -8418053.60246  23194677.999    23194681.993
 03  4 15  1 20  0.0000000  0  8G25G14G 3G15G11G23G31G18
  23299333.793   -10273359.97449  -7727181.37346  23299333.637    23299340.214
  20300222.170   -25633207.79149 -19951384.13248  20300221.709    20300223.863
  23144157.000    -8256002.19349  -6421105.19446  23144156.743    23144162.830
  22334060.806   -18113241.36449 -14088612.61746  22334060.072    22334065.688
  23700254.835    -6237030.46949  -4844749.80145  23700254.546    23700258.418
  23397615.097    -7872580.75749  -6108471.04646  23397614.558    23397619.648
  22741941.395    -9180733.50149  -6592819.11346  22741940.942    22741945.901
  23207632.811   -10762509.46149  -8365007.72246  23207632.371    23207636.395
 03  4 15  1 20 30.0000000  0  8G25G14G 3G15G11G23G31G18
  23281104.983   -10369152.19749  -7801824.48746  23281104.787    23281111.347
  20304442.907   -25611027.42349 -19934100.71648  20304442.447    20304444.649
  23158732.647    -8179406.91549  -6361420.63146  23158732.423    23158738.511
  22351548.769   -18021341.35649 -14017002.28846  22351548.095    22351553.708
  23682234.242    -6331729.32449  -4918541.02946  23682233.871    23682237.828
  23408389.882    -7815959.31049  -6064350.45946  23408389.259    23408394.379
  22750655.169    -9134942.28049  -6557137.68646  22750654.699    22750659.734
  23220604.238   -10694344.29849  -8311892.03446  23220603.760    23220607.889
 03  4 15  1 21  0.0000000  0  8G25G14G 3G15G11G23G31G18
  23262899.389   -10464822.08849  -7876372.26946  23262899.240    23262905.749
  20308749.967   -25588393.63549 -19916463.98548  20308749.525    20308751.717
  23173350.190    -8102592.04449  -6301564.96046  23173349.913    23173356.062
  22369095.849   -17929131.31049 -13945150.35346  22369095.138    22369100.755
  23664244.746    -6426264.55049  -4992204.77046  23664244.325    23664248.246
  23419176.358    -7759275.40849  -6020181.21746  23419175.852    23419180.995
  22759452.838    -9088710.58249  -6521113.03046  22759452.359    22759457.328
  23233592.979   -10626088.45149  -8258705.70846  23233592.519    23233596.652
 03  4 15  1 21 30.0000000  0  8G25G14G 3G15G11G23G31G18
  23244717.898   -10560365.57449  -7950821.58846  23244717.807    23244724.224
  20313143.229   -25565306.72149 -19898474.17348  20313142.784    20313144.993
  23188009.057    -8025559.28849  -6241539.50146  23188008.835    23188014.966
  22386701.765   -17836611.52249 -13873057.08746  22386701.089    22386706.742
  23646287.009    -6520632.66049  -5065738.28946  23646286.617    23646290.495
  23429975.191    -7702527.61249  -5975962.17646  23429974.636    23429979.778
  22768334.002    -9042039.62649  -6484746.09346  22768333.511    22768338.500
  23246598.906   -10557740.83949  -8205447.85246  23246598.605    23246602.819
 03  4 15  1 22  0.0000000  0  8G25G14G 3G15G11G23G31G18
  23226560.915   -10655780.70849  -8025170.88946  23226560.827    23226567.117
  20317622.260   -25541769.12349 -19880133.17248  20317621.803    20317624.049
  23202708.855    -7948312.21049  -6181347.04346  23202708.589    23202714.740
  22404366.237   -17743784.45449 -13800724.37146  22404365.530    22404371.207
  23628361.271    -6614832.27349  -5139140.50045  23628360.906    23628364.857
  23440786.018    -7645716.25949  -5931693.62946  23440785.522    23440790.684
  22777298.240    -8994932.45649  -6448039.24946  22777297.755    22777302.723
  23259622.529   -10489302.26249  -8152119.13346  23259622.089    23259626.262
 03  4 15  1 22 30.0000000  0  8G25G14G 3G15G11G23G31G18
  23208428.642   -10751065.82949  -8099418.88946  23208428.540    23208434.755
  20322186.553   -25517783.54849 -19861443.10148  20322186.113    20322188.376
  23217448.430    -7870854.99849  -6120990.82946  23217448.205    23217454.441
  22422088.638   -17650652.82149 -13728154.32746  22422087.921    22422093.609
  23610467.834    -6708862.18149  -5212410.47145  23610467.454    23610471.386
  23451608.934    -7588842.26749  -5887376.26546  23451608.379    23451613.310
  22786344.794    -8947392.67949  -6410995.30046  22786344.312    22786349.339
  23272663.059   -10420773.88749  -8098720.43546  23272662.680    23272666.915
 03  4 15  1 23  0.0000000  0  8G25G14G 3G15G11G23G31G18
  23190321.868   -10846217.02249  -8173562.52646  23190321.735    23190327.943
  20326836.014   -25493350.51349 -19842404.36048  20326835.545    20326837.837
  23232227.742    -7793189.70149  -6060472.48646  23232227.533    23232233.683
  22439868.934   -17557217.07149 -13655347.30946  22439868.193    22439873.933
  23592607.376    -6802719.12249  -5285545.66246  23592607.047    23592610.930
  23462443.861    -7531904.16649  -5843008.94446  23462443.329    23462448.289
  22795473.440    -8899421.50549  -6373615.20446  22795472.982    22795478.012
  23285720.969   -10352154.83249  -8045251.08446  23285720.621    23285724.753
 03  4 15  1 23 30.0000000  0  8G25G14G 3G15G11G23G31G18
  23172240.812   -10941233.46249  -8247601.17046  23172240.631    23172246.784
  20331569.796   -25468474.02349 -19823020.07648  20331569.347    20331571.666
  23247045.685    -7715321.20449  -5999795.79846  23247045.435    23247051.533
  22457706.385   -17463480.87849 -13582306.18146  22457705.694    22457711.419
  23574779.970    -6896402.91349  -5358545.93446  23574779.600    23574783.463
  23473290.594    -7474903.85349  -5798593.16346  23473290.139    23473295.038
  22804683.350    -8851023.53349  -6335902.55946  22804682.876    22804687.796
  23298795.792   -10283446.93649  -7991712.50746  23298795.409    23298799.393
 03  4 15  1 24  0.0000000  0  8G25G14G 3G15G11G23G31G18
  23154186.352   -11036109.76549  -8321530.61546  23154186.111    23154192.259
  20336388.207   -25443152.84049 -19803289.27748  20336387.782    20336390.069
  23261902.114    -7637249.73849  -5938960.94046  23261901.890    23261908.084
  22475601.140   -17369443.12149 -13509030.05946  22475600.505    22475606.227
  23556986.316    -6989908.57649  -5431407.40546  23556985.909    23556989.855
  23484149.756    -7417838.42149  -5754126.62646  23484149.222    23484154.232
  22813974.431    -8802198.54749  -6297857.15346  22813973.994    22813978.928
  23311887.987   -10214647.79049  -7938102.83046  23311887.546    23311891.440
 03  4 15  1 24 30.0000000  0  8G25G14G 3G15G11G23G31G18
  23136158.955   -11130843.68149  -8395349.11446  23136158.721    23136164.872
  20341290.861   -25417389.42449 -19783213.88248  20341290.428    20341292.712
  23276796.597    -7558978.70349  -5877970.58246  23276796.409    23276802.673
  22493553.040   -17275106.02249 -13435520.69946  22493552.348    22493558.086
  23539226.866    -7083234.23349  -5504128.62246  23539226.532    23539230.442
  23495021.330    -7360707.90849  -5709609.37746  23495020.796    23495025.898
  22823346.254    -8752949.33849  -6259481.16546  22823345.797    22823350.809
  23324997.143   -10145757.49349  -7884422.12446  23324996.831    23325000.850
 03  4 15  1 25  0.0000000  0  8G25G14G 3G15G11G23G31G18
  23118159.248   -11225432.22749  -8469054.34046  23118158.992    23118165.164
  20346277.384   -25391185.03249 -19762794.87148  20346276.936    20346279.231
  23291728.625    -7480511.01949  -5816826.99546  23291728.372    23291734.602
  22511561.588   -17180470.99749 -13361779.18046  22511560.840    22511566.576
  23521502.182    -7176377.71749  -5576707.89746  23521501.873    23521505.748
  23505905.409    -7303511.95849  -5665041.12946  23505904.861    23505910.022
  22832798.352    -8703278.42849  -6220776.59646  22832797.903    22832802.802
  23338123.959   -10076776.11949  -7830670.45746  23338123.614    23338127.585
 03  4 15  1 25 30.0000000  0  8G25G14G 3G15G11G23G31G18
  23100187.589   -11319873.28649  -8542644.63446  23100187.373    23100193.484
  20351347.410   -25364541.85649 -19742033.94948  20351346.966    20351349.254
  23306697.309    -7401849.97149  -5755532.72446  23306697.060    23306703.342
  22529626.236   -17085540.23049 -13287807.19846  22529625.585    22529631.370
  23503812.583    -7269336.88049  -5649143.53046  23503812.329    23503816.116
  23516801.880    -7246250.64749  -5620421.97746  23516801.387    23516806.511
  22842330.200    -8653188.57349  -6181745.56246  22842329.714    22842334.642
  23351267.912   -10007704.31649  -7776848.31846  23351267.495    23351271.558
 03  4 15  1 26  0.0000000  0  8G25G14G 3G15G11G23G31G18
  23082244.483   -11414164.60549  -8616118.25246  23082244.265    23082250.308
  20356500.453   -25337462.28749 -19720932.98448  20356500.018    20356502.291
  23321702.074    -7322999.25849  -5694090.67146  23321701.852    23321708.152
  22547746.763   -16990316.30649 -13213606.79946  22547746.120    22547751.976
  23486158.382    -7362110.22649  -5721434.37546  23486158.101    23486161.884
  23527710.822    -7188924.37949  -5575752.19646  23527710.335    23527715.317
  22851941.133    -8602682.97749  -6142390.57146  22851940.631    22851945.616
  23364429.028    -9938542.45449  -7722956.02146  23364428.622    23364432.691
 03  4 15  1 26 30.0000000  0  8G25G14G 3G15G11G23G31G18
  23064330.366   -11508303.71749  -8689473.26846  23064330.126    23064336.044
  20361736.115   -25309948.73349 -19699493.84248  20361735.674    20361737.914
  23336742.373    -7243962.19649  -5632503.40846  23336742.130    23336748.425
  22565922.877   -16894801.00649 -13139179.35046  22565922.167    22565928.020
  23468539.748    -7454696.39549  -5793579.38046  23468539.508    23468543.231
  23538632.079    -7131533.28649  -5531031.91646  23538631.554    23538636.599
  22861630.520    -8551764.67149  -6102713.99146  22861630.033    22861634.994
  23377607.262    -9869291.20049  -7668994.06946  23377606.759    23377610.731
 03  4 15  1 27  0.0000000  0  8G25G14G 3G15G11G23G31G18
  23046446.005   -11602286.13749  -8762706.16446  23046445.718    23046451.592
  20367054.309   -25282001.54949 -19677716.81248  20367053.862    20367056.084
  23351817.749    -7164740.57349  -5570772.33846  23351817.543    23351823.900
  22584154.200   -16798994.69849 -13064525.13846  22584153.526    22584159.417
  23450957.621    -7547091.24449  -5865575.31146  23450957.360    23450960.991
  23549565.929    -7074075.72449  -5486259.82346  23549565.395    23549570.444
  22871398.365    -8500434.81949  -6062716.74946  22871397.900    22871402.857
  23390802.552    -9799949.19949  -7614961.37745  23390802.046    23390806.110
 03  4 15  1 27 30.0000000  0  8G25G14G 3G15G11G23G31G18
  23028591.825   -11696109.67749  -8835815.25946  23028591.628    23028597.433
  20372454.661   -25253622.33049 -19655603.12748  20372454.223    20372456.453
  23366927.656    -7085337.38449  -5508899.77146  23366927.493    23366933.927
  22602440.591   -16702899.07249 -12989645.48246  22602439.996    22602445.885
  23433412.264    -7639292.49249  -5937420.37546  23433411.947    23433415.645
  23560512.427    -7016551.42649  -5441435.72246  23560511.947    23560516.968
  22881244.005    -8448695.99149  -6022400.81446  22881243.515    22881248.486
  23404015.139    -9730516.41149  -7560857.97545  23404014.697    23404018.731
 03  4 15  1 28  0.0000000  0  8G25G14G 3G15G11G23G31G18
  23010768.414   -11789771.13149  -8908798.04546  23010768.307    23010774.121
  20377936.981   -25224812.77849 -19633154.12648  20377936.528    20377938.746
  23382071.806    -7005755.28249  -5446887.80146  23382071.579    23382077.893
  22620781.872   -16606515.58649 -12914541.53746  22620781.219    22620787.076
  23415904.219    -7731297.34549  -6009112.41246  23415903.938    23415907.632
  23571471.627    -6958959.75949  -5396559.14246  23571471.180    23571476.343
  22891166.880    -8396550.47149  -5981767.99346  22891166.415    22891171.434
  23417245.100    -9660992.77849  -7506683.77445  23417244.608    23417248.656
 03  4 15  1 28 30.0000000  0  8G25G14G 3G15G11G23G31G18
  22992976.090   -11883269.26849  -8981653.58846  22992976.134    22992981.871
  20383500.524   -25195576.02949 -19610372.23648  20383500.067    20383502.300
  23397248.994    -6925998.78149  -5384739.92846  23397248.752    23397255.081
  22639177.372   -16509847.44649 -12839215.76546  22639176.614    22639182.454
  23398433.618    -7823105.42749  -6080651.12146  23398433.352    23398437.023
  23582443.564    -6901302.00249  -5351631.05645  23582443.054    23582448.375
  22901166.487    -8344002.33349  -5940821.45446  22901166.022    22901171.079
  23430491.999    -9591379.74649  -7452439.90745  23430491.608    23430495.621
 03  4 15  1 29  0.0000000  0  8G25G14G 3G15G11G23G31G18
  22975216.040   -11976599.61149  -9054378.36946  22975215.850    22975221.533
  20389145.261   -25165912.71749 -19587257.96048  20389144.809    20389147.042
  23412459.166    -6846069.49349  -5322457.41946  23412458.922    23412465.235
  22657626.836   -16412895.08749 -12763668.52746  22657626.092    22657631.889
  23381001.092    -7914713.29849  -6152033.81346  23381000.920    23381004.624
  23593428.332    -6843576.51749  -5306650.20446  23593427.880    23593433.189
  22911242.517    -8291052.83549  -5899562.14346  22911242.047    22911247.159
  23443756.439    -9521675.88549  -7398125.26745  23443756.015    23443759.917
 03  4 15  1 29 30.0000000  0  8G25G14G 3G15G11G23G31G18
  22957488.244   -12069759.39349  -9126970.25646  22957488.022    22957493.655
  20394870.805   -25135824.61549 -19563812.67748  20394870.365    20394872.629
  23427701.634    -6765970.51049  -5260042.66746  23427701.350    23427707.613
  22676129.936   -16315660.55549 -12687901.41646  22676129.262    22676135.020
  23363607.305    -8006118.61649  -6223258.67446  23363607.101    23363610.752
  23604426.169    -6785783.10549  -5261616.41746  23604425.696    23604430.983
  22921394.332    -8237704.79049  -5857992.29946  22921393.869    22921398.965
  23457037.925    -9451881.41549  -7343740.01445  23457037.531    23457041.404
 03  4 15  1 30  0.0000000  0  8G25G14G 3G15G11G23G31G18
  22939792.869   -12162747.97449  -9199428.75346  22939792.713    22939798.329
  20400676.549   -25105315.05549 -19540038.98548  20400676.116    20400678.419
  23442975.406    -6685706.15949  -5197499.08246  23442975.136    23442981.470
  22694686.112   -16218146.84849 -12611916.77246  22694685.476    22694691.322
  23346252.193    -8097320.27349  -6294324.84246  23346251.996    23346255.560
  23615436.617    -6727922.99049  -5216530.65746  23615436.184    23615441.472
  22931621.195    -8183962.20449  -5816115.01046  22931620.720    22931625.880
  23470336.168    -9381997.88749  -7289285.35045  23470335.865    23470339.895
 03  4 15  1 30 30.0000000  0  8G25G14G 3G15G11G23G31G18
  22922131.537   -12255558.30049  -9271748.35346  22922131.329    22922137.007
  20406562.921   -25074381.78649 -19515935.13348  20406562.501    20406564.782
  23458280.915    -6605275.38149  -5134825.79046  23458280.600    23458286.975
  22713295.929   -16120351.62849 -12535712.75346  22713295.303    22713301.184
  23328936.860    -8188312.17049  -6365227.56346  23328936.654    23328940.156
  23626460.521    -6669991.70549  -5171389.43146  23626460.142    23626465.416
  22941923.479    -8129823.47949  -5773929.05246  22941922.977    22941928.089
  23483652.311    -9312021.19649  -7234758.11445  23483651.936    23483656.010
 03  4 15  1 31  0.0000000  0  8G25G14G 3G15G11G23G31G18
  22904503.507   -12348193.44049  -9343931.42546  22904503.223    22904508.976
  20412528.476   -25043032.66649 -19491507.23948  20412528.041    20412530.316
  23473616.231    -6524687.35949  -5072029.98846  23473615.984    23473622.411
  22731957.905   -16022282.69249 -12459295.46946  22731957.213    22731963.105
  23311660.782    -8279097.94149  -6435969.63346  23311660.604    23311664.090
  23637496.999    -6611994.78249  -5126197.06845  23637496.572    23637501.857
  22952299.525    -8075297.33249  -5731441.18946  22952299.024    22952304.070
  23496985.067    -9241957.09349  -7180162.77645  23496984.785    23496988.772
 03  4 15  1 31 30.0000000  0  8G25G14G 3G15G11G23G31G18
  22886910.196   -12440645.43249  -9415971.81246  22886910.112    22886915.772
  20418573.836   -25011264.15149 -19466752.54448  20418573.406    20418575.648
  23488982.191    -6443939.67549  -5009109.77746  23488981.866    23488988.228
  22750672.665   -15923936.66049 -12382662.24846  22750671.888    22750677.791
  23294425.494    -8369670.07949  -6506545.26346  23294425.205    23294428.708
  23648547.010    -6553926.66849  -5080949.21945  23648546.532    23648551.917
  22962749.707    -8020381.30649  -5688649.52846  22962749.210    22962754.316
  23510335.607    -9171800.57549  -7125495.40745  23510335.184    23510339.223
 03  4 15  1 32  0.0000000  0  8G25G14G 3G15G11G23G31G18
  22869351.921   -12532914.23449  -9487869.45046  22869351.848    22869357.497
  20424698.105   -24979080.85249 -19441674.64048  20424697.656    20424699.929
  23504377.271    -6363038.12649  -4946069.66546  23504376.969    23504383.375
  22769439.152   -15825317.85649 -12305816.47746  22769438.416    22769444.360
  23277230.779    -8460028.58149  -6576954.40446  23277230.509    23277234.002
  23659610.083    -6495789.81649  -5035647.82145  23659609.633    23659615.051
  22973273.059    -7965080.60949  -5645558.11446  22973272.585    22973277.809
  23523703.079    -9101554.30949  -7070758.11045  23523702.600    23523706.618
 03  4 15  1 32 30.0000000  0  8G25G14G 3G15G11G23G31G18
  22851829.073   -12624996.85549  -9559622.02446  22851829.008    22851834.647
  20430900.978   -24946484.43049 -19416274.82448  20430900.542    20430902.828
  23519801.063    -6281985.31249  -4882911.68646  23519800.800    23519807.319
  22788257.289   -15726427.94949 -12228759.48046  22788256.589    22788262.595
  23260077.145    -8550171.31849  -6647195.42746  23260076.864    23260080.243
  23670686.449    -6437583.77449  -4990292.51745  23670685.935    23670691.316
  22983869.219    -7909397.68349  -5602168.87146  22983868.768    22983873.946
  23537087.532    -9031217.90549  -7015950.57845  23537087.114    23537091.341
 03  4 15  1 33  0.0000000  0  8G25G14G 3G15G11G23G31G18
  22834342.464   -12716889.62149  -9631226.64946  22834342.325    22834347.943
  20437182.325   -24913475.76049 -19390553.77348  20437181.903    20437184.159
  23535253.371    -6200783.13449  -4819637.32646  23535253.133    23535259.622
  22807126.944   -15627267.46149 -12151491.63346  22807126.285    22807132.327
  23242965.271    -8640094.72749  -6717265.53846  23242964.980    23242968.336
  23681776.090    -6379306.95449  -4944882.02845  23681775.618    23681781.090
  22994537.787    -7853334.07649  -5558482.97946  22994537.322    22994542.567
  23550489.493    -8960790.38149  -6961072.04245  23550489.116    23550493.252
 03  4 15  1 33 30.0000000  0  8G25G14G 3G15G11G23G31G18
  22816892.287   -12808590.52649  -9702681.78346  22816892.075    22816897.710
  20443541.610   -24880057.42649 -19364513.50448  20443541.191    20443543.424
  23550733.404    -6119435.43249  -4756249.55846  23550733.176    23550739.656
  22826047.470   -15527839.24549 -12074015.16746  22826046.877    22826052.984
  23225895.388    -8729797.52749  -6787163.73846  23225895.048    23225898.466
  23692879.148    -6320959.99249  -4899416.92045  23692878.701    23692884.213
  23005278.165    -7796893.48749  -5514503.34646  23005277.687    23005282.952
  23563908.914    -8890272.64949  -6906123.22945  23563908.415    23563912.413
 03  4 15  1 34  0.0000000  0  8G25G14G 3G15G11G23G31G18
  22799479.183   -12900096.54549  -9773985.06846  22799478.989    22799484.586
  20449978.551   -24846231.19149 -19338155.38648  20449978.135    20449980.324
  23566240.665    -6037945.24449  -4692750.77246  23566240.341    23566246.709
  22845018.752   -15428144.82249 -11996331.26846  22845018.152    22845024.248
  23208868.009    -8819277.12749  -6856888.01646  23208867.646    23208870.960
  23703995.802    -6262542.49249  -4853896.82545  23703995.256    23704000.720
  23016089.671    -7740078.50949  -5470231.97246  23016089.183    23016094.566
  23577345.125    -8819664.75849  -6851104.11645  23577344.664    23577348.667
 03  4 15  1 34 30.0000000  0  8G25G14G 3G15G11G23G31G18
  22782103.577   -12991405.26849  -9845134.60946  22782103.428    22782109.006
  20456492.651   -24811999.23749 -19311481.12848  20456492.255    20456494.425
  23581774.339    -5956315.56849  -4629143.29746  23581774.057    23581780.359
  22864040.371   -15328186.29449 -11918441.58146  22864039.735    22864045.831
  23191883.347    -8908531.41249  -6926436.73346  23191883.024    23191886.336
  23715125.658    -6204054.33249  -4808321.69245  23715125.260    23715130.678
  23026971.910    -7682891.96849  -5425671.08446  23026971.469    23026976.868
  23590798.403    -8748966.81649  -6796014.87845  23590797.931    23590802.041
 03  4 15  1 35  0.0000000  0  8G25G14G 3G15G11G23G31G18
  22764766.251   -13082512.72249  -9916127.32346  22764766.151    22764771.709
  20463083.818   -24777362.47149 -19284491.43348  20463083.402    20463085.579
  23597334.118    -5874548.53449  -4565428.77346  23597333.805    23597340.167
  22883111.937   -15227964.42149 -11840346.67946  22883111.391    22883117.466
  23174942.170    -8997557.21349  -6995807.40046  23174941.922    23174945.234
  23726269.562    -6145494.19549  -4762690.48045  23726268.975    23726274.317
  23037924.566    -7625335.70349  -5380822.10546  23037924.077    23037929.449
  23604269.216    -8678177.77149  -6740854.63045  23604268.646    23604272.890
 03  4 15  1 35 30.0000000  0  8G25G14G 3G15G11G23G31G18
  22747467.645   -13173416.76549  -9986961.52246  22747467.606    22747473.108
  20469751.533   -24742323.17549 -19257188.07548  20469751.146    20469753.322
  23612919.376    -5792647.49649  -4501609.83946  23612919.056    23612925.407
  22902233.390   -15127481.59149 -11762048.42846  22902232.714    22902238.811
  23158045.060    -9086352.63449  -7064998.56546  23158044.700    23158047.990
  23737426.925    -6086862.20749  -4717003.25345  23737426.331    23737431.647
  23048946.900    -7567412.78749  -5335687.41746  23048946.447    23048951.885
  23617756.941    -8607298.21749  -6685623.85445  23617756.587    23617760.852
 03  4 15  1 36  0.0000000  0  8G25G14G 3G15G11G23G31G18
  22730208.452   -13264114.37749 -10057634.86346  22730208.335    22730213.790
  20476495.545   -24706883.15449 -19229572.46648  20476495.127    20476497.318
  23628529.556    -5710615.17549  -4437688.60145  23628529.290    23628535.717
  22921403.979   -15026739.52049 -11683548.17446  22921403.373    22921409.462
  23141192.114    -9174915.08949  -7134008.18846  23141191.736    23141195.080
  23748597.872    -6028158.02449  -4671259.78445  23748597.298    23748602.759
  23060038.580    -7509125.88549  -5290269.08446  23060038.128    23060043.608
  23631262.349    -8536327.83249  -6630322.31245  23631261.918    23631266.182
 03  4 15  1 36 30.0000000  0  8G25G14G 3G15G11G23G31G18
  22712989.049   -13354602.81549 -10128145.21846  22712988.855    22712994.298
  20483315.406   -24671044.58649 -19201646.30748  20483314.996    20483317.178
  23644164.138    -5628454.73949  -4373667.53145  23644163.905    23644170.417
  22940623.542   -14925739.94949 -11604847.28346  22940622.987    22940629.135
  23124383.848    -9263242.32049  -7202834.52946  23124383.572    23124386.870
  23759782.705    -5969381.30749  -4625459.80645  23759782.195    23759787.604
  23071198.922    -7450477.80949  -5244569.33746  23071198.461    23071203.990
  23644784.873    -8465266.69649  -6574950.07745  23644784.486    23644788.731
 03  4 15  1 37  0.0000000  0  8G25G14G 3G15G11G23G31G18
  22695809.889   -13444878.90149 -10198490.09546  22695809.778    22695815.238
  20490210.936   -24634808.41049 -19173410.32248  20490210.532    20490212.706
  23659822.899    -5546168.43349  -4309548.40545  23659822.625    23659829.122
  22959891.936   -14824484.21049 -11525946.76446  22959891.298    22959897.567
  23107621.045    -9351331.08649  -7271475.05946  23107620.787    23107624.054
  23770981.707    -5910530.79249  -4579602.32645  23770981.142    23770986.584
  23082427.793    -7391470.52049  -5198589.67846  23082427.318    23082432.756
  23658324.915    -8394113.95849  -6519506.45545  23658324.394    23658328.616
 03  4 15  1 37 30.0000000  0  8G25G14G 3G15G11G23G31G18
  22678671.181   -13534943.00649 -10268669.79946  22678671.093    22678676.476
  20497181.040   -24598180.13349 -19144868.80248  20497180.637    20497182.806
  23675504.259    -5463762.60849  -4245336.13945  23675503.929    23675510.447
  22979208.131   -14722977.41049 -11446850.63746  22979207.425    22979213.670
  23090903.455    -9439182.70549  -7339930.79846  23090903.150    23090906.370
  23782194.075    -5851609.50749  -4533689.67845  23782193.559    23782199.012
  23093723.720    -7332110.24649  -5152334.97046  23093723.218    23093728.621
  23671881.613    -8322872.95649  -6463994.04845  23671881.117    23671885.409
 03  4 15  1 38  0.0000000  0  8G25G14G 3G15G11G23G31G18
  22661574.141   -13624788.70849 -10338679.31546  22661573.959    22661579.268
  20504226.198   -24561157.66049 -19116020.11848  20504225.780    20504227.977
  23691208.588    -5381236.38149  -4181030.03845  23691208.228    23691214.792
  22998572.401   -14621217.80449 -11367557.49346  22998571.690    22998577.908
  23074232.113    -9526790.99549  -7408196.93446  23074231.792    23074235.025
  23793420.759    -5792613.49749  -4487718.82045  23793420.268    23793425.737
  23105086.920    -7272395.92949  -5105804.36746  23105086.472    23105091.918
  23685456.009    -8251539.98849  -6408409.99445  23685455.461    23685459.744
 03  4 15  1 38 30.0000000  0  8G25G14G 3G15G11G23G31G18
  22644518.822   -13714414.58549 -10408517.54146  22644518.626    22644523.903
  20511345.764   -24523744.03149 -19086866.63748  20511345.351    20511347.568
  23706934.876    -5298593.55449  -4116633.08746  23706934.581    23706941.290
  23017984.328   -14519208.05849 -11288069.45246  23017983.601    23017989.781
  23057607.204    -9614154.79049  -7476272.55246  23057606.921    23057610.166
  23804661.417    -5733543.48849  -4441690.31445  23804660.976    23804666.444
  23116516.924    -7212331.47149  -5059000.93046  23116516.429    23116521.889
  23699047.454    -8180116.08949  -6352755.06545  23699046.971    23699051.430
 03  4 15  1 39  0.0000000  0  8G25G14G 3G15G11G23G31G18
  22627505.743   -13803818.32749 -10478182.68846  22627505.574    22627510.852
  20518539.266   -24485941.84649 -19057410.39148  20518538.861    20518541.069
  23722682.705    -5215838.11749  -4052148.36545  23722682.458    23722689.262
  23037443.284   -14416950.70249 -11208388.44246  23037442.580    23037448.731
  23041029.265    -9701272.21349  -7544156.20646  23041029.028    23041032.132
  23815916.029    -5674399.97149  -4395604.49645  23815915.525    23815921.123
  23128012.758    -7151920.41249  -5011927.41646  23128012.300    23128017.830
  23712656.242    -8108602.27849  -6297030.10545  23712655.740    23712660.070
 03  4 15  1 39 30.0000000  0  8G25G14G 3G15G11G23G31G18
  22610535.764   -13892995.04349 -10547670.93246  22610535.712    22610540.924
  20525806.828   -24447750.80849 -19027651.13948  20525806.400    20525808.598
  23738452.073    -5132970.65449  -3987576.38046  23738451.731    23738458.492
  23056949.466   -14314445.51749 -11128514.33246  23056948.687    23056954.922
  23024499.138    -9788138.32549  -7611844.01746  23024498.942    23024501.999
  23827185.351    -5615180.19149  -4349459.28845  23827184.843    23827190.290
  23139574.538    -7091163.26649  -4964584.23346  23139574.116    23139579.582
  23726282.458    -8036996.14649  -6241233.16245  23726281.987    23726286.308
 03  4 15  1 40  0.0000000  0  8G25G14G 3G15G11G23G31G18
  22593609.107   -13981945.62149 -10616982.96946  22593608.900    22593614.053
  20533147.272   -24409176.81649 -18997593.48048  20533146.798    20533149.001
  23754241.209    -5049997.81849  -3922922.27645  23754240.931    23754247.760
  23076501.636   -14211698.18249 -11048451.55746  23076500.900    23076507.082
  23008016.355    -9874755.48249  -7679337.85146  23008016.162    23008019.235
  23838468.356    -5555887.54649  -4303257.26345  23838467.832    23838473.238
  23151200.803    -7030066.67949  -4916976.54546  23151200.377    23151205.828
  23739925.553    -7965301.31649  -6185367.12545  23739925.111    23739929.518
 03  4 15  1 40 30.0000000  0  8G25G14G 3G15G11G23G31G18
  22576726.769   -14070663.04549 -10686113.32246  22576726.438    22576731.568
  20540560.970   -24370217.40749 -18967235.49248  20540560.496    20540562.743
  23770050.675    -4966918.28349  -3858185.03545  23770050.396    23770057.345
  23096100.422   -14108706.15349 -10968198.09346  23096099.653    23096105.875
  22991582.374    -9961116.51549  -7746632.11646  22991582.129    22991585.177
  23849766.080    -5496517.32649  -4256994.81045  23849765.641    23849771.041
  23162892.048    -6968629.00649  -4869103.08346  23162891.643    23162897.117
  23753586.443    -7893513.36249  -6129428.51745  23753585.985    23753590.259
 03  4 15  1 41  0.0000000  0  8G25G14G 3G15G11G23G31G18
  22559888.491   -14159148.32949 -10755062.79346  22559888.235    22559893.256
  20548046.909   -24330878.19349 -18936581.55648  20548046.483    20548048.727
  23785879.305    -4883738.81949  -3793369.93745  23785879.029    23785885.980
  23115744.657   -14005474.96749 -10887758.28046  23115743.873    23115750.160
  22975196.825   -10047223.13449  -7813728.11946  22975196.612    22975199.582
  23861078.142    -5437072.71649  -4210674.38345  23861077.669    23861083.067
  23174647.033    -6906856.83749  -4820968.97746  23174646.576    23174652.007
  23767264.283    -7821636.13549  -6073420.33245  23767263.845    23767268.054
 03  4 15  1 41 30.0000000  0  8G25G14G 3G15G11G23G31G18
  22543095.184   -14247397.07149 -10823827.96446  22543094.980    22543099.942
  20555605.162   -24291159.42749 -18905631.85548  20555604.721    20555606.923
  23801726.539    -4800460.52749  -3728477.81745  23801726.378    23801733.473
  23135434.301   -13902005.06549 -10807132.45346  23135433.563    23135439.902
  22958860.645   -10133070.37149  -7880622.01246  22958860.372    22958863.441
  23872404.459    -5377551.73449  -4164294.43345  23872404.009    23872409.537
  23186465.320    -6844751.22849  -4772575.03846  23186464.904    23186470.282
  23780959.477    -7749667.61449  -6017341.03045  23780958.985    23780963.151
 03  4 15  1 42  0.0000000  0  8G25G14G 3G15G11G23G31G18
  22526347.572   -14335405.55149 -10892405.91146  22526347.424    22526352.334
  20563235.403   -24251062.36649 -18874387.37948  20563234.939    20563237.130
  23817592.313    -4717085.50849  -3663510.36745  23817592.134    23817599.203
  23155169.269   -13798297.56849 -10726321.47446  23155168.510    23155174.811
  22942574.311   -10218655.50549  -7947311.66146  22942574.046    22942577.112
  23883745.723    -5317953.30349  -4117854.15045  23883745.207    23883750.903
  23198346.715    -6782314.31949  -4723922.95346  23198346.279    23198351.645
  23794672.080    -7677607.10449  -5961190.02945  23794671.653    23794675.973
 03  4 15  1 42 30.0000000  0  8G25G14G 3G15G11G23G31G18
  22509646.108   -14423172.37149 -10960795.54746  22509645.917    22509650.755
  20570936.909   -24210590.35349 -18842850.73648  20570936.447    20570938.665
  23833475.825    -4633618.20749  -3598470.98345  23833475.618    23833482.429
  23174948.842   -13694355.83449 -10645327.98146  23174948.057    23174954.342
  22926337.940   -10303977.67049  -8013796.40546  22926337.627    22926340.689
  23895101.488    -5258278.59449  -4071354.43445  23895101.015    23895106.675
  23210290.291    -6719550.37449  -4675016.02646  23210289.850    23210295.228
  23808401.901    -7605456.33649  -5904968.72245  23808401.526    23808405.841
 03  4 15  1 43  0.0000000  0  8G25G14G 3G15G11G23G31G18
  22492991.031   -14510695.37549 -11028995.19946  22492990.817    22492995.596
  20578709.385   -24169745.66549 -18811023.69448  20578708.936    20578711.146
  23849376.134    -4550061.70049  -3533362.08945  23849375.961    23849382.733
  23194772.718   -13590181.76849 -10564153.45646  23194771.864    23194778.093
  22910152.085   -10389034.68649  -8080074.56046  22910151.792    22910154.854
  23906471.888    -5198527.32949  -4024795.05345  23906471.284    23906476.990
  23222295.561    -6656462.43549  -4625856.64846  23222295.120    23222300.465
  23822149.160    -7533215.05149  -5848676.86345  23822148.799    23822152.994
 03  4 15  1 43 30.0000000  0  8G25G14G 3G15G11G23G31G18
  22476383.096   -14597970.17749 -11097001.45046  22476382.904    22476387.687
  20586552.755   -24128528.53349 -18778906.43648  20586552.316    20586554.519
  23865293.112    -4466417.17549  -3468184.59845  23865292.931    23865299.865
  23214640.538   -13485775.79449 -10482798.21346  23214639.680    23214645.976
  22894017.463   -10473822.56749  -8146142.98246  22894017.182    22894020.214
  23917856.959    -5138697.61549  -3978174.54945  23917856.463    23917862.250
  23234362.314    -6593051.74449  -4576445.78046  23234361.856    23234367.195
  23835913.622    -7460881.90249  -5792313.42945  23835913.331    23835917.578
 03  4 15  1 44  0.0000000  0  8G25G14G 3G15G11G23G31G18
  22459822.563   -14684995.62849 -11164813.40246  22459822.449    22459827.208
  20594466.239   -24086942.69249 -18746501.87048  20594465.798    20594467.987
  23881226.038    -4382689.40049  -3402942.25245  23881225.861    23881232.813
  23234551.700   -13381141.58149 -10401265.13646  23234550.965    23234557.250
  22877934.127   -10558340.49549  -8212001.06346  22877933.876    22877936.885
  23929256.910    -5078790.94449  -3931494.09045  23929256.420    23929262.221
  23246489.529    -6529322.92249  -4526787.03246  23246489.070    23246494.492
  23849695.285    -7388458.60149  -5735879.75445  23849695.059    23849699.318
 03  4 15  1 44 30.0000000  0  8G25G14G 3G15G11G23G31G18
  22443310.329   -14771767.51549 -11232427.76946  22443310.240    22443315.018
  20602449.836   -24044988.57449 -18713810.33748  20602449.391    20602451.571
  23897174.547    -4298879.76949  -3337636.11645  23897174.300    23897181.297
  23254506.345   -13276279.59449 -10319554.57846  23254505.580    23254511.819
  22861902.916   -10642585.30549  -8277646.31646  22861902.644    22861905.638
  23940671.890    -5018805.35249  -3884752.12545  23940671.398    23940677.253
  23258677.045    -6465277.28649  -4476881.37946  23258676.583    23258681.989
  23863494.820    -7315943.38149  -5679374.45045  23863494.337    23863498.572
 03  4 15  1 45  0.0000000  0  8G25G14G 3G15G11G23G31G18
  22426846.542   -14858285.23149 -11299844.08846  22426846.387    22426851.156
  20610502.674   -24002670.54749 -18680835.23948  20610502.236    20610504.409
  23913137.749    -4214993.35849  -3272270.14845  23913137.369    23913144.232
  23274503.703   -13171193.85149 -10237669.65946  23274502.797    23274509.033
  22845923.783   -10726555.98649  -8343077.95446  22845923.496    22845926.559
  23952101.625    -4958742.51149  -3837949.97945  23952101.145    23952106.805
  23270923.841    -6400919.92849  -4426732.83346  23270923.365    23270928.795
  23877311.002    -7243338.46749  -5622799.24045  23877310.522    23877314.962
 03  4 15  1 45 30.0000000  0  8G25G14G 3G15G11G23G31G18
  22410432.234   -14944543.07149 -11367057.90747  22410432.061    22410436.763
  20618625.086   -23959987.16849 -18647575.45648  20618624.623    20618626.803
  23929115.464    -4131029.84249  -3206844.11545  23929115.018    23929122.087
  23294543.692   -13065882.89849 -10155609.27046  23294542.903    23294549.081
  22829997.730   -10810247.29049  -8408291.89846  22829997.452    22830000.622
  23963546.586    -4898598.81249  -3791084.82445  23963546.083    23963551.689
  23283230.074    -6336250.39949  -4376341.03946  23283229.596    23283235.059
  23891145.018    -7170640.66149  -5566151.65745  23891144.485    23891148.906
 03  4 15  1 46  0.0000000  0  8G25G14G 3G15G11G23G31G18
  22394067.506   -15030539.83649 -11434068.29047  22394067.370    22394072.040
  20626816.230   -23916942.24449 -18614033.95048  20626815.763    20626817.995
  23945107.084    -4046993.95249  -3141361.68145  23945106.577    23945113.600
  23314625.831   -12960350.54049 -10073376.34546  23314625.071    23314631.362
  22814125.076   -10893658.53549  -8473287.63146  22814124.790    22814127.923
  23975006.822    -4838375.67149  -3744157.77745  23975006.228    23975011.818
  23295594.774    -6271273.54149  -4325709.77546  23295594.346    23295599.817
  23904996.402    -7097851.50449  -5509432.88245  23904995.876    23905000.343
 03  4 15  1 46 30.0000000  0  8G25G14G 3G15G11G23G31G18
  22377752.754   -15116274.07249 -11500874.11147  22377752.604    22377757.258
  20635075.588   -23873538.81349 -18580213.09548  20635075.145    20635077.425
  23961111.658    -3962889.60949  -3075825.91045  23961111.168    23961118.149
  23334749.633   -12854599.84049  -9990973.28346  23334748.800    23334755.164
  22798305.929   -10976788.36249  -8538064.06846  22798305.642    22798308.772
  23986481.891    -4778073.69049  -3697169.28445  23986481.364    23986486.967
  23308017.362    -6205993.08449  -4274841.93446  23308016.836    23308022.322
  23918864.928    -7024971.97949  -5452643.68945  23918864.395    23918868.820
 03  4 15  1 47  0.0000000  0  8G25G14G 3G15G11G23G31G18
  22361488.829   -15201741.27949 -11567471.84947  22361488.694    22361493.330
  20643403.123   -23829777.10449 -18546113.05948  20643402.690    20643404.984
  23977128.860    -3878718.10749  -3010237.81545  23977128.479    23977135.601
  23354914.856   -12748631.13749  -9908400.35045  23354913.989    23354920.411
  22782541.088   -11059632.79549  -8602618.12146  22782540.836    22782543.938
  23997972.286    -4717690.87749  -3650117.80545  23997971.900    23997977.430
  23320497.330    -6140410.35949  -4223738.55446  23320496.826    23320502.354
  23932750.926    -6952000.50449  -5395782.82245  23932750.531    23932754.913
 03  4 15  1 47 30.0000000  0  8G25G14G 3G15G11G23G31G18
  22345276.099   -15286939.36049 -11633859.87547  22345275.948    22345280.590
  20651798.377   -23785659.70549 -18511735.86448  20651797.938    20651800.193
  23993158.442    -3794482.59349  -2944599.82445  23993158.042    23993165.206
  23375121.035   -12642446.80349  -9825659.40245  23375120.221    23375126.672
  22766830.946   -11142189.86149  -8666948.24346  22766830.701    22766833.811
  24009478.328    -4657227.31949  -3603003.41945  24009477.814    24009483.442
  23333034.215    -6074528.74149  -4172402.27946  23333033.727    23333039.190
  23946654.517    -6878937.59849  -5338850.73245  23946654.056    23946658.475
 03  4 15  1 48  0.0000000  0  8G25G14G 3G15G11G23G31G18
  22329115.120   -15371865.46649 -11700035.97547  22329114.985    22329119.608
  20660261.006   -23741188.35449 -18477082.86148  20660260.569    20660262.803
  24009199.777    -3710185.70249  -2878913.99445  24009199.377    24009206.419
  23395367.872   -12536048.53549  -9742751.73545  23395367.165    23395373.685
  22751175.959   -11224457.07849  -8731052.50946  22751175.749    22751178.874
  24020999.522    -4596682.54749  -3555825.72545  24020999.078    24021004.789
  23345627.491    -6008350.90949  -4120835.17746  23345627.029    23345632.469
  23960575.446    -6805782.93949  -5281847.15545  23960574.959    23960579.449
 03  4 15  1 48 30.0000000  0  8G25G14G 3G15G11G23G31G18
  22313005.958   -15456519.56349 -11766000.10347  22313005.768    22313010.372
  20668790.156   -23696367.36049 -18442157.40648  20668789.735    20668791.928
  24025251.608    -3625832.76549  -2813184.49445  24025251.265    24025258.337
  23415654.691   -12429440.64349  -9659680.72445  23415654.000    23415660.541
  22735576.227   -11306434.32049  -8794930.82446  22735575.978    22735579.077
  24032535.900    -4536058.51149  -3508586.27245  24032535.472    24032541.145
  23358276.146    -5941882.26949  -4069041.47346  23358275.653    23358281.074
  23974513.332    -6732538.82649  -5224773.84045  23974512.910    23974517.282
 03  4 15  1 49  0.0000000  0  8G25G14G 3G15G11G23G31G18
  22296949.714   -15540895.59449 -11831747.56147  22296949.493    22296954.063
  20677386.023   -23651195.87549 -18406958.84448  20677385.564    20677387.801
  24041314.200    -3541423.72349  -2747411.30845  24041313.815    24041320.903
  23435981.675   -12322622.06249  -9576445.56746  23435980.958    23435987.570
  22720032.648   -11388116.19249  -8858578.97546  22720032.399    22720035.391
  24044088.268    -4475351.59649  -3461282.24045  24044087.764    24044093.257
  23370980.103    -5875122.60449  -4017021.00946  23370979.627    23370985.064
  23988468.821    -6659202.09349  -5167628.37345  23988468.379    23988472.886
 03  4 15  1 49 30.0000000  0  8G25G14G 3G15G11G23G31G18
  22280946.739   -15624991.75949 -11897276.94147  22280946.462    22280951.029
  20686047.971   -23605676.79549 -18371489.42948  20686047.537    20686049.781
  24057386.606    -3456962.69349  -2681597.59145  24057386.268    24057393.425
  23456348.108   -12215595.89549  -9493048.63146  23456347.468    23456354.145
  22704545.486   -11469501.77049  -8921996.27746  22704545.270    22704548.079
  24055656.058    -4414562.59349  -3413914.22845  24055655.566    24055661.103
  23383738.617    -5808075.95949  -3964776.92846  23383738.135    23383743.635
  24002441.616    -6585773.91649  -5110411.65545  24002441.216    24002445.875
 03  4 15  1 50  0.0000000  0  8G25G14G 3G15G11G23G31G18
  22264997.503   -15708805.10249 -11962585.93747  22264997.203    22265001.815
  20694775.809   -23559811.71349 -18335750.39948  20694775.355    20694777.609
  24073468.612    -3372451.79049  -2615745.01945  24073468.285    24073475.444
  23476753.787   -12108363.75249  -9409491.19545  23476753.092    23476759.879
  22689115.317   -11550587.68349  -8985180.04646  22689115.063    22689117.858
  24067239.657    -4353690.72349  -3366481.62545  24067239.197    24067244.611
  23396551.358    -5740744.73249  -3912311.11446  23396550.965    23396556.381
  24016432.014    -6512253.74949  -5053123.25745  24016431.700    24016436.355
 03  4 15  1 50 30.0000000  0  8G25G14G 3G15G11G23G31G18
  22249102.426   -15792333.19549 -12027672.66647  22249102.217    22249106.851
  20703568.983   -23513603.10949 -18299743.69248  20703568.548    20703570.785
  24089559.464    -3287893.94349  -2549855.87945  24089559.125    24089566.347
  23497198.186   -12000928.07849  -9325775.18245  23497197.429    23497204.270
  22673742.547   -11631371.74149  -9048128.60446  22673742.295    22673745.125
  24078839.128    -4292735.80849  -3318984.31445  24078838.657    24078844.133
  23409417.695    -5673132.06449  -3859625.97846  23409417.238    23409422.739
  24030440.049    -6438641.76549  -4995763.30145  24030439.613    24030444.303
 03  4 15  1 51  0.0000000  0  8G25G14G 3G15G11G23G31G18
  22233261.946   -15875574.63349 -12092536.03047  22233261.793    22233266.422
  20712427.037   -23467053.78949 -18263471.49248  20712426.595    20712428.847
  24105658.353    -3203293.18549  -2483933.29445  24105658.170    24105665.416
  23517680.855   -11893291.63549  -9241902.71445  23517680.039    23517686.853
  22658427.462   -11711852.98949  -9110841.20446  22658427.177    22658430.070
  24090453.999    -4231698.55049  -3271422.85745  24090453.625    24090459.215
  23422336.755    -5605242.01649  -3806724.69646  23422336.294    23422341.958
  24044465.285    -6364939.03249  -4938332.63745  24044464.754    24044469.500
 03  4 15  1 51 30.0000000  0  8G25G14G 3G15G11G23G31G18
  22217476.845   -15958525.32449 -12157172.83747  22217476.741    22217481.322
  20721349.804   -23420164.38149 -18226934.28548  20721349.348    20721351.606
  24121765.368    -3118651.25649  -2417978.62145  24121765.079    24121772.357
  23538201.736   -11785454.94149  -9157874.20045  23538200.762    23538207.551
  22643170.625   -11792027.52549  -9173314.80946  22643170.409    22643173.350
  24102085.073    -4170577.15249  -3223795.82945  24102084.633    24102090.162
  23435308.341    -5537076.14749  -3753608.48946  23435307.873    23435313.546
  24058507.917    -6291144.07849  -4880830.12445  24058507.441    24058512.308
 03  4 15  1 52  0.0000000  0  8G25G14G 3G15G11G23G31G18
  22201747.440   -16041183.47849 -12221581.70447  22201747.350    22201751.898
  20730336.678   -23372937.91349 -18190134.43848  20730336.237    20730338.484
  24137879.531    -3033971.89949  -2351994.77745  24137879.124    24137886.327
  23558759.931   -11677421.10249  -9073692.06245  23558759.051    23558765.791
  22627972.498   -11871894.18649  -9235548.53446  22627972.261    22627975.096
  24113732.141    -4109372.28549  -3176103.76845  24113731.660    24113737.166
  23448331.641    -5468638.39149  -3700280.41946  23448331.158    23448336.889
  24072567.998    -6217257.86349  -4823256.49845  24072567.578    24072572.271
 03  4 15  1 52 30.0000000  0  8G25G14G 3G15G11G23G31G18
  22186074.362   -16123545.85149 -12285760.07947  22186074.221    22186078.774
  20739387.448   -23325375.88749 -18153073.11348  20739387.011    20739389.227
  24154000.202    -2949257.24849  -2285983.42945  24153999.804    24154006.994
  23579355.384   -11569191.53249  -8989357.39945  23579354.543    23579361.254
  22612833.536   -11951449.75949  -9297539.84546  22612833.311    22612836.130
  24125395.214    -4048082.97049  -3128345.87745  24125394.767    24125400.247
  23461406.356    -5399931.13449  -3646742.35846  23461405.836    23461411.551
  24086645.498    -6143279.63849  -4765611.15845  24086645.153    24086649.888
 03  4 15  1 53  0.0000000  0  8G25G14G 3G15G11G23G31G18
  22170458.062   -16205609.67949 -12349705.83647  22170457.951    22170462.453
  20748501.723   -23277480.17949 -18115751.77748  20748501.252    20748503.451
  24170127.151    -2864509.83549  -2219946.56145  24170126.719    24170133.875
  23599987.794   -11460768.30849  -8904871.84345  23599986.979    23599993.565
  22597754.311   -12030691.74249  -9359286.79546  22597754.081    22597756.871
  24137074.246    -3986708.52049  -3080521.66945  24137073.732    24137079.528
  23474531.608    -5330957.14149  -3592996.46246  23474531.101    23474536.846
  24100740.711    -6069209.06349  -4707893.88845  24100740.335    24100745.167
 03  4 15  1 53 30.0000000  0  8G25G14G 3G15G11G23G31G18
  22154898.921   -16287373.28149 -12413417.65347  22154898.793    22154903.274
  20757678.903   -23229253.47149 -18078172.52548  20757678.458    20757680.677
  24186259.629    -2779733.29149  -2153886.98745  24186259.251    24186266.436
  23620656.504   -11352153.79849  -8820237.24845  23620655.690    23620662.358
  22582734.999   -12109618.53349  -9420788.13646  22582734.748    22582737.585
  24148769.738    -3925249.44149  -3032631.53145  24148769.174    24148774.980
  23487707.008    -5261720.14649  -3539045.61046  23487706.639    23487712.345
  24114853.322    -5995047.21249  -4650105.45745  24114852.995    24114857.769
 03  4 15  1 54  0.0000000  0  8G25G14G 3G15G11G23G31G18
  22139397.436   -16368833.66749 -12476893.19547  22139397.344    22139401.775
  20766918.759   -23180697.64649 -18040336.81348  20766918.322    20766920.519
  24202397.039    -2694930.43249  -2087806.90645  24202396.739    24202403.881
  23641361.157   -11243349.88649  -8735455.05245  23641360.436    23641367.130
  22567776.141   -12188227.64949  -9482041.94246  22567775.924    22567778.744
  24160481.175    -3863705.17549  -2984674.97845  24160480.547    24160486.552
  23500932.006    -5192222.86449  -3484891.92846  23500931.554    23500937.343
  24128983.335    -5920793.68549  -4592245.62245  24128982.972    24128987.820
 03  4 15  1 54 30.0000000  0  8G25G14G 3G15G11G23G31G18
  22123954.146   -16449988.31049 -12540130.50547  22123954.065    22123958.460
  20776220.878   -23131814.69549 -18002246.19648  20776220.462    20776222.618
  24218538.960    -2610104.22049  -2021708.64045  24218538.704    24218545.840
  23662101.575   -11134358.55049  -8650526.79645  23662100.839    23662107.575
  22552878.253   -12266516.73349  -9543046.38346  22552877.978    22552880.812
  24172208.986    -3802075.32949  -2936651.76345  24172208.399    24172214.258
  23514205.869    -5122468.31549  -3430537.77046  23514205.454    23514211.171
  24143130.777    -5846448.56549  -4534314.40745  24143130.419    24143135.091
 03  4 15  1 55  0.0000000  0  8G25G14G 3G15G11G23G31G18
  22108569.749   -16530833.36649 -12603126.58447  22108569.676    22108574.047
  20785585.094   -23082605.64749 -17963901.48248  20785584.649    20785586.833
  24234685.224    -2525256.22149  -1955593.39045  24234684.906    24234692.015
  23682877.365   -11025180.91049  -8565453.39745  23682876.656    23682883.537
  22538041.860   -12344482.26149  -9603798.69846  22538041.579    22538044.423
  24183953.266    -3740358.37949  -2888560.65545  24183952.728    24183958.591
  23527528.243    -5052458.41349  -3375984.64946  23527527.822    23527533.577
  24157295.951    -5772010.77049  -4476310.96845  24157295.462    24157300.153
 03  4 15  1 55 30.0000000  0  8G25G14G 3G15G11G23G31G18
  22093244.585   -16611367.26249 -12665880.20247  22093244.505    22093248.882
  20795010.767   -23033073.33249 -17925304.86948  20795010.324    20795012.515
  24250834.859    -2440389.85949  -1889463.82345  24250834.587    24250841.654
  23703688.174   -10915819.74349  -8480236.97745  23703687.478    23703694.238
  22523267.362   -12422122.68049  -9664297.69446  22523267.057    22523269.833
  24195714.005    -3678554.76549  -2840402.02545  24195713.516    24195719.501
  23540898.624    -4982196.92249  -3321235.46746  23540898.155    23540903.960
  24171478.400    -5697481.00649  -4418235.84545  24171477.995    24171482.740
 03  4 15  1 56  0.0000000  0  8G25G14G 3G15G11G23G31G18
  22077979.080   -16691588.14249 -12728389.90847  22077978.923    22077983.282
  20804497.439   -22983220.32849 -17886458.37248  20804497.006    20804499.229
  24266987.412    -2355508.82449  -1823322.85845  24266986.954    24266993.996
  23724533.234   -10806277.95249  -8394879.81545  23724532.637    23724539.439
  22508554.966   -12499436.34349  -9724542.07546  22508554.692    22508557.418
  24207491.454    -3616664.67949  -2792176.02645  24207490.903    24207496.953
  23554316.191    -4911687.48049  -3266293.10046  23554315.736    23554321.544
  24185678.424    -5622859.62849  -4360089.36045  24185678.023    24185682.770
 03  4 15  1 56 30.0000000  0  8G25G14G 3G15G11G23G31G18
  22062773.710   -16771492.89549 -12790653.27847  22062773.520    22062777.858
  20814044.866   -22933048.35849 -17847363.32748  20814044.417    20814046.655
  24283142.116    -2270615.49349  -1757172.29445  24283141.691    24283148.757
  23745412.556   -10696556.82249  -8309382.94445  23745411.913    23745418.622
  22493905.440   -12576420.12749  -9784529.40346  22493905.144    22493907.818
  24219285.296    -3554687.48849  -2743882.14545  24219284.638    24219290.974
  23567780.400    -4840932.65049  -3211159.51146  23567780.025    23567785.804
  24199896.025    -5548146.41549  -4301871.31845  24199895.631    24199900.319
 03  4 15  1 57  0.0000000  0  8G25G14G 3G15G11G23G31G18
  22047629.082   -16851077.95649 -12852667.54047  22047628.924    22047633.266
  20823652.682   -22882558.88549 -17808020.88548  20823652.235    20823654.450
  24299298.588    -2185711.97749  -1691013.78445  24299298.346    24299305.428
  23766325.827   -10586657.96949  -8223747.54645  23766325.115    23766331.829
  22479319.048   -12653071.79249  -9844257.93246  22479318.772    22479321.433
  24231095.810    -3492622.27749  -2695519.67645  24231095.272    24231101.542
  23581290.815    -4769934.86349  -3155836.61446  23581290.382    23581296.207
  24214131.065    -5473340.73249  -4243581.21545  24214130.766    24214135.570
 03  4 15  1 57 30.0000000  0  8G25G14G 3G15G11G23G31G18
  22032545.637   -16930341.97949 -12914431.64247  22032545.436    22032549.741
  20833320.425   -22831754.69949 -17768433.20748  20833319.973    20833322.183
  24315456.559    -2100801.93849  -1624850.20245  24315456.240    24315463.474
  23787272.153   -10476584.40049  -8137976.01845  23787271.485    23787278.291
  22464796.250   -12729389.61749  -9903726.32546  22464795.965    22464798.643
  24242923.051    -3430469.56949  -2647089.02945  24242922.574    24242928.792
  23594846.784    -4698698.06149  -3100327.47346  23594846.298    23594852.146
  24228383.491    -5398443.59449  -4185219.83345  24228383.119    24228388.146
 03  4 15  1 58  0.0000000  0  8G25G14G 3G15G11G23G31G18
  22017523.811   -17009281.98749 -12975943.26147  22017523.616    22017527.846
  20843047.695   -22780637.31349 -17728601.47648  20843047.239    20843049.491
  24331615.253    -2015887.55449  -1558683.22945  24331614.904    24331622.143
  23808251.526   -10366337.59049  -8052069.50645  23808250.771    23808257.620
  22450337.516   -12805370.41349  -9962932.09046  22450337.225    22450339.965
  24254767.166    -3368228.26249  -2598589.34145  24254766.744    24254772.977
  23608447.734    -4627224.49349  -3044633.82246  23608447.282    23608453.170
  24242653.515    -5323454.06249  -4126786.48445  24242653.169    24242658.246
 03  4 15  1 58 30.0000000  0  8G25G14G 3G15G11G23G31G18
  22002564.328   -17087894.14249 -13037199.41147  22002564.202    22002568.369
  20852834.430   -22729207.44849 -17688526.25448  20852834.004    20852836.275
  24347774.428    -1930970.47149  -1492514.15445  24347774.137    24347781.277
  23829263.659   -10255918.19349  -7966028.49845  23829262.975    23829269.900
  22435943.542   -12881010.88749 -10021872.67446  22435943.270    22435946.066
  24266628.522    -3305897.04849  -2550019.59645  24266628.042    24266634.330
  23622093.621    -4555515.94849  -2988757.09346  23622093.145    23622098.913
  24256941.467    -5248370.92149  -4068280.17345  24256941.169    24256945.959
 03  4 15  1 59  0.0000000  0  8G25G14G 3G15G11G23G31G18
  21987667.212   -17166178.73649 -13098200.32647  21987667.085    21987671.204
  20862679.701   -22677470.12649 -17648211.46048  20862679.268    20862681.572
  24363933.360    -1846056.29349  -1426347.37145  24363932.800    24363939.913
  23850307.775   -10145331.30049  -7879856.99245  23850307.017    23850313.961
  22421614.235   -12956311.62349 -10080548.53146  22421613.990    22421616.726
  24278506.554    -3243478.19249  -2501381.56945  24278506.040    24278512.226
  23635782.923    -4483578.56249  -2932702.02946  23635782.429    23635788.211
  24271246.604    -5173197.15749  -4009703.25445  24271246.197    24271251.111
 03  4 15  1 59 30.0000000  0  8G25G14G 3G15G11G23G31G18
  21972833.099   -17244132.21349 -13158943.21747  21972832.985    21972837.105
  20872583.383   -22625426.03349 -17607657.62048  20872582.961    20872585.241
  24380091.184    -1761146.18749  -1360183.71645  24380090.745    24380097.896
  23871383.662   -10034577.49149  -7793555.41245  23871382.885    23871389.863
  22407350.331   -13031268.84849 -10138956.70846  22407350.054    22407352.809
  24290401.569    -3180969.80249  -2452673.75345  24290400.956    24290407.088
  23649515.402    -4411413.66349  -2876469.70046  23649514.882    23649520.803
  24285569.195    -5097931.34149  -3951054.63045  24285568.751    24285573.705
 03  4 15  2  0  0.0000000  0  8G25G14G 3G15G11G23G31G18
  21958062.388   -17321751.99549 -13219426.10547  21958062.370    21958066.459
  20882545.092   -22573077.06349 -17566866.21348  20882544.635    20882546.914
  24396247.619    -1676243.34949  -1294025.74245  24396247.310    24396254.282
  23892490.791    -9923658.96449  -7707125.48045  23892490.083    23892497.008
  22393152.336   -13105879.70049 -10197094.99146  22393152.073    22393154.805
  24302313.500    -3118371.62649  -2403895.99045  24302312.899    24302319.103
  23663290.399    -4339024.51049  -2820062.59546  23663289.945    23663296.010
  24299909.425    -5022573.47649  -3892334.25345  24299908.983    24299913.909
 03  4 15  2  0 30.0000000  0  8G25G14G 3G15G11G23G31G18
  21943356.048   -17399034.36149 -13279646.06547  21943355.991    21943360.036
  20892564.595   -22520424.32949 -17525838.10448  20892564.149    20892566.379
  24412402.539    -1591349.50949  -1227874.79045  24412402.195    24412409.134
  23913629.039    -9812576.95249  -7620568.14345  23913628.310    23913635.140
  22379020.705   -13180141.76049 -10254961.49146  22379020.417    22379023.141
  24314242.929    -3055682.39849  -2355047.28245  24314242.341    24314248.500
  23677108.042    -4266412.82949  -2763482.12146  23677107.669    23677113.577
  24314267.307    -4947122.44049  -3833541.28445  24314266.864    24314271.788
 03  4 15  2  1  0.0000000  0  8G25G14G 3G15G11G23G31G18
  21928714.112   -17475978.54249 -13339602.50747  21928713.967    21928718.008
  20902641.152   -22467471.67749 -17484576.29948  20902640.683    20902642.944
  24428554.911    -1506468.86549  -1161734.11545  24428554.644    24428561.457
  23934797.765    -9701334.88349  -7533886.11045  23934797.055    23934803.879
  22364955.552   -13254054.23949 -10312555.58346  22364955.274    22364958.037
  24326189.337    -2992903.40649  -2306128.64045  24326188.790    24326194.964
  23690967.140    -4193583.61749  -2706732.12146  23690966.685    23690972.591
  24328642.564    -4871580.14649  -3774677.21245  24328642.091    24328646.839
 03  4 15  2  1 30.0000000  0  8G25G14G 3G15G11G23G31G18
  21914136.976   -17552581.63749 -13399293.15547  21914136.789    21914140.877
  20912774.492   -22414220.38349 -17443081.78648  20912774.048    20912776.338
  24444704.056    -1421603.86349  -1095605.60445  24444703.844    24444710.885
  23955996.441    -9589934.60049  -7447080.78145  23955995.829    23956002.821
  22350957.552   -13327613.96549 -10369874.80846  22350957.274    22350959.989
  24338152.969    -2930033.76349  -2257139.32745  24338152.448    24338158.773
  23704866.978    -4120539.26749  -2649814.49646  23704866.543    23704872.434
  24343035.328    -4795945.89049  -3715741.45845  24343034.808    24343039.718
 03  4 15  2  2  0.0000000  0  8G25G14G 3G15G11G23G31G18
  21899625.319   -17628840.21449 -13458715.35647  21899625.215    21899629.289
  20922964.470   -22360671.84049 -17401355.64448  20922964.013    20922966.262
  24460850.032    -1336756.07349  -1029490.51945  24460849.916    24460856.820
  23977225.058    -9478377.13749  -7360152.97645  23977224.493    23977231.677
  22337027.273   -13400818.03649 -10426916.88946  22337026.988    22337029.671
  24350134.393    -2867072.18249  -2208078.41145  24350133.774    24350139.893
  23718807.371    -4047281.95949  -2592730.92046  23718806.971    23718812.940
  24357445.593    -4720218.71249  -3656733.31845  24357445.142    24357450.118
 03  4 15  2  2 30.0000000  0  8G25G14G 3G15G11G23G31G18
  21885179.798   -17704751.73949 -13517867.12547  21885179.695    21885183.723
  20933210.593   -22306828.14149 -17359399.51848  20933210.160    20933212.353
  24476992.223    -1251928.61349   -963391.29045  24476992.091    24476999.099
  23998483.207    -9366664.61849  -7273104.35145  23998482.666    23998489.906
  22323165.175   -13473663.99949 -10483679.94246  22323164.885    22323167.513
  24362133.096    -2804018.49749  -2158945.70445  24362132.566    24362138.602
  23732787.817    -3973814.65249  -2535483.71146  23732787.373    23732793.481
  24371873.732    -4644398.67449  -3597652.82045  24371873.303    24371878.152
 03  4 15  2  3  0.0000000  0  8G25G14G 3G15G11G23G31G18
  21870800.602   -17780314.94849 -13576747.47747  21870800.450    21870804.413
  20943512.273   -22252692.53749 -17317215.92848  20943511.809    20943513.978
  24493129.769    -1167125.53749   -897311.05345  24493129.539    24493136.726
  24019770.309    -9254800.56449  -7185937.64045  24019769.739    24019777.017
  22309371.280   -13546151.01749 -10540163.28146  22309370.974    22309373.652
  24374149.243    -2740873.63549  -2109741.95245  24374148.638    24374154.740
  23746807.426    -3900141.93249  -2478076.43745  23746806.978    23746812.881
  24386319.471    -4568487.07149  -3538500.95645  24386319.023    24386323.866
 03  4 15  2  3 30.0000000  0  8G25G14G 3G15G11G23G31G18
  21856488.340   -17855526.41349 -13635353.75247  21856488.129    21856492.082
  20953869.359   -22198265.66049 -17274805.37748  20953868.918    20953871.023
  24509262.503    -1082348.20249   -831250.89845  24509262.340    24509269.603
  24041086.100    -9142785.84349  -7098653.51545  24041085.553    24041092.821
  22295646.400   -13618275.52849 -10596364.15947  22295646.115    22295648.758
  24386182.951    -2677635.88549  -2060465.82645  24386182.317    24386188.392
  23760865.627    -3826265.40049  -2420510.36045  23760865.196    23760871.146
  24400782.349    -4492482.71549  -3479276.80845  24400781.990    24400787.031
 03  4 15  2  4  0.0000000  0  8G25G14G 3G15G11G23G31G18
  21842243.326   -17930384.21749 -13693684.44747  21842243.110    21842247.079
  20964281.379   -22143550.04549 -17232169.83348  20964280.920    20964283.036
  24525389.754     -997599.55949   -765213.10145  24525389.556    24525396.812
  24062430.087    -9030622.98349  -7011253.96345  24062429.457    24062436.813
  22281990.877   -13690035.58849 -10652281.05347  22281990.619    22281993.273
  24398234.370    -2614305.39149  -2011117.40945  24398233.764    24398239.827
  23774961.998    -3752188.38949  -2362788.06845  23774961.587    23774967.583
  24415263.141    -4416386.07249  -3419980.77445  24415262.785    24415267.791
 03  4 15  2  4 30.0000000  0  8G25G14G 3G15G11G23G31G18
  21828066.053   -18004885.68149 -13751737.47947  21828065.875    21828069.880
  20974747.882   -22088548.02049 -17189311.11548  20974747.435    20974749.544
  24541510.949     -912882.58149   -699199.97645  24541510.775    24541518.008
  24083801.666    -8918314.31349  -6923740.78945  24083801.061    24083808.413
  22268405.097   -13761429.05149 -10707912.27847  22268404.854    22268407.510
  24410303.593    -2550881.75549  -1961696.44045  24410303.069    24410308.895
  23789095.940    -3677914.13549  -2304912.05845  23789095.552    23789101.688
  24429761.652    -4340197.08749  -3360612.77145  24429761.278    24429766.106
 03  4 15  2  5  0.0000000  0  8G25G14G 3G15G11G23G31G18
  21813957.015   -18079028.86949 -13809511.32547  21813956.832    21813960.845
  20985268.458   -22033261.94049 -17146231.05648  20985268.011    20985270.129
  24557625.480     -828200.46049   -633213.98645  24557625.250    24557632.646
  24105200.599    -8805862.15149  -6836115.81345  24105200.107    24105207.493
  22254889.479   -13832454.01049 -10763256.36147  22254889.221    22254891.905
  24422390.509    -2487365.22349  -1912203.07945  24422389.961    24422395.918
  23803266.818    -3603446.13449  -2246885.09245  23803266.402    23803272.479
  24444277.550    -4263916.07449  -3301173.05745  24444277.059    24444281.811
 03  4 15  2  5 30.0000000  0  8G25G14G 3G15G11G23G31G18
  21799916.909   -18152809.72749 -13867002.83247  21799916.742    21799920.772
  20995843.087   -21977691.78949 -17102929.64848  20995842.650    20995844.794
  24573733.240     -743554.03549   -567255.83845  24573733.029    24573740.574
  24126626.930    -8693266.60949  -6748379.12345  24126626.454    24126633.811
  22241444.828   -13903106.32949 -10818310.08547  22241444.538    22241447.105
  24434495.386    -2423753.40749  -1862635.45445  24434494.881    24434500.732
  23817474.413    -3528785.45749  -2188707.98545  23817473.976    23817479.914
  24458811.241    -4187541.21849  -3241660.21345  24458810.768    24458815.539
 03  4 15  2  6  0.0000000  0  8G25G14G 3G15G11G23G31G18
  21785945.441   -18226229.85749 -13924213.25347  21785945.264    21785949.291
  21006470.679   -21921843.51449 -17059411.52248  21006470.253    21006472.397
  24589832.861     -658949.75749   -501330.50945  24589832.653    24589840.241
  24148079.353    -8580533.88049  -6660535.50845  24148078.843    24148086.092
  22228070.702   -13973387.68249 -10873074.74347  22228070.447    22228073.024
  24446617.617    -2360050.09049  -1812996.54145  24446617.049    24446623.065
  23831717.109    -3453939.08949  -2130386.18745  23831716.706    23831722.668
  24473361.972    -4111076.34249  -3182077.21145  24473361.674    24473366.355
 03  4 15  2  6 30.0000000  0  8G25G14G 3G15G11G23G31G18
  21772043.914   -18299282.44349 -13981137.27047  21772043.788    21772047.790
  21017151.569   -21865715.22049 -17015675.18948  21017151.119    21017153.286
  24605924.696     -574386.09149   -435436.81145  24605924.502    24605932.249
  24169558.218    -8467662.00349  -6572583.47545  24169557.673    24169564.976
  22214768.430   -14043291.62449 -10927545.30247  22214768.146    22214770.724
  24458758.290    -2296250.63249  -1763282.70645  24458757.864    24458763.747
  23845995.433    -3378905.85549  -2071918.77345  23845995.051    23846001.156
  24487930.713    -4034517.44749  -3122420.96645  24487930.289    24487935.042
 03  4 15  2  7  0.0000000  0  8G25G14G 3G15G11G23G31G18
  21758212.484   -18371966.72149 -14037774.30647  21758212.343    21758216.363
  21027885.005   -21809310.44449 -16971723.42148  21027884.579    21027886.757
  24622008.251     -489867.49049   -369578.27645  24622008.009    24622015.725
  24191063.001    -8354654.42149  -6484525.71245  24191062.346    24191069.675
  22201538.012   -14112817.73649 -10981721.45847  22201537.755    22201540.299
  24470917.050    -2232356.32349  -1713494.95545  24470916.626    24470922.481
  23860308.536    -3303690.33549  -2013309.32045  23860308.132    23860314.205
  24502517.024    -3957866.13749  -3062692.70545  24502516.571    24502521.281
 03  4 15  2  7 30.0000000  0  8G25G14G 3G15G11G23G31G18
  21744451.477   -18444280.91349 -14094122.96747  21744451.340    21744455.396
  21038670.651   -21752631.67349 -16927558.14748  21038670.232    21038672.377
  24638082.442     -405397.29449   -303757.44945  24638082.240    24638089.910
  24212593.048    -8241514.03949  -6396364.46945  24212592.371    24212599.735
  22188379.784   -14181964.33449 -11035601.88547  22188379.525    22188382.070
  24483093.623    -2168367.53049  -1663633.59045  24483093.238    24483099.221
  23874655.672    -3228296.39449  -1954560.84645  23874655.190    23874661.231
  24517120.589    -3881123.37249  -3002893.18645  24517120.242    24517125.010
 03  4 15  2  8  0.0000000  0  8G25G14G 3G15G11G23G31G18
  21730761.562   -18516221.59949 -14150180.57947  21730761.427    21730765.455
  21049508.206   -21695679.83149 -16883180.08448  21049507.779    21049509.929
  24654147.270     -320976.85349   -237975.41045  24654147.088    24654154.669
  24234148.037    -8128241.72549  -6308100.42545  24234147.438    24234154.735
  22175294.525   -14250727.67549 -11089183.66847  22175294.303    22175296.837
  24495288.547    -2104282.66549  -1613697.35645  24495288.064    24495294.308
  23889036.294    -3152725.68549  -1895674.61745  23889035.814    23889041.896
  24531741.978    -3804287.33649  -2943020.97545  24531741.579    24531746.484
 03  4 15  2  8 30.0000000  0  8G25G14G 3G15G11G23G31G18
  21717143.130   -18587787.17249 -14205945.88947  21717142.935    21717146.908
  21060397.205   -21638457.55749 -16838591.30147  21060396.791    21060398.955
  24670201.961     -236609.52949   -172234.73745  24670201.804    24670209.206
  24255727.553    -8014840.29249  -6219735.75145  24255727.069    24255734.410
  22162282.474   -14319106.46949 -11142465.80047  22162282.231    22162284.726
  24507501.764    -2040102.04949  -1563686.51945  24507501.271    24507507.608
  23903449.805    -3076982.05049  -1836653.65045  23903449.346    23903455.493
  24546380.970    -3727358.81949  -2883076.67245  24546380.575    24546385.511
 03  4 15  2  9  0.0000000  0  8G25G14G 3G15G11G23G31G18
  21703596.428   -18658975.26449 -14261417.06647  21703596.273    21703600.178
  21071337.282   -21580966.90149 -16793793.39147  21071336.897    21071339.087
  24686245.962     -152298.00449   -106537.54245  24686245.677    24686253.390
  24277331.455    -7901311.88049  -6131272.14745  24277330.864    24277338.241
  22149343.972   -14387098.66349 -11195446.68347  22149343.718    22149346.219
  24519732.996    -1975825.32049  -1513600.77045  24519732.553    24519739.015
  23917895.674    -3001068.47049  -1777500.24345  23917895.186    23917901.370
  24561037.462    -3650338.00449  -2823060.46745  24561037.087    24561042.187
 03  4 15  2  9 30.0000000  0  8G25G14G 3G15G11G23G31G18
  21690122.190   -18729782.85649 -14316591.75147  21690122.021    21690125.911
  21082328.264   -21523208.90949 -16748787.16347  21082327.848    21082330.085
  24702279.029      -68044.08649    -40885.25545  24702278.738    24702286.631
  24298959.365    -7787657.67049  -6042710.52245  24298958.750    24298966.120
  22136479.649   -14454700.82849 -11248123.65347  22136479.394    22136481.894
  24531983.114    -1911451.11149  -1463439.07945  24531982.532    24531988.979
  23932373.682    -2924986.88549  -1718215.94645  23932373.193    23932379.336
  24575711.924    -3573223.92949  -2762971.60845  24575711.459    24575716.521
 03  4 15  2 10  0.0000000  0  8G25G14G 3G15G11G23G31G18
  21676720.318   -18800209.81949 -14371469.83947  21676720.149    21676724.031
  21093369.276   -21465187.97249 -16703576.04747  21093368.865    21093371.126
  24718300.164       16147.30949     24718.31845  24718299.817    24718307.756
  24320610.260    -7673882.24849  -5954054.43945  24320609.642    24320616.934
  22123689.474   -14521913.12049 -11300496.82247  22123689.229    22123691.771
  24544251.265    -1846981.59149  -1413203.10745  24544250.649    24544257.133
  23946882.546    -2848742.88549  -1658805.07045  23946881.959    23946888.034
  24590403.448    -3496018.94149  -2702811.90945  24590403.108    24590407.847
 03  4 15  2 10 30.0000000  0  8G25G14G 3G15G11G23G31G18
  21663391.671   -18870252.05749 -14426048.14247  21663391.526    21663395.374
  21104460.336   -21406903.97549 -16658159.93447  21104459.906    21104462.160
  24734309.240      100275.63649     90272.77945  24734308.934    24734316.861
  24342284.161    -7559985.64549  -5865303.94245  24342283.537    24342290.887
  22110974.275   -14588731.39149 -11352562.95447  22110974.031    22110976.602
  24556538.139    -1782414.35049  -1362891.02045  24556537.432    24556543.993
  23961421.925    -2772337.42749  -1599268.40245  23961421.513    23961427.535
  24605112.843    -3418721.34749  -2642580.03445  24605112.475    24605117.282
 03  4 15  2 11  0.0000000  0  7G25G14G 3G15G11G23G31
  21650136.159   -18939910.20249 -14480327.14547  21650135.993    21650139.817
  21115600.496   -21348362.14149 -16612542.90847  21115600.064    21115602.321
  24750305.290      184335.22749    155773.65545  24750305.020    24750312.883
  24363980.108    -7445973.06249  -5776463.03845  24363979.467    24363986.762
  22098333.964   -14655156.54749 -11404322.77047  22098333.742    22098336.276
  24568842.916    -1717752.23849  -1312504.98245  24568842.364    24568848.792
  23975990.972    -2695776.60349  -1539610.66145  23975990.587    23975996.680
 03  4 15  2 11 30.0000000  0  7G25G14G 3G15G11G23G31
  21636954.688   -19009179.09049 -14534302.82547  21636954.508    21636958.318
  21126789.768   -21289561.90249 -16566724.53447  21126789.338    21126791.620
  24766288.181      268325.69449    221220.67245  24766288.016    24766295.894
  24385698.148    -7331844.24649  -5687531.56545  24385697.392    24385704.856
  22085769.341   -14721183.96349 -11455772.65847  22085769.080    22085771.620
  24581166.359    -1652992.55649  -1262042.92945  24581165.863    24581172.346
  23990589.612    -2619060.94549  -1479832.28145  23990589.191    23990595.270
 03  4 15  2 12  0.0000000  0  7G25G14G 3G15G11G23G31
  21623847.946   -19078054.91149 -14587972.22047  21623847.792    21623851.607
  21138028.280   -21230503.20449 -16520704.76547  21138027.858    21138030.115
  24782257.855      352246.57049    286613.46945  24782257.640    24782265.737
  24407438.374    -7217599.39449  -5598509.69745  24407437.622    24407444.945
  22073281.212   -14786809.33849 -11506909.27147  22073280.965    22073283.509
  24593508.734    -1588132.98149  -1211503.03445  24593508.217    24593514.550
  24005217.414    -2542191.50349  -1419934.05545  24005217.013    24005222.980
 03  4 15  2 12 30.0000000  0  7G25G14G 3G15G11G23G31
  21610816.137   -19146536.82149 -14641334.67647  21610816.033    21610819.839
  21149315.306   -21171189.60549 -16474486.37647  21149314.874    21149317.157
  24798213.567      436093.99849    351949.02745  24798213.274    24798221.444
  24429199.791    -7103242.14149  -5509400.22645  24429199.156    24429206.496
  22060869.675   -14852032.03449 -11557732.10547  22060869.418    22060872.041
  24605870.182    -1523174.49149  -1160886.05745  24605869.611    24605875.784
  24019873.679    -2465172.72949  -1359919.45945  24019873.288    24019879.207
 03  4 15  2 13  0.0000000  0  7G25G14G 3G15G11G23G31
  21597859.784   -19214623.05749 -14694388.80847  21597859.633    21597863.404
  21160650.301   -21111623.76949 -16428071.43547  21160649.887    21160652.152
  24814154.852      519864.56949    417224.68945  24814154.409    24814162.418
  24450982.057    -6988775.29849  -5420205.35245  24450981.398    24450988.858
  22048535.096   -14916850.58149 -11608240.02547  22048534.837    22048537.436
  24618250.053    -1458117.48849  -1110192.31645  24618249.550    24618255.861
  24034557.441    -2388008.33249  -1299791.39745  24034557.073    24034563.150
 03  4 15  2 13 30.0000000  0  6G25G14G15G11G23G31
  21584979.956   -19282306.59049 -14747129.15447  21584979.810    21584983.579
  21172033.853   -21051802.65349 -16381457.57747  21172033.446    21172035.704
  24472785.959    -6874195.68949  -5330922.60245  24472785.262    24472792.565
  22036278.860   -14981257.53949 -11658427.24047  22036278.632    22036281.079
  24630649.748    -1392956.59849  -1059417.62645  24630649.196    24630655.541
  24049269.592    -2310696.25049  -1239548.26145  24049269.157    24049275.090
 03  4 15  2 14  0.0000000  0  6G25G14G15G11G23G31
  21572176.141   -19349590.35949 -14799558.00047  21572176.073    21572179.821
  21183464.659   -20991733.41049 -16334650.36747  21183464.263    21183466.526
  24494610.049    -6759510.65349  -5241557.74145  24494609.165    24494616.705
  22024100.307   -15045256.11349 -11708296.21847  22024100.073    22024102.479
  24643068.215    -1327696.77549  -1008565.86545  24643067.699    24643074.112
  24064008.261    -2233244.76149  -1179196.48645  24064007.764    24064013.664
 03  4 15  2 14 30.0000000  0  6G25G14G15G11G23G31
  21559448.957   -19416471.93849 -14851673.44247  21559448.884    21559452.608
  21194942.325   -20931417.86149 -16287651.23547  21194941.917    21194944.249
  24516453.717    -6644722.39049  -5152112.41045  24516452.624    24516460.260
  22011999.859   -15108844.14349 -11757845.29547  22011999.630    22012002.085
  24655505.819    -1262337.63349   -957636.69045  24655505.189    24655511.686
  24078772.695    -2155656.93749  -1118738.48545  24078772.153    24078778.191
 03  4 15  2 15  0.0000000  0  6G25G14G15G11G23G31
  21546798.436   -19482950.99649 -14903475.22747  21546798.282    21546801.998
  21206466.146   -20870859.78149 -16240463.12147  21206465.719    21206468.052
  24538315.922    -6529834.77449  -5062589.66645  24538315.068    24538322.602
  21999977.732   -15172020.94449 -11807073.93647  21999977.483    21999979.876
  24667961.804    -1196880.44549   -906631.12745  24667961.206    24667967.615
  24093562.234    -2077937.32849  -1058177.80345  24093561.705    24093567.836
 03  4 15  2 15 30.0000000  0  6G25G14G15G11G23G31
  21534224.931   -19549024.91549 -14954961.32547  21534224.787    21534228.461
  21218035.886   -20810060.41449 -16193086.99447  21218035.470    21218037.805
  24560197.031    -6414849.13449  -4972990.55545  24560196.110    24560203.575
  21988034.277   -15234784.19249 -11855980.32747  21988033.991    21988036.349
  24680436.694    -1131324.32949   -855548.46545  24680436.090    24680442.565
  24108376.441    -2000088.25149   -997516.22245  24108375.909    24108382.149
 03  4 15  2 16  0.0000000  0  6G25G14G15G11G23G31
  21521729.313   -19614689.62049 -15006128.55647  21521729.127    21521732.792
  21229651.425   -20749020.17849 -16145523.17347  21229650.999    21229653.345
  24582096.469    -6299766.18849  -4883315.59145  24582095.649    24582103.225
  21976170.169   -15297130.16449 -11904561.56447  21976169.914    21976172.255
  24692930.853    -1065667.41949   -804387.31145  24692930.190    24692936.664
  24123215.047    -1922111.29049   -936754.98545  24123214.436    24123220.754
 03  4 15  2 16 30.0000000  0  6G25G14G15G11G23G31
  21509311.907   -19679943.10549 -15056975.36047  21509311.734    21509315.391
  21241312.445   -20687740.79649 -16097773.01047  21241312.066    21241314.444
  24604014.035    -6184588.11549  -4793566.51845  24604013.576    24604021.029
  21964385.932   -15359056.42749 -11952815.75347  21964385.662    21964388.114
  24705444.251     -999909.27149   -753147.24145  24705443.687    24705450.129
  24138077.269    -1844009.35849   -875896.39345  24138076.777    24138083.054
 03  4 15  2 17  0.0000000  0  6G25G14G15G11G23G31
  21496972.950   -19744784.10449 -15107500.74047  21496972.835    21496976.470
  21253018.451   -20626225.36949 -16049838.91747  21253018.082    21253020.472
  24625949.244    -6069317.91949  -4703745.64545  24625948.770    24625956.251
  21952681.829   -15420561.78649 -12000741.97447  21952681.575    21952684.001
  24717976.879     -934050.49749   -701828.74645  24717976.341    24717982.782
  24152962.703    -1765786.29749   -814943.40245  24152962.272    24152968.483
 03  4 15  2 17 30.0000000  0  6G25G14G15G11G23G31
  21484713.013   -19809210.42249 -15157702.99547  21484712.853    21484716.478
  21264769.051   -20564475.59449 -16001722.21447  21264768.657    21264771.065
  24647901.896    -5953957.61449  -4613854.56945  24647901.194    24647908.824
  21941058.227   -15481644.14249 -12048338.57647  21941057.962    21941060.378
  24730528.744     -868090.68049   -650431.54145  24730528.281    24730534.575
  24167870.671    -1687444.97649   -753898.26945  24167870.241    24167876.470
 03  4 15  2 18  0.0000000  0  6G25G14G15G11G23G31
  21472532.420   -19873219.42049 -15207580.06347  21472532.265    21472535.892
  21276563.921   -20502493.18049 -15953424.23147  21276563.522    21276565.917
  24669871.320    -5838509.27949  -4523894.90145  24669870.424    24669877.855
  21929515.489   -15542301.27449 -12095603.82647  21929515.203    21929517.681
  24743099.783     -802029.31949   -598955.18245  24743099.359    24743105.665
  24182800.550    -1608988.24649   -692763.19645  24182800.076    24182806.372
 03  4 15  2 18 30.0000000  0  4G25G14G11G31
  21460431.178   -19936811.59449 -15257132.33947  21460431.033    21460434.631
  21288402.293   -20440282.25049 -15904948.18047  21288401.876    21288404.271
  21918053.762   -15602533.16149 -12142537.73047  21918053.507    21918055.936
  24197751.356    -1530421.13049   -631542.08445  24197750.885    24197757.313
 03  4 15  2 19  0.0000000  0  4G25G14G11G31
  21448409.438   -19999985.65149 -15306358.80947  21448409.335    21448412.914
  21300283.576   -20377845.82749 -15856296.41647  21300283.141    21300285.531
  21906673.141   -15662338.72249 -12189139.43347  21906672.886    21906675.278
  24212722.561    -1451747.78949   -570238.23545  24212722.061    24212728.290
 03  4 15  2 19 30.0000000  0  4G25G14G11G31
  21436468.988   -20062732.91849 -15355252.72247  21436468.872    21436472.452
  21312208.684   -20315178.93149 -15807465.07047  21312208.285    21312210.656
  21895375.308   -15721708.89349 -12235401.86047  21895375.057    21895377.464
  24227714.477    -1372964.37649   -508848.59645  24227714.063    24227720.189
 03  4 15  2 20  0.0000000  0  4G25G14G11G31
  21424610.347   -20125050.44849 -15403811.76747  21424610.181    21424613.748
  21324177.390   -20252282.83249 -15758455.12447  21324176.989    21324179.355
  21884160.896   -15780641.22049 -12281323.11447  21884160.631    21884162.967
  24242726.906    -1294073.17549   -447374.99045  24242726.450    24242732.768
 03  4 15  2 20 30.0000000  0  4G25G14G11G31
  21412832.773   -20186941.82549 -15452038.76147  21412832.634    21412836.160
  21336188.336   -20189165.23349 -15709272.58247  21336187.914    21336190.222
  21873028.993   -15839139.46349 -12326906.12847  21873028.747    21873031.052
  24257758.334    -1215082.91049   -385824.17545  24257757.894    24257764.217
 03  4 15  2 21  0.0000000  0  4G25G14G11G31
  21401137.413   -20248401.03449 -15499928.99547  21401137.301    21401140.813
  21348241.914   -20125823.51549 -15659915.39947  21348241.470    21348243.775
  21861980.969   -15897197.05349 -12372145.77247  21861980.716    21861983.020
  24272808.950    -1135992.26049   -324195.13945  24272808.414    24272814.611
 03  4 15  2 21 30.0000000  0  4G25G14G11G31
  21389523.555   -20309431.89449 -15547485.45447  21389523.451    21389526.977
  21360336.500   -20062265.86149 -15610389.95247  21360336.077    21360338.391
  21851016.027   -15954818.15849 -12417045.30347  21851015.777    21851018.055
  24287876.784    -1056810.22849   -262494.89545  24287876.263    24287882.496
 03  4 15  2 22  0.0000000  0  4G25G14G11G31
  21377992.643   -20370027.07149 -15594702.42247  21377992.524    21377996.053
  21372472.911   -19998488.46549 -15560693.28847  21372472.495    21372474.831
  21840135.582   -16011994.99649 -12461598.65147  21840135.329    21840137.631
  24302962.547     -977534.08349   -200721.31845  24302962.089    24302968.241
 03  4 15  2 22 30.0000000  0  4G25G14G11G31
  21366544.688   -20430186.29649 -15641579.69347  21366544.559    21366548.049
  21384650.485   -19934494.95949 -15510828.22847  21384650.065    21384652.442
  21829339.740   -16068727.37349 -12505805.66547  21829339.483    21829341.835
  24318065.312     -898168.69649   -138878.20045  24318064.824    24318070.948
 03  4 15  2 23  0.0000000  0  4G25G14G11G31
  21355179.860   -20489908.69149 -15688116.57047  21355179.717    21355183.180
  21396868.561   -19870288.57549 -15460797.29047  21396868.136    21396870.494
  21818628.527   -16125014.87149 -12549666.02847  21818628.278    21818630.611
  24333184.244     -818718.24449    -76968.77545  24333183.717    24333189.937
 03  4 15  2 23 30.0000000  0  4G25G14G11G31
  21343898.643   -20549191.42449 -15734310.84647  21343898.537    21343901.987
  21409126.923   -19805870.17149 -15410601.14247  21409126.490    21409128.898
  21808002.557   -16180854.50849 -12593177.40747  21808002.324    21808004.608
  24348318.950     -739184.86949    -14994.74345  24348318.420    24348324.757
 03  4 15  2 24  0.0000000  0  4G25G14G11G31
  21332701.268   -20608033.96049 -15780162.12047  21332701.158    21332704.567
  21421425.003   -19741243.34549 -15360242.58747  21421424.586    21421427.015
  21797461.918   -16236245.79349 -12636339.42747  21797461.681    21797463.982
  24363468.668     -659573.11349     47040.34445  24363468.122    24363474.349
 03  4 15  2 24 30.0000000  0  4G25G14G11G31
  21321588.243   -20666433.12549 -15825667.90547  21321588.142    21321591.493
  21433762.658   -19676408.57949 -15309722.00147  21433762.215    21433764.661
  21787007.239   -16291185.48149 -12679149.56047  21787006.979    21787009.244
  24378632.821     -579884.61049    109135.26745  24378632.304    24378638.555
 03  4 15  2 25  0.0000000  0  4G25G14G11G31
  21310560.500   -20724384.66549 -15870824.89047  21310560.326    21310563.636
  21446139.939   -19611365.38749 -15259039.00547  21446139.527    21446142.002
  21776639.323   -16345669.22149 -12721604.40447  21776639.086    21776641.290
  24393811.578     -500119.73749    171289.70545  24393811.006    24393817.312
 03  4 15  2 25 30.0000000  0  4G25G14G11G31
  21299617.564   -20781889.86749 -15915634.08547  21299617.402    21299620.712
  21458556.041   -19546118.21949 -15208197.06747  21458555.641    21458558.101
  21766357.953   -16399697.80149 -12763704.57047  21766357.724    21766359.973
  24409003.775     -420284.27149    233499.13045  24409003.248    24409009.506
 03  4 15  2 26  0.0000000  0  4G25G14G11G31
  21288759.837   -20838947.03549 -15960094.16647  21288759.728    21288763.018
  21471010.516   -19480669.66749 -15157198.20247  21471010.119    21471012.549
  21756163.488   -16453270.16749 -12805449.25647  21756163.252    21756165.454
  24424208.913     -340381.90149    295760.67845  24424208.263    24424214.491
 03  4 15  2 26 30.0000000  0  4G25G14G11G31
  21277987.990   -20895553.43249 -16004202.98247  21277987.836    21277991.143
  21483503.165   -19415020.64949 -15106043.12547  21483502.740    21483505.130
  21746056.433   -16506383.16449 -12846835.98947  21746056.179    21746058.350
  24439426.002     -260414.57149    358072.85545  24439425.448    24439431.916
 03  4 15  2 27  0.0000000  0  4G25G14G11G31
  21267302.291   -20951706.86349 -16047958.84247  21267302.143    21267305.433
  21496033.707   -19349172.33549 -15054732.74947  21496033.276    21496035.640
  21736037.200   -16559034.59549 -12887863.05847  21736036.945    21736039.101
  24454655.243     -180384.51249    420433.88145  24454654.794    24454661.079
 03  4 15  2 27 30.0000000  0  4G25G14G11G31
  21256702.889   -21007407.00649 -16091361.49647  21256702.731    21256705.984
  21508601.497   -19283128.34449 -15003269.89747  21508601.065    21508603.398
  21726105.861   -16611224.42449 -12928530.44847  21726105.570    21726107.673
  24469895.535     -100296.56949    482840.03245  24469895.015    24469901.324
 03  4 15  2 28  0.0000000  0  4G25G14G11G31
  21246190.490   -21062649.88649 -16134407.84347  21246190.319    21246193.560
  21521206.614   -19216888.27649 -14951654.25447  21521206.159    21521208.451
  21716263.155   -16662947.86649 -12968834.40547  21716262.874    21716264.995
  24485146.636      -20151.18249    545290.94545  24485146.275    24485152.469
 03  4 15  2 28 30.0000000  0  4G25G14G11G31
  21235764.964   -21117435.87449 -16177098.17547  21235764.826    21235768.065
  21533848.301   -19150455.70549 -14899888.60447  21533847.837    21533850.105
  21706509.187   -16714205.25649 -13008775.21147  21706508.907    21706510.998
  24500407.848       60046.63949    607782.69945  24500407.391    24500413.628
 03  4 15  2 29  0.0000000  0  4G25G14G11G31
  21225427.078   -21171761.53749 -16219429.80647  21225426.943    21225430.175
  21546526.463   -19083831.51249 -14847973.64147  21546526.010    21546528.270
  21696844.468   -16764993.81149 -13048350.69147  21696844.207    21696846.229
  24515678.599      140295.17249    670313.96845  24515678.029    24515684.410
 03  4 15  2 29 30.0000000  0  4G25G14G11G31
  21215177.161   -21225625.15349 -16261401.40047  21215177.009    21215180.212
  21559240.788   -19017017.32149 -14795910.62647  21559240.339    21559242.564
  21687269.302   -16815311.53949 -13087559.29747  21687269.036    21687271.033
  24530958.264      220591.73649    732882.66745  24530957.851    24530964.371
 03  4 15  2 30  0.0000000  0  4G25G14G11G31
  21205015.290   -21279025.74449 -16303012.20947  21205015.154    21205018.342
  21571990.744   -18950015.66249 -14743701.54047  21571990.312    21571992.519
  21677783.979   -16865157.28649 -13126400.12547  21677783.723    21677785.703
  24546246.705      300932.56249    795485.86045  24546246.357    24546252.928
 03  4 15  2 30 30.0000000  0  4G25G14G11G31
  21194942.066   -21331960.66649 -16344260.14347  21194941.937    21194945.118
  21584776.260   -18882827.17749 -14691346.86947  21584775.860    21584778.056
  21668389.006   -16914528.25249 -13164870.97947  21668388.747    21668390.725
  24561543.208      381315.80549    858122.10245  24561542.797    24561549.480
 03  4 15  2 31  0.0000000  0  5G20G25G14G11G31
  24718643.096    -4806759.02559  -3733092.21845  24718642.340    24718647.408
  21184955.529   -21384439.92449 -16385153.01947  21184955.431    21184958.626
  21597594.807   -18815465.16649 -14638856.98547  21597594.406    21597596.628
  21659082.500   -16963434.32749 -13202979.57847  21659082.239    21659084.230
  24576845.015      461726.97549    920780.11245  24576844.703    24576851.205
 03  4 15  2 31 30.0000000  0  5G20G25G14G11G31
  24702341.685    -4892423.60549  -3799843.74645  24702340.865    24702345.929
  21175058.496   -21436448.93449 -16425679.47147  21175058.402    21175061.611
  21610448.435   -18747918.98949 -14586223.60147  21610448.028    21610450.250
  21649867.202   -17011860.88049 -13240714.52447  21649866.919    21649868.933
  24592154.112      542175.82049    983467.44545  24592153.816    24592160.044
 03  4 15  2 32  0.0000000  0  5G20G25G14G11G31
  24686035.282    -4978114.43349  -3866615.73045  24686034.574    24686039.369
  21165251.782   -21487983.29349 -16465836.05347  21165251.661    21165254.903
  21623337.363   -18680187.58249 -14533445.88347  21623336.925    21623339.114
  21640743.923   -17059803.62049 -13278072.48547  21640743.665    21640745.666
  24607470.132      622662.33849   1046184.17645  24607469.843    24607476.229
 03  4 15  2 32 30.0000000  0  5G20G25G14G11G31
  24669722.703    -5063837.35049  -3933412.70945  24669721.916    24669726.631
  21155534.569   -21539047.29049 -16505626.12247  21155534.468    21155537.734
  21636259.911   -18612278.95749 -14480530.07947  21636259.469    21636261.650
  21631711.968   -17107266.82649 -13315056.77647  21631711.727    21631713.721
  24622791.801      703177.48149   1108923.16345  24622791.316    24622797.866
 03  4 15  2 33  0.0000000  0  5G20G25G14G11G31
  24653404.836    -5149587.84749  -4000231.17745  24653404.074    24653408.696
  21145907.853   -21589635.66549 -16545045.57647  21145907.753    21145911.007
  21649216.679   -18544190.69849 -14427474.29647  21649216.230    21649218.375
  21622772.381   -17154244.53849 -13351662.75147  21622772.127    21622774.179
  24638119.026      783722.23349   1171685.24245  24638118.546    24638125.084
 03  4 15  2 33 30.0000000  0  5G20G25G14G11G31
  24637081.272    -5235367.89249  -4067072.68145  24637080.535    24637085.079
  21136371.535   -21639749.19649 -16584095.02747  21136371.445    21136374.670
  21662206.800   -18475927.09849 -14374281.88647  21662206.367    21662208.491
  21613925.001   -17200737.67749 -13387891.14447  21613924.731    21613926.823
  24653450.798      864291.33349   1234466.29645  24653450.291    24653456.906
 03  4 15  2 34  0.0000000  0  5G20G25G14G11G31
  24620752.563    -5321175.88649  -4133935.95145  24620751.769    24620756.373
  21126926.079   -21689385.42449 -16622772.54447  21126925.944    21126929.144
  21675230.143   -18407488.91149 -14320953.43547  21675229.711    21675231.828
  21605170.328   -17246743.71949 -13423739.97847  21605170.042    21605172.138
  24668786.919      944882.91149   1297264.87145  24668786.395    24668793.096
 03  4 15  2 34 30.0000000  0  5G20G25G14G11G31
  24604418.120    -5407013.41149  -4200822.23145  24604417.377    24604421.871
  21117571.324   -21738544.58649 -16661078.33047  21117571.190    21117574.408
  21688286.004   -18338879.96049 -14267491.92247  21688285.563    21688287.717
  21596508.186   -17292263.19449 -13459209.66847  21596507.919    21596510.038
  24684126.426     1025491.96749   1360077.05445  24684125.915    24684132.488
 03  4 15  2 35  0.0000000  0  5G20G25G14G11G31
  24588078.364    -5492878.75849  -4267730.20645  24588077.638    24588082.252
  21108307.834   -21787224.40549 -16699010.61048  21108307.733    21108310.877
  21701374.166   -18270101.04349 -14213897.96947  21701373.722    21701375.942
  21587939.267   -17337293.11649 -13494297.89747  21587939.001    21587941.097
  24699468.907     1106116.74349   1422901.48645  24699468.434    24699474.839
 03  4 15  2 35 30.0000000  0  5G20G25G14G11G31
  24571733.244    -5578772.37049  -4334660.19545  24571732.464    24571737.199
  21099135.834   -21835423.59149 -16736568.36548  21099135.682    21099138.803
  21714494.189   -18201154.56049 -14160173.44447  21714493.759    21714496.055
  21579463.608   -17381832.68549 -13529004.02147  21579463.368    21579465.463
  24714813.667     1186753.55349   1485735.31245  24714813.171    24714819.498
 03  4 15  2 36  0.0000000  0  5G20G25G14G11G31
  24555383.202    -5664692.36449  -4401610.75545  24555382.412    24555387.018
  21090055.665   -21883139.63949 -16773749.65348  21090055.568    21090058.683
  21727645.986   -18132041.22249 -14106318.90447  21727645.584    21727647.898
  21571081.809   -17425879.19049 -13563325.94247  21571081.571    21571083.671
  24730160.354     1267400.70249   1548577.17545  24730159.747    24730166.180
 03  4 15  2 36 30.0000000  0  5G20G25G14G11G31
  24539028.007    -5750638.47949  -4468581.65145  24539027.314    24539031.899
  21081067.729   -21930371.34949 -16810553.52048  21081067.621    21081070.744
  21740829.260   -18062762.77749 -14052335.70647  21740828.838    21740831.172
  21562794.167   -17469430.99349 -13597262.39147  21562793.918    21562795.976
  24745508.440     1348055.17449   1611424.75345  24745507.811    24745514.364
 03  4 15  2 37  0.0000000  0  5G20G25G14G11G31
  24522667.863    -5836611.12549  -4535573.23745  24522667.151    24522671.716
  21072171.973   -21977118.84649 -16846980.08648  21072171.849    21072174.946
  21754043.365   -17993322.14549 -13998226.13447  21754042.950    21754045.325
  21554600.697   -17512487.96249 -13630813.25747  21554600.460    21554602.500
  24760857.194     1428712.79249   1674274.77345  24760856.635    24760863.233
 03  4 15  2 37 30.0000000  0  5G20G25G14G11G31
  24506303.087    -5922608.49049  -4602584.08945  24506302.330    24506306.736
  21063368.972   -22023378.78949 -16883026.74248  21063368.833    21063371.931
  21767288.264   -17923719.64449 -13943990.42747  21767287.870    21767290.218
  21546501.997   -17555046.93849 -13663976.08047  21546501.747    21546503.784
  24776206.138     1509372.39549   1737126.34245  24776205.560    24776212.261
 03  4 15  2 38  0.0000000  0  5G20G25G14G11G31
  24489933.633    -6008630.61449  -4669614.21245  24489932.843    24489937.150
  21054658.799   -22069150.66949 -16918693.08948  21054658.673    21054661.760
  21780563.547   -17853957.80849 -13889630.56447  21780563.120    21780565.462
  21538498.193   -17597107.10749 -13696750.21347  21538497.928    21538500.016
  24791554.781     1590030.29849   1799976.61045  24791554.243    24791560.985
 03  4 15  2 38 30.0000000  0  5G20G25G14G11G31
  24473559.279    -6094677.55949  -4736663.68445  24473558.538    24473562.870
  21046041.720   -22114433.60749 -16953978.44048  21046041.589    21046044.653
  21793868.709   -17784038.95549 -13835148.35347  21793868.289    21793870.586
  21530589.402   -17638667.71249 -13729135.08347  21530589.153    21530591.240
  24806902.671     1670682.97049   1862822.77845  24806902.109    24806908.762
 03  4 15  2 39  0.0000000  0  5G20G25G14G11G31
  24457180.479    -6180748.81549  -4803732.08745  24457179.717    24457183.748
  21037517.978   -22159225.96649 -16988881.51748  21037517.849    21037520.904
  21807203.483   -17713964.68449 -13780545.03347  21807203.037    21807205.273
  21522776.085   -17679727.03249 -13761129.34047  21522775.833    21522777.910
  24822248.647     1751327.67749   1925662.75245  24822248.086    24822255.019
 03  4 15  2 39 30.0000000  0  5G20G25G14G11G31
  24440797.480    -6266841.42549  -4870817.14145  24440796.789    24440800.881
  21029088.273   -22203524.39249 -17023399.71648  21029088.135    21029091.158
  21820567.836   -17643734.47149 -13725820.19447  21820567.376    21820569.615
  21515058.872   -17720281.16849 -13792729.94247  21515058.625    21515060.707
  24837593.256     1831963.84449   1988496.08345  24837592.603    24837599.668
 03  4 15  2 40  0.0000000  0  5G20G25G14G11G31
  24424410.281    -6352957.09849  -4937920.15245  24424409.593    24424413.516
  21020752.427   -22247329.51249 -17057533.52248  21020752.266    21020755.219
  21833961.096   -17573352.21349 -13670976.88647  21833960.664    21833962.947
  21507437.579   -17760331.31849 -13823937.84247  21507437.351    21507439.366
  24852935.328     1912586.34749   2051318.73845  24852934.661    24852941.679
 03  4 15  2 40 30.0000000  0  5G20G25G14G11G31
  24408018.711    -6439094.57049  -5005040.16045  24408018.081    24408022.044
  21012510.763   -22290639.61349 -17091281.59748  21012510.602    21012513.530
  21847383.077   -17502819.10649 -13616016.02647  21847382.642    21847384.955
  21499912.509   -17799875.45449 -13854751.43447  21499912.290    21499914.308
  24868274.246     1993192.86849   2114128.97045  24868273.602    24868280.577
 03  4 15  2 41  0.0000000  0  5G20G25G14G11G31
  24391623.274    -6525252.93949  -5072176.44745  24391622.592    24391626.621
  21004363.548   -22333453.18549 -17124642.77948  21004363.392    21004366.321
  21860833.587   -17432136.26749 -13560938.50247  21860833.130    21860835.495
  21492484.269   -17838911.08549 -13885168.79947  21492484.063    21492486.065
  24883609.643     2073781.19349   2176925.00445  24883609.186    24883616.422
 03  4 15  2 41 30.0000000  0  5G20G25G14G11G31
  24375223.880    -6611431.55649  -5139328.52045  24375223.225    24375227.483
  20996311.035   -22375768.97249 -17157616.08448  20996310.916    20996313.860
  21874312.153   -17361305.62449 -13505745.79947  21874311.729    21874314.103
  21485153.023   -17877437.21949 -13915189.15147  21485152.778    21485154.790
  24898941.206     2154348.37849   2239704.53245  24898940.802    24898947.817
 03  4 15  2 42  0.0000000  0  5G20G25G14G11G31
  24358820.667    -6697630.69349  -5206496.60145  24358819.940    24358824.265
  20988353.407   -22417586.61649 -17190201.22048  20988353.256    20988356.207
  21887818.525   -17290329.51649 -13450439.75247  21887818.089    21887820.446
  21477918.703   -17915453.65449 -13944812.33447  21477918.466    21477920.502
  24914267.999     2234890.61749   2302464.65545  24914267.542    24914274.365
 03  4 15  2 42 30.0000000  0  4G20G25G14G11
  24342413.827    -6783848.61449  -5273679.30345  24342413.168    24342417.348
  20980490.992   -22458903.74649 -17222396.34648  20980490.858    20980493.764
  21901352.444   -17219208.62149 -13395020.87647  21901351.970    21901354.259
  21470781.967   -17952957.54749 -13974036.13647  21470781.717    21470783.730
 03  4 15  2 43  0.0000000  0  4G20G25G14G11
  24326003.626    -6870084.17849  -5340875.76845  24326003.078    24326007.101
  20972724.215   -22499718.44449 -17254199.96548  20972724.045    20972726.931
  21914913.669   -17147944.23449 -13339490.20347  21914913.191    21914915.454
  21463743.039   -17989947.27049 -14002859.28847  21463742.780    21463744.819
 03  4 15  2 43 30.0000000  0  4G20G25G14G11
  24309590.062    -6956338.34249  -5408086.72145  24309589.551    24309593.394
  20965052.969   -22540030.98549 -17285612.29248  20965052.836    20965055.683
  21928501.547   -17076539.56249 -13283850.21347  21928501.045    21928503.307
  21456802.001   -18026422.67049 -14031281.65447  21456801.755    21456803.785
 03  4 15  2 44  0.0000000  0  4G20G25G14G11
  24293173.045    -7042610.65649  -5475311.82445  24293172.467    24293176.143
  20957477.391   -22579840.67249 -17316632.78248  20957477.251    20957480.102
  21942115.776   -17004996.23849 -13228102.17947  21942115.280    21942117.581
  21449958.991   -18062383.02349 -14059302.69047  21449958.723    21449960.736
 03  4 15  2 44 30.0000000  0  4G20G25G14G11
  24276752.707    -7128899.06849  -5542549.47045  24276752.164    24276755.993
  20949998.035   -22619144.64149 -17347259.20348  20949997.928    20950000.778
  21955756.379   -16933314.30649 -13172246.13647  21955755.936    21955758.224
  21443214.406   -18097825.60349 -14086920.26547  21443214.172    21443216.190
 03  4 15  2 45  0.0000000  0  4G20G25G14G11
  24260329.694    -7215202.32649  -5609798.69245  24260329.173    24260333.040
  20942615.213   -22657941.43949 -17377490.41648  20942615.069    20942617.936
  21969423.152   -16861495.17049 -13116283.19147  21969422.685    21969424.984
  21436568.881   -18132748.24149 -14114132.69647  21436568.642    21436570.604
 03  4 15  2 45 30.0000000  0  4G20G25G14G11
  24243903.965    -7301520.72349  -5677059.72145  24243903.266    24243907.117
  20935328.839   -22696231.02249 -17407326.40548  20935328.744    20935331.611
  21983115.447   -16789541.55449 -13060215.44547  21983114.966    21983117.309
  21430022.278   -18167150.63949 -14140939.74547  21430022.025    21430024.005
 03  4 15  2 46  0.0000000  0  4G20G25G14G11
  24227474.942    -7387855.05149  -5744333.17045  24227474.269    24227478.300
  20928139.070   -22734013.58549 -17436767.31948  20928138.941    20928141.789
  21996832.680   -16717456.38049 -13004045.19347  21996832.250    21996834.695
  21423574.622   -18201033.33749 -14167341.83347  21423574.368    21423576.369
 03  4 15  2 46 30.0000000  0  4G20G25G14G11
  24211043.664    -7474201.70349  -5811616.22145  24211043.054    24211047.124
  20921046.456   -22771285.55849 -17465810.37248  20921046.291    20921049.124
  22010575.376   -16645238.14149 -12947771.24447  22010574.956    22010577.429
  21417226.669   -18234391.86149 -14193335.47447  21417226.413    21417228.410
 03  4 15  2 47  0.0000000  0  4G20G25G14G11
  24194610.082    -7560560.71349  -5878908.89745  24194609.391    24194613.449
  20914051.091   -22808046.40149 -17494455.14548  20914050.904    20914053.704
  22024342.901   -16572889.45549 -12891395.66247  22024342.485    22024344.881
  21410978.564   -18267225.94749 -14218920.46447  21410978.308    21410980.236
 03  4 15  2 47 30.0000000  0  4G20G25G14G11
  24178173.941    -7646932.26949  -5946211.34545  24178173.239    24178177.415
  20907152.992   -22844295.57249 -17522701.20448  20907152.849    20907155.638
  22038134.907   -16500412.57349 -12834920.17647  22038134.457    22038136.773
  21404830.273   -18299535.29649 -14244096.56747  21404830.014    21404831.938
 03  4 15  2 48  0.0000000  0  4G20G25G14G11
  24161735.749    -7733315.01449  -6013522.50245  24161735.069    24161739.172
  20900352.597   -22880031.83049 -17550547.58848  20900352.467    20900355.222
  22051950.964   -16427808.67649 -12778345.71547  22051950.522    22051952.812
  21398782.188   -18331318.08449 -14268862.35847  21398781.922    21398783.858
 03  4 15  2 48 30.0000000  0  4G20G25G14G11
  24145295.492    -7819708.95049  -6080842.38245  24145294.870    24145298.915
  20893649.880   -22915254.80349 -17577994.01348  20893649.717    20893652.453
  22065790.754   -16355079.91049 -12721673.95347  22065790.311    22065792.652
  21392834.400   -18362573.90949 -14293217.53147  21392834.139    21392836.063
 03  4 15  2 49  0.0000000  0  4G20G25G14G11
  24128853.204    -7906113.03749  -6148170.18345  24128852.603    24128856.745
  20887045.055   -22949963.16549 -17605039.44748  20887044.900    20887047.651
  22079654.038   -16282227.56749 -12664905.89947  22079653.624    22079656.001
  21386987.170   -18393301.36949 -14317160.99547  21386986.907    21386988.816
 03  4 15  2 49 30.0000000  0  4G20G25G14G11
  24112409.374    -7992525.71349  -6215504.67645  24112408.757    24112412.837
  20880538.546   -22984154.78049 -17631682.22048  20880538.414    20880541.161
  22093540.767   -16209252.22449 -12608041.99647  22093540.350    22093542.691
  21381240.904   -18423498.15449 -14340690.94647  21381240.655    21381242.564
 03  4 15  2 50  0.0000000  0  4G20G25G14G11
  24095963.981    -8078946.74749  -6282845.66745  24095963.352    24095967.335
  20874130.366   -23017829.80649 -17657922.46448  20874130.221    20874132.969
  22107450.518   -16136156.08249 -12551083.97247  22107450.130    22107452.424
  21375595.699   -18453163.94349 -14363807.13747  21375595.443    21375597.348
 03  4 15  2 50 30.0000000  0  4G20G25G14G11
  24079516.938    -8165376.37449  -6350193.35445  24079516.308    24079520.300
  20867820.426   -23050988.43149 -17683760.31648  20867820.299    20867822.993
  22121382.720   -16062941.81749 -12494033.89547  22121382.326    22121384.671
  21370051.560   -18482298.72749 -14386509.56347  21370051.311    21370053.128
 03  4 15  2 51  0.0000000  0  4G20G25G14G11
  24063068.711    -8251811.80149  -6417545.58945  24063068.035    24063072.135
  20861609.423   -23083627.44049 -17709193.26948  20861609.288    20861611.943
  22135337.511   -15989608.76949 -12436891.25947  22135337.115    22135339.458
  21364609.059   -18510899.21449 -14408795.64647  21364608.799    21364610.670
 03  4 15  2 51 30.0000000  0  4G20G25G14G11
  24046619.360    -8338253.53349  -6484902.70245  24046618.672    24046622.706
  20855497.192   -23115747.18949 -17734221.60648  20855497.070    20855499.717
  22149314.352   -15916159.93649 -12379658.40647  22149313.939    22149316.306
  21359268.087   -18538966.05049 -14430665.89347  21359267.827    21359269.752
 03  4 15  2 52  0.0000000  0  4G20G25G14G11
  24030168.873    -8424701.81249  -6552264.93945  24030168.111    24030172.060
  20849483.720   -23147348.19649 -17758845.72248  20849483.593    20849486.207
  22163312.849   -15842597.57649 -12322337.08647  22163312.418    22163314.805
  21354028.821   -18566498.68549 -14452119.88747  21354028.574    21354030.439
 03  4 15  2 52 30.0000000  0  4G20G25G14G11
  24013717.583    -8511153.81549  -6619630.07745  24013716.829    24013720.685
  20843569.528   -23178427.34249 -17783063.20748  20843569.387    20843571.987
  22177332.942   -15768921.42349 -12264927.11047  22177332.482    22177334.870
  21348891.717   -18593494.30649 -14473155.42747  21348891.460    21348893.353
 03  4 15  2 53  0.0000000  0  4G20G25G14G11
  23997265.342    -8597610.49849  -6686998.87345  23997264.640    23997268.414
  20837754.456   -23208985.68849 -17806874.86848  20837754.303    20837756.891
  22191374.089   -15695134.68649 -12207430.95447  22191373.642    22191376.012
  21343856.587   -18619953.92149 -14493773.29247  21343856.346    21343858.262
 03  4 15  2 53 30.0000000  0  4G20G25G14G11
  23980813.067    -8684067.71349  -6754368.07845  23980812.370    23980816.095
  20832039.204   -23239019.08449 -17830277.48348  20832039.089    20832041.666
  22205436.623   -15621235.42949 -12149847.12147  22205436.187    22205438.572
  21338924.364   -18645873.02549 -14513969.98447  21338924.100    21338925.989
 03  4 15  2 54  0.0000000  0  4G20G25G14G11
  23964360.154    -8770528.31449  -6821739.91045  23964359.420    23964363.091
  20826423.364   -23268530.61349 -17853273.44948  20826423.247    20826425.785
  22219519.664   -15547228.77049 -12092179.59947  22219519.207    22219521.547
  21334094.403   -18671254.55149 -14533747.78447  21334094.134    21334096.036
 03  4 15  2 54 30.0000000  0  4G20G25G14G11
  23947906.868    -8856990.12049  -6889112.70345  23947906.140    23947909.937
  20820907.281   -23297518.04349 -17875861.01948  20820907.116    20820909.644
  22233623.166   -15473114.75049 -12034428.42447  22233622.723    22233624.997
  21329367.234   -18696095.83049 -14553104.61247  21329366.957    21329368.876
 03  4 15  2 55  0.0000000  0  4G20G25G14G11
  23931453.932    -8943450.43049  -6956484.31745  23931453.239    23931457.083
  20815491.284   -23325978.85549 -17898038.23648  20815491.146    20815493.698
  22247747.150   -15398893.08749 -11976593.37947  22247746.665    22247748.869
  21324743.355   -18720394.17349 -14572038.37847  21324743.117    21324745.029
 03  4 15  2 55 30.0000000  0  4G20G25G14G11
  23915001.096    -9029910.39449  -7023855.66845  23915000.490    23915004.218
  20810175.375   -23353913.93949 -17919805.79548  20810175.256    20810177.819
  22261890.922   -15324567.23649 -11918677.13347  22261890.414    22261892.648
  21320222.580   -18744151.08649 -14590550.24847  21320222.327    21320224.212
 03  4 15  2 56  0.0000000  0  4G20G25G14G11
  23898548.455    -9116369.55549  -7091226.40345  23898547.829    23898551.444
  20804959.454   -23381323.74349 -17941164.04748  20804959.316    20804961.893
  22276054.027   -15250139.18949 -11860681.25647  22276053.549    22276055.821
  21315804.955   -18767365.89349 -14608639.69247  21315804.686    21315806.642
 03  4 15  2 56 30.0000000  0  4G20G25G14G11
  23882096.337    -9202825.64449  -7158594.72845  23882095.729    23882099.282
  20799843.927   -23408205.74349 -17962111.01848  20799843.798    20799846.356
  22290236.705   -15175608.53049 -11802605.42747  22290236.261    22290238.560
  21311490.921   -18790036.32149 -14626304.95147  21311490.662    21311492.568
 03  4 15  2 57  0.0000000  0  4G20G25G14G11
  23865644.790    -9289278.55249  -7225960.57245  23865644.168    23865647.770
  20794828.897   -23434559.96849 -17982646.74448  20794828.750    20794831.322
  22304438.489   -15100977.82449 -11744451.63947  22304438.059    22304440.341
  21307280.491   -18812162.21549 -14643545.89847  21307280.227    21307282.087
 03  4 15  2 57 30.0000000  0  4G20G25G14G11
  23849194.070    -9375727.17449  -7293323.08145  23849193.417    23849197.142
  20789914.393   -23460385.60149 -18002770.57548  20789914.302    20789916.837
  22318659.073   -15026248.11749 -11686220.70447  22318658.674    22318660.959
  21303173.863   -18833742.69749 -14660361.85047  21303173.600    21303175.482
 03  4 15  2 58  0.0000000  0  4G20G25G14G11
  23832744.344    -9462170.74449  -7360681.66745  23832743.735    23832747.431
  20785100.557   -23485682.49049 -18022482.40448  20785100.405    20785102.955
  22332898.258   -14951421.03749 -11627913.89847  22332897.836    22332900.106
  21299171.130   -18854777.13849 -14676752.32147  21299170.881    21299172.787
 03  4 15  2 58 30.0000000  0  4G20G25G14G11
  23816295.929    -9548607.88749  -7428035.24245  23816295.412    23816299.011
  20780387.370   -23510449.90149 -18041781.64948  20780387.277    20780389.839
  22347155.738   -14876497.46149 -11569531.90147  22347155.296    22347157.531
  21295272.509   -18875264.31849 -14692716.35247  21295272.280    21295274.142
 03  4 15  2 59  0.0000000  0  4G20G25G14G11
  23799848.668    -9635039.41949  -7495384.43145  23799848.078    23799851.729
  20775774.889   -23534688.48749 -18060668.82348  20775774.790    20775777.318
  22361430.988   -14801480.63449 -11511077.23747  22361430.553    22361432.721
  21291477.924   -18895205.13449 -14708254.65647  21291477.687    21291479.527
 03  4 15  2 59 30.0000000  0  5G20G25G14G 1G11
  23783401.910    -9721467.16549  -7562730.67545  23783401.284    23783405.035
  20771262.612   -23558400.43449 -18079145.63248  20771262.504    20771265.037
  22375723.226   -14726374.48949 -11452552.97547  22375722.769    22375724.968
  24620828.536    -6107711.17659  -4743741.49945  24620828.145    24620835.057
  21287786.903   -18914601.47849 -14723368.68847  21287786.662    21287788.511
 03  4 15  3  0  0.0000000  0  5G20G25G14G 1G11
  23766956.599    -9807887.13549  -7630070.88045  23766956.029    23766959.781
  20766851.193   -23581582.28949 -18097209.38148  20766851.108    20766853.635
  22390032.782   -14651177.57649 -11393957.99147  22390032.313    22390034.547
  24605299.073    -6189319.26149  -4807332.07745  24605298.676    24605305.584
  21284200.177   -18933449.99249 -14738055.83647  21284199.915    21284201.784
 03  4 15  3  0 30.0000000  0  5G20G25G14G 1G11
  23750513.727    -9894295.49749  -7697402.02645  23750513.092    23750516.767
  20762541.287   -23604231.00249 -18114857.69448  20762541.202    20762543.699
  22404359.874   -14575888.32449 -11335291.04746  22404359.415    22404361.665
  24589798.590    -6270775.10849  -4870804.01045  24589798.057    24589805.121
  21280718.321   -18951747.00549 -14752313.25647  21280718.075    21280719.959
 03  4 15  3  1  0.0000000  0  5G20G25G14G 1G11
  23734073.459    -9980689.77249  -7764722.17945  23734072.813    23734076.387
  20758333.283   -23626344.23549 -18132088.75248  20758333.165    20758335.643
  22418704.531   -14500506.55349 -11276552.01346  22418704.064    22418706.327
  24574327.184    -6352076.67149  -4934155.74245  24574326.788    24574333.793
  21277341.927   -18969490.16449 -14766139.08847  21277341.673    21277343.563
 03  4 15  3  1 30.0000000  0  5G20G25G14G 1G11
  23717635.770   -10067070.81249  -7832032.01845  23717635.053    23717638.525
  20754226.902   -23647923.44249 -18148903.69148  20754226.768    20754229.238
  22433066.299   -14425035.13049 -11217743.11446  22433065.812    22433068.072
  24558885.052    -6433225.35549  -4997388.35545  24558884.568    24558891.397
  21274070.615   -18986680.98849 -14779534.53447  21274070.368    21274072.266
 03  4 15  3  2  0.0000000  0  5G20G25G14G 1G11
  23701200.299   -10153439.42449  -7899332.17945  23701199.621    23701203.080
  20750221.859   -23668969.90649 -18165303.50248  20750221.720    20750224.177
  22447444.461   -14349477.24049 -11158866.83946  22447443.968    22447446.238
  24543471.808    -6514222.39849  -5060502.80645  24543471.428    24543478.089
  21270904.331   -19003319.97949 -14792499.97947  21270904.080    21270905.944
 03  4 15  3  2 30.0000000  0  5G20G25G14G 1G11
  23684767.500   -10239794.29449  -7966621.63145  23684766.788    23684770.302
  20746318.335   -23689482.75949 -18181287.50948  20746318.243    20746320.649
  22461838.962   -14273833.90449 -11099923.97846  22461838.473    22461840.671
  24528087.353    -6595067.43449  -5123498.82745  24528087.029    24528093.704
  21267843.169   -19019406.49249 -14805034.91547  21267842.919    21267844.787
 03  4 15  3  3  0.0000000  0  5G20G25G14G 1G11
  23668337.608   -10326133.35449  -8033898.76845  23668336.911    23668340.412
  20742516.682   -23709460.72049 -18196854.72148  20742516.535    20742518.933
  22476249.650   -14198105.45949 -11040914.81646  22476249.127    22476251.358
  24512732.207    -6675759.08449  -5186375.34645  24512731.809    24512738.607
  21264887.460   -19034938.87449 -14817138.06447  21264887.205    21264889.083
 03  4 15  3  3 30.0000000  0  5G20G25G14G 1G11
  23651910.756   -10412456.57149  -8101163.55945  23651910.113    23651913.565
  20738816.628   -23728904.39549 -18212005.60848  20738816.516    20738818.903
  22490675.956   -14122294.14549 -10981841.06346  22490675.500    22490677.759
  24497406.031    -6756297.88049  -5249132.74945  24497405.649    24497412.465
  21262037.057   -19049917.75449 -14828809.92047  21262036.828    21262038.705
 03  4 15  3  4  0.0000000  0  5G20G25G14G 1G11
  23635487.382   -10498761.88849  -8168414.38546  23635486.723    23635490.141
  20735218.505   -23747812.59849 -18226739.24348  20735218.377    20735220.764
  22505118.005   -14046400.19549 -10922702.92246  22505117.542    22505119.839
  24482109.076    -6836682.74149  -5311770.21345  24482108.828    24482115.373
  21259292.218   -19064341.74849 -14840049.38247  21259291.988    21259293.902
 03  4 15  3  4 30.0000000  0  5G20G25G14G 1G11
  23619067.243   -10585049.67149  -8235651.57646  23619066.620    23619070.029
  20731722.110   -23766186.12849 -18241056.24548  20731721.988    20731724.379
  22519575.277   -13970426.23749 -10863502.44446  22519574.883    22519577.212
  24466841.569    -6916914.14649  -5374288.10745  24466841.279    24466847.611
  21256652.933   -19078211.40549 -14850856.89747  21256652.695    21256654.583
 03  4 15  3  5  0.0000000  0  5G20G25G14G 1G11
  23602650.806   -10671318.47249  -8302873.95846  23602650.145    23602653.634
  20728327.584   -23784024.45149 -18254956.20448  20728327.458    20728329.851
  22534047.697   -13894373.33849 -10804240.44446  22534047.303    22534049.627
  24451603.296    -6996991.58149  -5436686.01045  24451603.008    24451609.451
  21254119.271   -19091525.92449 -14861231.84547  21254119.010    21254120.894
 03  4 15  3  5 30.0000000  0  5G20G25G14G 1G11
  23586238.115   -10757567.71649  -8370081.11746  23586237.478    23586240.920
  20725034.841   -23801327.76549 -18268439.26948  20725034.707    20725037.125
  22548534.847   -13818243.18849 -10744918.25946  22548534.424    22548536.663
  24436394.169    -7076915.24149  -5498964.09545  24436393.866    24436400.227
  21251691.237   -19104285.21949 -14871174.14347  21251690.981    21251692.876
 03  4 15  3  6  0.0000000  0  5G20G25G14G 1G11
  23569829.268   -10843796.38249  -8437272.20745  23569828.666    23569832.179
  20721843.980   -23818095.62649 -18281505.10148  20721843.856    20721846.266
  22563036.411   -13742036.84149 -10685536.69346  22563036.005    22563038.233
  24421214.430    -7156684.79749  -5561122.08745  24421213.986    24421220.464
  21249368.971   -19116488.81149 -14880683.43147  21249368.718    21249370.566
 03  4 15  3  6 30.0000000  0  5G20G25G14G 1G11
  23553424.792   -10930002.14049  -8504445.45645  23553424.164    23553427.731
  20718755.258   -23834326.79149 -18294152.72648  20718755.144    20718757.513
  22577552.459   -13665754.44249 -10626095.87246  22577552.056    22577554.287
  24406064.277    -7236298.87749  -5623158.93945  24406063.854    24406070.361
  21247152.722   -19128135.24449 -14889758.55447  21247152.472    21247154.330
 03  4 15  3  7  0.0000000  0  5G20G25G14G 1G11
  23537024.591   -11016185.11049  -8571600.96645  23537023.997    23537027.542
  20715768.532   -23850022.13649 -18306382.82648  20715768.392    20715770.740
  22592082.589   -13589398.15849 -10566597.47946  22592082.227    22592084.466
  24390943.657    -7315758.12949  -5685075.13045  24390943.251    24390949.719
  21245042.403   -19139225.09649 -14898399.98947  21245042.153    21245043.982
 03  4 15  3  7 30.0000000  0  5G20G25G14G 1G11
  23520629.238   -11102343.32349  -8638737.19545  23520628.608    23520632.148
  20712883.980   -23865180.55049 -18318194.54548  20712883.839    20712886.187
  22606626.828   -13512968.48449 -10507041.90146  22606626.388    22606628.551
  24375852.679    -7395061.50849  -5746869.84345  24375852.239    24375858.702
  21243038.257   -19149756.92149 -14906606.59747  21243038.001    21243039.845
 03  4 15  3  8  0.0000000  0  5G20G25G14G 1G11
  23504238.417   -11188477.73849  -8705854.85645  23504237.775    23504241.215
  20710101.123   -23879804.33549 -18329589.66848  20710100.995    20710103.354
  22621184.324   -13436468.87849 -10447431.82446  22621183.830    22621185.894
  24360791.059    -7474210.69949  -5808544.41645  24360790.626    24360797.048
  21241139.863   -19159733.01049 -14914380.17447  21241139.625    21241141.479
 03  4 15  3  8 30.0000000  0  5G20G25G14G 1G11
  23487852.767   -11274584.68749  -8772951.13445  23487852.218    23487855.569
  20707420.678   -23893890.21849 -18340565.64948  20707420.521    20707422.855
  22635755.239   -13359897.79149 -10387766.05446  22635754.764    22635756.820
  24345759.310    -7553202.89549  -5870096.65445  24345758.842    24345765.234
  21239347.863   -19169150.10149 -14921718.16947  21239347.596    21239349.435
 03  4 15  3  9  0.0000000  0  5G20G25G14G 1G11
  23471472.413   -11360663.96149  -8840025.85245  23471471.868    23471475.141
  20704842.324   -23907439.36049 -18351123.38848  20704842.186    20704844.507
  22650339.402   -13283257.38549 -10328046.27046  22650338.937    22650341.022
  24330757.226    -7632038.65849  -5931527.01545  24330756.808    24330763.176
  21237662.025   -19178008.99549 -14928621.20047  21237661.783    21237663.654
 03  4 15  3  9 30.0000000  0  5G20G25G14G 1G11
  23455097.646   -11446713.83449  -8907077.64945  23455097.084    23455100.324
  20702366.278   -23920450.71649 -18361262.07748  20702366.170    20702368.492
  22664936.780   -13206548.20649 -10268272.89046  22664936.281    22664938.435
  24315785.063    -7710716.98949  -5992834.66945  24315784.682    24315791.030
  21236082.649   -19186308.67749 -14935088.47847  21236082.396    21236084.305
 03  4 15  3 10  0.0000000  0  5G20G25G14G 1G11
  23438728.269   -11532734.84649  -8974106.94545  23438727.746    23438731.034
  20699992.328   -23932925.90849 -18370982.97948  20699992.194    20699994.505
  22679546.604   -13129773.11549 -10208448.15446  22679546.107    22679548.281
  24300842.651    -7789239.34949  -6054020.76745  24300842.247    24300848.718
  21234609.412   -19194050.52249 -14941121.08447  21234609.176    21234611.045
 03  4 15  3 10 30.0000000  0  5G20G25G14G 1G11
  23422364.744   -11618725.35449  -9041112.49345  23422364.215    23422367.474
  20697720.525   -23944864.27749 -18380285.57548  20697720.386    20697722.658
  22694168.850   -13052932.58949 -10148572.42846  22694168.414    22694170.535
  24285930.135    -7867604.86749  -6115084.65245  24285929.701    24285936.060
  21233242.538   -19201233.71249 -14946718.37247  21233242.292    21233244.134
 03  4 15  3 11  0.0000000  0  5G20G25G14G 1G11
  23406007.641   -11704682.70049  -9108092.20445  23406007.059    23406010.270
  20695551.115   -23956264.48049 -18389168.82548  20695550.978    20695553.280
  22708803.685   -12976026.46349 -10088645.59046  22708803.202    22708805.266
  24271047.745    -7945812.14649  -6176025.24845  24271047.353    24271053.542
  21231982.231   -19207856.53849 -14951879.00247  21231981.975    21231983.845
 03  4 15  3 11 30.0000000  0  5G20G25G14G 1G11
  23389656.608   -11790607.76349  -9175046.76145  23389656.028    23389659.224
  20693483.666   -23967128.71949 -18397634.44548  20693483.539    20693485.820
  22723450.384   -12899058.03849 -10028670.21446  22723449.863    22723451.871
  24256195.127    -8023862.65249  -6236843.67045  24256194.726    24256200.983
  21230828.222   -19213921.00349 -14956604.55647  21230827.974    21230829.828
 03  4 15  3 12  0.0000000  0  5G20G25G14G 1G11
  23373312.414   -11876496.79349  -9241973.23445  23373311.804    23373314.987
  20691518.781   -23977454.13149 -18405680.20248  20691518.690    20691520.937
  22738109.127   -12822025.58749  -9968644.94246  22738108.615    22738110.684
  24241372.721    -8101753.62349  -6297537.77045  24241372.367    24241378.663
  21229781.004   -19219424.19449 -14960892.76247  21229780.749    21229782.624
 03  4 15  3 12 30.0000000  0  5G20G25G14G 1G11
  23356974.693   -11962351.64849  -9308873.09946  23356974.054    23356977.210
  20689655.828   -23987244.11149 -18413308.73348  20689655.699    20689657.966
  22752779.172   -12744933.41649  -9908573.12846  22752778.729    22752780.936
  24226580.246    -8179488.07149  -6358109.87745  24226579.849    24226586.204
  21228840.029   -19224369.16449 -14964745.99347  21228839.770    21228841.608
 03  4 15  3 13  0.0000000  0  5G20G25G14G 1G11
  23340644.254   -12048168.64249  -9375743.46346  23340643.628    23340646.676
  20687895.188   -23996496.07649 -18420518.04048  20687895.078    20687897.335
  22767460.953   -12667780.06149  -9848453.63446  22767460.485    22767462.710
  24211818.123    -8257062.97349  -6418557.68445  24211817.678    24211823.943
  21228005.740   -19228753.15249 -14968162.09347  21228005.498    21228007.336
 03  4 15  3 13 30.0000000  0  5G20G25G14G 1G11
  23324321.034   -12133948.10449  -9442584.58446  23324320.379    23324323.389
  20686236.744   -24005211.25749 -18427309.06448  20686236.626    20686238.877
  22782153.866   -12590568.14349  -9788288.51146  22782153.413    22782155.669
  24197086.117    -8334479.68849  -6478882.23045  24197085.677    24197091.930
  21227277.951   -19232577.55149 -14971142.13447  21227277.722    21227279.613
 03  4 15  3 14  0.0000000  0  5G20G25G14G 1G11
  23308005.002   -12219689.48349  -9509395.99646  23308004.325    23308007.302
  20684680.233   -24013390.67249 -18433682.61448  20684680.104    20684682.362
  22796857.622   -12513299.39249  -9728079.09246  22796857.164    22796859.428
  24182384.068    -8411738.57349  -6539083.79645  24182383.555    24182389.844
  21226656.661   -19235842.52049 -14973686.25447  21226656.432    21226658.350
 03  4 15  3 14 30.0000000  0  5G20G25G14G 1G11
  23291697.024   -12305388.79049  -9576174.64346  23291696.284    23291699.333
  20683226.149   -24021031.71649 -18439636.65148  20683226.031    20683228.289
  22811572.480   -12435972.30149  -9667824.21846  22811572.007    22811574.266
  24167712.624    -8488836.77949  -6599160.16845  24167712.181    24167718.350
  21226142.254   -19238545.55949 -14975792.51447  21226142.028    21226143.892
 03  4 15  3 15  0.0000000  0  5G20G25G14G 1G11
  23275396.752   -12391047.20449  -9642921.41446  23275396.039    23275399.063
  20681874.114   -24028136.83049 -18445173.07948  20681873.977    20681876.232
  22826297.751   -12358590.40049  -9607526.64746  22826297.293    22826299.603
  24153071.370    -8565776.55349  -6659113.07545  24153070.877    24153077.073
  21225734.335   -19240689.57749 -14977463.17547  21225734.070    21225735.917
 03  4 15  3 15 30.0000000  0  5G20G25G14G 1G11
  23259104.681   -12476661.91049  -9709634.13846  23259104.047    23259107.107
  20680624.268   -24034704.54549 -18450290.76248  20680624.132    20680626.392
  22841033.533   -12281153.14249  -9547185.93746  22841033.092    22841035.390
  24138460.522    -8642556.07749  -6718941.12945  24138460.172    24138466.157
  21225433.059   -19242272.79849 -14978696.86247  21225432.799    21225434.638
 03  4 15  3 16  0.0000000  0  5G20G25G14G 1G11
  23242820.935   -12562233.04449  -9776312.88546  23242820.310    23242823.498
  20679476.401   -24040736.50849 -18454990.97448  20679476.276    20679478.533
  22855779.484   -12203662.96849  -9486804.00446  22855779.033    22855781.354
  24123880.029    -8719176.59749  -6778645.30245  24123879.577    24123885.602
  21225238.331   -19243296.26349 -14979494.38147  21225238.063    21225239.880
 03  4 15  3 16 30.0000000  0  5G20G25G14G 1G11
  23226545.857   -12647758.86349  -9842956.33346  23226545.257    23226548.497
  20678430.513   -24046232.59549 -18459273.61148  20678430.391    20678432.631
  22870535.385   -12126120.32649  -9426381.16946  22870534.898    22870537.227
  24109329.916    -8795637.35349  -6838224.97745  24109329.509    24109335.386
  21225150.087   -19243759.79049 -14979855.57847  21225149.825    21225151.692
 03  4 15  3 17  0.0000000  0  5G20G25G14G 1G11
  23210279.731   -12733238.12249  -9909563.50246  23210279.088    23210282.357
  20677486.616   -24051192.77949 -18463138.67248  20677486.504    20677488.721
  22885300.995   -12048526.27349  -9365918.27646  22885300.556    22885302.959
  24094810.300    -8871938.20049  -6897680.05545  24094809.830    24094815.649
  21225168.495   -19243663.28149 -14979780.38547  21225168.232    21225170.015
 03  4 15  3 17 30.0000000  0  5G20G25G14G 1G11
  23194022.678   -12818669.41449  -9976133.30846  23194022.063    23194025.304
  20676644.703   -24055617.17349 -18466586.23448  20676644.587    20676646.795
  22900076.247   -11970881.80249  -9305416.10046  22900075.837    22900078.194
  24080321.047    -8948078.63949  -6957010.15045  24080320.721    24080326.454
  21225293.434   -19243006.61549 -14979268.70447  21225293.175    21225295.010
 03  4 15  3 18  0.0000000  0  5G20G25G14G 1G11
  23177774.948   -12904051.97749 -10042665.14646  23177774.261    23177777.435
  20675904.532   -24059506.69849 -18469617.01048  20675904.399    20675906.632
  22914860.850   -11893188.55949  -9244875.93346  22914860.432    22914862.744
  24065862.302    -9024059.19549  -7016215.65745  24065861.950    24065867.750
  21225524.840   -19241790.75149 -14978321.27747  21225524.545    21225526.364
 03  4 15  3 18 30.0000000  0  5G20G25G14G 1G11
  23161536.904   -12989383.37349 -10109157.11546  23161536.222    23161539.302
  20675266.297   -24062860.39149 -18472230.26448  20675266.191    20675268.425
  22929654.739   -11815446.24649  -9184297.51846  22929654.321    22929656.662
  24051434.346    -9099878.38449  -7075295.41445  24051433.939    24051439.601
  21225862.840   -19240014.18249 -14976936.93847  21225862.561    21225864.386
 03  4 15  3 19  0.0000000  0  5G20G25G14G 1G11
  23145308.430   -13074664.48149 -10175609.88246  23145307.777    23145310.737
  20674729.653   -24065680.60149 -18474427.80948  20674729.523    20674731.732
  22944457.331   -11737657.99349  -9123683.30546  22944456.913    22944459.283
  24037036.767    -9175538.44049  -7134251.19045  24037036.296    24037041.832
  21226307.139   -19237679.60349 -14975117.78447  21226306.854    21226308.671
 03  4 15  3 19 30.0000000  0  5G20G25G14G 1G11
  23129090.081   -13159892.29149 -10242021.11946  23129089.375    23129092.351
  20674294.713   -24067966.10449 -18476208.69948  20674294.594    20674296.776
  22959268.809   -11659823.20249  -9063032.84346  22959268.429    22959270.694
  24022669.761    -9251037.40049  -7193081.45545  24022669.322    24022674.727
  21226857.898   -19234785.22549 -14972862.42647  21226857.632    21226859.475
 03  4 15  3 20  0.0000000  0  5G20G25G14G 1G11
  23112882.169   -13245065.19349 -10308389.58746  23112881.535    23112884.405
  20673961.459   -24069717.17549 -18477573.14748  20673961.345    20673963.532
  22974088.990   -11581942.49349  -9002346.60046  22974088.589    22974090.850
  24008333.416    -9326374.80849  -7251785.87145  24008333.007    24008338.433
  21227515.232   -19231331.05149 -14970170.86847  21227514.967    21227516.766
 03  4 15  3 20 30.0000000  0  5G20G25G14G 1G11
  23096685.010   -13330181.90649 -10374714.25346  23096684.308    23096687.178
  20673729.802   -24070934.29349 -18478521.52948  20673729.685    20673731.917
  22988917.665   -11504017.34949  -8941625.71046  22988917.234    22988919.571
  23994027.924    -9401550.82249  -7310364.53745  23994027.361    23994032.797
  21228278.911   -19227317.74049 -14967043.60647  21228278.668    21228280.476
 03  4 15  3 21  0.0000000  0  5G20G25G14G 1G11
  23080498.594   -13415241.76149 -10440994.62846  23080497.884    23080500.717
  20673599.628   -24071618.42249 -18479054.58648  20673599.475    20673601.709
  23003754.574   -11426049.12249  -8880871.26646  23003754.122    23003756.472
  23979752.897    -9476565.73549  -7368817.66245  23979752.383    23979757.780
  21229148.964   -19222745.86449 -14963481.09847  21229148.686    21229150.471
 03  4 15  3 21 30.0000000  0  5G20G25G14G 1G11
  23064323.362   -13500243.25749 -10507229.53646  23064322.661    23064325.494
  20673570.809   -24071769.44849 -18479172.25448  20673570.685    20673572.949
  23018599.408   -11348038.54849  -8820083.82346  23018598.996    23018601.353
  23965508.645    -9551419.42049  -7427145.17145  23965508.174    23965513.665
  21230125.155   -19217615.58449 -14959483.46647  21230124.900    21230126.727
 03  4 15  3 22  0.0000000  0  5G20G25G14G 1G11
  23048159.661   -13585184.12049 -10573417.18346  23048158.981    23048161.813
  20673643.557   -24071387.07049 -18478874.27948  20673643.445    20673645.711
  23033452.414   -11269985.62549  -8759263.38246  23033451.963    23033454.280
  23951295.454    -9626110.50449  -7485345.96445  23951294.904    23951300.404
  21231207.842   -19211926.04749 -14955050.06747  21231207.601    21231209.423
 03  4 15  3 22 30.0000000  0  5G20G25G14G 1G11
  23032007.201   -13670065.76949 -10639558.69546  23032006.504    23032009.422
  20673817.231   -24070474.40749 -18478163.09448  20673817.114    20673819.366
  23048312.877   -11191893.90049  -8698412.71446  23048312.345    23048314.713
  23937112.530    -9700641.54049  -7543422.04545  23937112.002    23937117.554
  21232396.348   -19205680.48549 -14950183.39247  21232396.088    21232397.899
 03  4 15  3 23  0.0000000  0  5G20G25G14G 1G11
  23015866.816   -13754883.76649 -10705650.60346  23015866.137    23015869.143
  20674092.270   -24069028.94849 -18477036.74848  20674092.124    20674094.403
  23063180.900   -11113761.39849  -8637530.26446  23063180.432    23063182.849
  23922960.726    -9775009.53349  -7601371.04845  23922960.229    23922965.730
  21233691.168   -19198876.42049 -14944881.53147  21233690.912    21233692.683
 03  4 15  3 23 30.0000000  0  5G20G25G14G 1G11
  22999738.493   -13839638.12749 -10771692.92946  22999737.873    22999740.941
  20674468.345   -24067052.57249 -18475496.69548  20674468.233    20674470.517
  23078056.335   -11035590.60649  -8576617.96046  23078055.944    23078058.254
  23908839.759    -9849215.80749  -7659194.05245  23908839.285    23908844.627
  21235091.903   -19191515.43249 -14939145.70447  21235091.642    21235093.430
 03  4 15  3 24  0.0000000  0  5G20G25G14G 1G11
  22983622.412   -13924328.20249 -10837685.17246  22983621.800    22983624.904
  20674945.189   -24064546.66749 -18473544.02548  20674945.053    20674947.358
  23092938.763   -10957383.24849  -8515677.19746  23092938.371    23092940.686
  23894749.431    -9923260.96549  -7716891.50945  23894748.870    23894754.244
  21236598.377   -19183598.68949 -14932976.83147  21236598.129    21236599.913
 03  4 15  3 24 30.0000000  0  5G20G25G14G 1G11
  22967519.364   -14008950.47749 -10903624.58246  22967518.728    22967521.710
  20675523.024   -24061509.91649 -18471177.71348  20675522.923    20675525.180
  23107828.427   -10879137.94349  -8454706.83046  23107827.973    23107830.344
  23880689.973    -9997143.04849  -7774461.89745  23880689.473    23880694.755
  21238210.980   -19175124.58949 -14926373.65747  21238210.723    21238212.489
 03  4 15  3 25  0.0000000  0  5G20G25G14G 1G11
  22951429.135   -14093505.03149 -10969511.21846  22951428.506    22951431.507
  20676201.627   -24057943.98749 -18468399.05348  20676201.533    20676203.746
  23122724.690   -10800857.04349  -8393708.74946  23122724.301    23122726.730
  23866661.456   -10070863.39149  -7831906.34145  23866661.035    23866666.192
  21239929.262   -19166094.90949 -14919337.56947  21239929.003    21239930.822
 03  4 15  3 25 30.0000000  0  5G20G25G14G 1G11
  22935352.175   -14177990.07849 -11035343.69346  22935351.527    22935354.489
  20676980.823   -24053849.26849 -18465208.34848  20676980.704    20676982.910
  23137627.675   -10722541.37449  -8332683.55746  23137627.264    23137629.617
  23852663.866   -10144421.20149  -7889224.04545  23852663.415    23852668.598
  21241753.226   -19156509.85849 -14911868.72447  21241752.980    21241754.800
 03  4 15  3 26  0.0000000  0  5G20G25G14G 1G11
  22919288.608   -14262404.49849 -11101121.13646  22919287.927    22919290.909
  20677860.481   -24049226.52949 -18461606.20248  20677860.355    20677862.570
  23152537.107   -10644191.95049  -8271632.06046  23152536.702    23152538.903
  23838697.080   -10217816.63749  -7946415.20145  23838696.644    23838701.904
  21243682.749   -19146370.10449 -14903967.63947  21243682.505    21243684.382
 03  4 15  3 26 30.0000000  0  5G20G25G14G 1G11
  22903238.779   -14346746.40249 -11166842.06846  22903238.129    22903241.148
  20678840.526   -24044076.00649 -18457592.79148  20678840.427    20678842.635
  23167452.858   -10565809.16249  -8210554.57646  23167452.446    23167454.713
  23824761.247   -10291049.46749  -8003479.64845  23824760.841    23824766.060
  21245717.872   -19135675.67149 -14895634.32947  21245717.626    21245719.484
 03  4 15  3 27  0.0000000  0  5G20G25G14G 1G11
  22887203.017   -14431014.65449 -11232505.60746  22887202.309    22887205.395
  20679920.951   -24038398.55849 -18453168.79548  20679920.819    20679923.028
  23182374.750   -10487394.12749  -8149451.95846  23182374.336    23182376.578
  23810856.401   -10364119.82649  -8060417.47745  23810855.918    23810861.198
  21247858.340   -19124427.49149 -14886869.53147  21247858.074    21247859.955
 03  4 15  3 27 30.0000000  0  5G20G25G14G 1G11
  22871181.473   -14515208.11349 -11298110.88246  22871180.822    22871183.867
  20681101.415   -24032195.04949 -18448334.87748  20681101.282    20681103.505
  23197302.511   -10408948.27449  -8088325.34546  23197302.102    23197304.308
  23796982.381   -10437028.07649  -8117228.98445  23796981.932    23796987.204
  21250104.042   -19112626.25449 -14877673.77347  21250103.769    21250105.696
 03  4 15  3 28  0.0000000  0  5G20G25G14G 1G11
  22855174.640   -14599324.52949 -11363656.10046  22855173.962    22855176.994
  20682381.978   -24025465.54049 -18443091.09348  20682381.865    20682384.096
  23212236.213   -10330471.41949  -8027174.57546  23212235.874    23212237.980
  23783139.237   -10509773.31249  -8173913.49545  23783138.825    23783144.103
  21252454.979   -19100271.95849 -14868047.05647  21252454.722    21252456.663
 03  4 15  3 28 30.0000000  0  5G20G25G14G 1G11
  22839182.555   -14683363.12449 -11429140.69146  22839181.903    22839184.973
  20683762.402   -24018211.39649 -18437438.50248  20683762.289    20683764.496
  23227175.455   -10251965.12049  -7966000.83446  23227175.111    23227177.288
  23769327.212   -10582355.91849  -8230471.26545  23769326.817    23769332.066
  21254910.944   -19087365.88549 -14857990.38147  21254910.691    21254912.625
 03  4 15  3 29  0.0000000  0  5G20G25G14G 1G11
  22823205.705   -14767321.32549 -11494562.63646  22823205.123    22823208.187
  20685242.734   -24010432.22249 -18431376.79548  20685242.615    20685244.828
  23242120.444   -10173429.14949  -7904804.00146  23242120.065    23242122.247
  23755546.408   -10654774.83349  -8286901.47945  23755545.958    23755551.189
  21257472.012   -19073907.43649 -14847503.28747  21257471.759    21257473.650
 03  4 15  3 29 30.0000000  0  5G20G25G14G 1G11
  22807244.043   -14851200.34849 -11559922.88746  22807243.454    22807246.522
  20686822.305   -24002131.43149 -18424908.63548  20686822.171    20686824.394
  23257070.355   -10094867.05549  -7843586.79446  23257069.976    23257072.119
  23741796.111   -10727032.83949  -8343206.35445  23741795.598    23741800.893
  21260137.550   -19059900.08149 -14836588.46947  21260137.283    21260139.168
 03  4 15  3 30  0.0000000  0  5G20G25G14G 1G11
  22791298.277   -14934995.85449 -11625218.04946  22791297.683    22791300.772
  20688501.499   -23993307.11749 -18418032.53648  20688501.388    20688503.572
  23272025.528   -10016277.05649  -7782347.84546  23272025.092    23272027.307
  23728076.888   -10799126.96449  -8399383.50445  23728076.385    23728081.740
  21262907.865   -19045341.86149 -14825244.42047  21262907.625    21262909.536
 03  4 15  3 30 30.0000000  0  5G20G25G14G 1G11
  22775368.764   -15018706.04549 -11690446.72146  22775368.161    22775371.232
  20690280.301   -23983959.54649 -18410748.70748  20690280.167    20690282.327
  23286985.983    -9937659.30549  -7721087.28046  23286985.555    23286987.797
  23714388.943   -10871057.02449  -8455432.80745  23714388.461    23714393.928
  21265783.054   -19030232.93749 -14813471.24547  21265782.785    21265784.676
 03  4 15  3 31  0.0000000  0  5G20G25G14G 1G11
  22759455.240   -15102332.02549 -11755609.78746  22759454.668    22759457.730
  20692157.974   -23974092.18149 -18403059.83848  20692157.847    20692160.003
  23301951.153    -9859017.31949  -7659807.81846  23301950.675    23301952.899
  23700731.720   -10942825.53149  -8511356.21145  23700731.275    23700736.605
  21268762.355   -19014576.53049 -14801271.45647  21268762.092    21268763.981
 03  4 15  3 31 30.0000000  0  5G20G25G14G 1G11
  22743558.566   -15185869.76049 -11820704.09246  22743557.983    22743561.064
  20694134.820   -23963703.65049 -18394964.86848  20694134.699    20694136.869
  23316920.986    -9780349.56549  -7598508.28946  23316920.572    23316922.910
  23687105.743   -11014430.26149  -8567152.03245  23687105.248    23687110.486
  21271846.201   -18998371.07249 -14788643.84847  21271845.937    21271847.797
 03  4 15  3 32  0.0000000  0  5G20G25G14G 1G11
  22727678.677   -15269319.01349 -11885729.45646  22727678.096    22727681.200
  20696210.527   -23952795.85849 -18386465.28248  20696210.392    20696212.555
  23331895.531    -9701657.97849  -7537190.17546  23331895.075    23331897.433
  23673510.847   -11085872.13549  -8622820.95345  23673510.350    23673515.414
  21275034.126   -18981618.53149 -14775589.94047  21275033.860    21275035.711
 03  4 15  3 32 30.0000000  0  5G20G25G14G 1G11
  22711815.854   -15352678.31049 -11950684.72246  22711815.268    22711818.440
  20698384.781   -23941370.00749 -18377562.01148  20698384.636    20698386.787
  23346874.438    -9622943.66349  -7475854.36346  23346873.936    23346876.266
  23659946.747   -11157151.26749  -8678363.05045  23659946.330    23659951.459
  21278325.989   -18964319.76949 -14762110.40947  21278325.721    21278327.544
 03  4 15  3 33  0.0000000  0  5G20G25G14G 1G11
  22695970.543   -15435945.89349 -12015568.52946  22695969.977    22695973.116
  20700657.579   -23929426.49049 -18368255.36748  20700657.413    20700659.553
  23361857.415    -9544206.94449  -7414501.09746  23361857.013    23361859.457
  23646413.781   -11228267.38149  -8733778.12445  23646413.339    23646418.375
  21281721.671   -18946475.40449 -14748205.72847  21281721.381    21281723.246
 03  4 15  3 33 30.0000000  0  5G20G25G14G 1G11
  22680143.136   -15519119.61749 -12080379.19846  22680142.564    22680145.635
  20703028.834   -23916965.39549 -18358545.41648  20703028.692    20703030.808
  23376844.861    -9465447.98449  -7353130.48246  23376844.367    23376846.734
  23632912.033   -11299219.84549  -8789065.67045  23632911.536    23632916.502
  21285221.113   -18928085.70349 -14733876.11847  21285220.848    21285222.698
 03  4 15  3 34  0.0000000  0  5G20G25G14G 1G11
  22664333.604   -15602199.68449 -12145116.88946  22664332.999    22664335.993
  20705498.047   -23903989.46749 -18348434.29248  20705497.922    20705500.004
  23391835.922    -9386669.34549  -7291744.53146  23391835.459    23391837.750
  23619440.913   -11370010.38649  -8844227.05645  23619440.452    23619445.479
  21288823.860   -18909153.29649 -14719123.61347  21288823.584    21288825.440
 03  4 15  3 34 30.0000000  0  5G20G25G14G 1G11
  22648542.404   -15685182.63849 -12209778.90846  22648541.811    22648544.800
  20708065.385   -23890497.65649 -18337921.17948  20708065.305    20708067.381
  23406830.960    -9307869.82149  -7230342.30846  23406830.468    23406832.772
  23606000.983   -11440637.23049  -8899260.91045  23606000.616    23606005.552
  21292530.079   -18889677.00049 -14703947.29647  21292529.808    21292531.689
 03  4 15  3 35  0.0000000  0  5G20G25G14G 1G11
  22632769.900   -15768067.27349 -12274364.29146  22632769.340    22632772.353
  20710730.699   -23876491.62949 -18327007.38148  20710730.570    20710732.636
  23421829.774    -9229050.75549  -7168924.86446  23421829.295    23421831.657
  23592592.198   -11511100.90949  -8954167.65445  23592591.719    23592596.662
  21296339.501   -18869658.39949 -14688348.40147  21296339.241    21296341.181
 03  4 15  3 35 30.0000000  0  5G20G25G14G 1G11
  22617016.300   -15850852.92349 -12338872.56646  22617015.686    22617018.705
  20713493.424   -23861973.26849 -18315694.36548  20713493.327    20713495.389
  23436831.823    -9150213.53549  -7107493.29246  23436831.429    23436833.910
  23579214.225   -11581402.10749  -9008947.76845  23579213.710    23579218.751
  21300251.819   -18849099.06849 -14672328.15147  21300251.563    21300253.459
 03  4 15  3 36  0.0000000  0  5G20G25G14G 1G11
  22601282.151   -15933536.28249 -12403301.13246  22601281.538    22601284.530
  20716353.794   -23846941.90949 -18303981.60448  20716353.687    20716355.770
  23451837.729    -9071357.50549  -7046047.06046  23451837.301    23451839.789
  23565867.427   -11651539.28949  -9063600.02445  23565866.950    23565872.029
  21304267.142   -18827998.49649 -14655886.14147  21304266.883    21304268.822
 03  4 15  3 36 30.0000000  0  5G20G25G14G 1G11
  22585567.435   -16016117.67649 -12467650.24246  22585566.798    22585569.744
  20719311.257   -23831400.32349 -18291871.26548  20719311.139    20719313.234
  23466846.742    -8992485.08349  -6984588.05846  23466846.280    23466848.728
  23552551.630   -11721514.35049  -9118125.91945  23552551.138    23552556.149
  21308384.927   -18806359.41949 -14639024.52847  21308384.662    21308386.591
 03  4 15  3 37  0.0000000  0  5G20G25G14G 1G11
  22569872.636   -16098594.30949 -12531917.73046  22569872.023    22569874.936
  20722365.792   -23815348.52049 -18279363.35948  20722365.655    20722367.767
  23481858.849    -8913595.64549  -6923115.78846  23481858.508    23481860.962
  23539266.799   -11791326.04849  -9172524.53145  23539266.335    23539271.230
  21312605.278   -18784181.60149 -14621743.12347  21312605.011    21312606.893
 03  4 15  3 37 30.0000000  0  5G20G25G14G 1G11
  22554198.276   -16180963.73349 -12596101.66446  22554197.674    22554200.512
  20725517.355   -23798786.73349 -18266458.06448  20725517.233    20725519.350
  23496874.188    -8834689.38949  -6861630.42546  23496873.832    23496876.312
  23526013.220   -11860973.75949  -9226795.38746  23526012.770    23526017.629
  21316928.030   -18761465.41049 -14604042.21147  21316927.758    21316929.651
 03  4 15  3 38  0.0000000  0  5G20G25G14G 1G11
  22538544.164   -16263227.08749 -12660202.94646  22538543.541    22538546.286
  20728765.312   -23781718.61249 -18253158.22148  20728765.175    20728767.290
  23511892.157    -8755769.85549  -6800134.69646  23511891.796    23511894.250
  23512790.331   -11930460.26349  -9280940.59546  23512789.805    23512794.742
  21321352.486   -18738214.78049 -14585924.85047  21321352.215    21321354.101
 03  4 15  3 38 30.0000000  0  5G20G25G14G 1G11
  22522910.831   -16345380.75049 -12724218.75446  22522910.194    22522912.999
  20732109.754   -23764143.43449 -18239463.26548  20732109.619    20732111.737
  23526912.879    -8676835.44849  -6738627.37046  23526912.478    23526914.963
  23499598.409   -11999783.56049  -9334958.65746  23499597.957    23499602.852
  21325878.810   -18714428.78449 -14567390.32247  21325878.532    21325880.391
 03  4 15  3 39  0.0000000  0  5G20G25G14G 1G11
  22507298.746   -16427422.54249 -12788147.39046  22507298.172    22507301.003
  20735550.547   -23746061.69349 -18225373.59148  20735550.437    20735552.565
  23541936.373    -8597886.61449  -6677108.81946  23541935.957    23541938.494
  23486437.676   -12068943.30849  -9388849.25846  23486437.189    23486442.061
  21330506.861   -18690107.98649 -14548439.06047  21330506.617    21330508.510
 03  4 15  3 39 30.0000000  0  5G20G25G14G 1G11
  22491708.044   -16509352.57749 -12851988.94746  22491707.415    22491710.176
  20739087.264   -23727476.28549 -18210891.44548  20739087.159    20739089.262
  23556962.259    -8518925.64449  -6615580.79346  23556961.815    23556964.301
  23473307.715   -12137941.14149  -9442613.68146  23473307.287    23473312.137
  21335236.251   -18665254.95749 -14529073.08047  21335235.994    21335237.881
 03  4 15  3 40  0.0000000  0  5G20G25G14G 1G11
  22476139.284   -16591167.30249 -12915740.65446  22476138.613    22476141.270
  20742719.952   -23708386.53449 -18196016.30248  20742719.834    20742721.922
  23571990.419    -8439951.15149  -6554042.24345  23571990.091    23571992.628
  23460209.071   -12206775.38249  -9496250.63446  23460208.635    23460213.397
  21340067.031   -18639868.96649 -14509291.78947  21340066.799    21340068.673
 03  4 15  3 40 30.0000000  0  5G20G25G14G 1G11
  22460592.363   -16672866.66849 -12979402.46746  22460591.716    22460594.365
  20746448.085   -23688795.09149 -18180750.23448  20746447.963    20746450.030
  23587021.065    -8360965.62649  -6492495.11345  23587020.615    23587023.108
  23447141.159   -12275447.73149  -9549761.45046  23447140.693    23447145.400
  21344998.705   -18613953.00449 -14489097.53447  21344998.445    21345000.325
 03  4 15  3 41  0.0000000  0  5G20G25G14G 1G11
  22445067.909   -16754447.91549 -13042972.23846  22445067.274    22445069.905
  20750271.644   -23668701.97749 -18165093.25948  20750271.546    20750273.616
  23602053.737    -8281968.64549  -6430939.04545  23602053.269    23602055.698
  23434104.076   -12343957.34149  -9603145.48646  23434103.617    23434108.327
  21350031.180   -18587507.25349 -14468490.45947  21350030.911    21350032.824
 03  4 15  3 41 30.0000000  0  5G20G25G14G 1G11
  22429566.079   -16835910.33949 -13106449.41446  22429565.405    22429568.121
  20754190.275   -23648109.49549 -18149047.16148  20754190.173    20754192.244
  23617088.296    -8202961.51449  -6369375.07945  23617087.820    23617090.210
  23421097.836   -12412304.92949  -9656403.26746  23421097.342    23421102.168
  21355164.133   -18560533.48449 -14447471.94847  21355163.868    21355165.778
 03  4 15  3 42  0.0000000  0  5G20G25G14G 1G11
  22414087.638   -16917249.93549 -13169830.88846  22414087.001    22414089.729
  20758204.094   -23627016.83949 -18132611.31748  20758203.954    20758206.016
  23632125.007    -8123942.91549  -6307802.15845  23632124.521    23632126.938
  23408122.761   -12480488.58449  -9709533.35446  23408122.315    23408127.239
  21360397.707   -18533030.94349 -14426041.41147  21360397.445    21360399.376
 03  4 15  3 42 30.0000000  0  5G20G25G14G 1G11
  22398632.359   -16998467.63949 -13233117.37246  22398631.730    22398634.506
  20762312.327   -23605427.88949 -18115788.75048  20762312.230    20762314.273
  23647163.182    -8044916.17249  -6246222.87945  23647162.770    23647165.302
  23395178.506   -12548510.88649  -9762537.65146  23395178.075    23395182.934
  21365731.198   -18505003.23049 -14404201.63647  21365730.952    21365732.881
 03  4 15  3 43  0.0000000  0  5G20G25G14G 1G11
  22383200.897   -17079560.22249 -13296306.36446  22383200.273    22383203.038
  20766515.133   -23583342.23649 -18098579.14148  20766515.011    20766517.038
  23662203.334    -7965880.34249  -6184636.51145  23662202.917    23662205.201
  23382265.251   -12616370.25349  -9815414.97946  23382264.855    23382269.558
  21371164.617   -18476450.61649 -14381952.85047  21371164.351    21371166.258
 03  4 15  3 43 30.0000000  0  5G20G25G14G 1G11
  22367793.471   -17160526.77449 -13359397.14646  22367792.809    22367795.544
  20770812.061   -23560761.67749 -18080983.89048  20770811.916    20770813.951
  23677244.832    -7886836.62949  -6123044.01745  23677244.415    23677246.735
  23369382.810   -12684067.62549  -9868166.06746  23369382.403    23369387.096
  21376697.513   -18447375.08249 -14359296.59147  21376697.250    21376699.156
 03  4 15  3 44  0.0000000  0  5G20G25G14G 1G11
  22352410.304   -17241365.78649 -13422388.55446  22352409.659    22352412.381
  20775202.849   -23537687.71449 -18063004.16848  20775202.716    20775204.773
  23692287.723    -7807785.88249  -6061446.03145  23692287.331    23692289.643
  23356531.152   -12751603.37749  -9920791.24546  23356530.721    23356535.360
  21382329.710   -18417777.65349 -14336233.66147  21382329.441    21382331.351
 03  4 15  3 44 30.0000000  0  5G20G25G14G 1G11
  22337051.900   -17322074.59549 -13485278.50046  22337051.231    22337053.999
  20779687.471   -23514120.82449 -18044640.35048  20779687.352    20779689.426
  23707332.012    -7728727.94349  -5999842.45945  23707331.586    23707333.800
  23343710.344   -12818976.73149  -9973289.90946  23343709.896    23343714.545
  21388061.138   -18387659.01249 -14312764.59347  21388060.874    21388062.756
 03  4 15  3 45  0.0000000  0  5G20G25G14G 1G11
  22321718.665   -17402650.96849 -13548065.25446  22321717.996    22321720.785
  20784265.649   -23490062.18749 -18025893.35448  20784265.532    20784267.628
  23722377.557    -7649662.73649  -5938233.20745  23722377.140    23722379.490
  23330920.555   -12886187.32049 -10025661.73146  23330920.140    23330924.669
  21393891.540   -18357020.00249 -14288890.03547  21393891.247    21393893.186
 03  4 15  3 45 30.0000000  0  5G20G25G14G 1G11
  22306410.398   -17483096.26649 -13610749.86846  22306409.704    22306412.522
  20788936.658   -23465515.91049 -18006766.37648  20788936.529    20788938.622
  23737423.949    -7570594.24249  -5876621.41645  23737423.464    23737425.735
  23318161.191   -12953238.37949 -10077909.24846  23318160.704    23318165.160
  21399820.088   -18325865.31349 -14264613.64747  21399819.833    21399821.737
 03  4 15  3 46  0.0000000  0  5G20G25G14G 1G11
  22291128.016   -17563405.47949 -13673328.45346  22291127.364    22291130.169
  20793700.853   -23440479.95349 -17987257.82748  20793700.711    20793702.758
  23752471.436    -7491519.61449  -5815004.84845  23752470.917    23752473.137
  23305432.572   -13020126.77549 -10130029.99546  23305432.196    23305436.564
  21405847.118   -18294192.94949 -14239933.87647  21405846.851    21405848.762
 03  4 15  3 46 30.0000000  0  5G20G25G14G 1G11
  22275871.849   -17643576.94549 -13735799.69747  22275871.205    22275874.016
  20798557.863   -23414955.92449 -17967368.96648  20798557.748    20798559.805
  23767519.792    -7412439.45949  -5753383.96445  23767519.309    23767521.644
  23292735.002   -13086852.51349 -10182024.01146  23292734.695    23292739.016
  21411972.377   -18262004.35149 -14214851.84747  21411972.120    21411974.094
 03  4 15  3 47  0.0000000  0  5G20G25G14G 1G11
  22260642.117   -17723609.65849 -13798162.81347  22260641.479    22260644.247
  20803507.363   -23388946.28249 -17947101.69948  20803507.212    20803509.293
  23782568.955    -7333355.38249  -5691760.03545  23782568.420    23782570.859
  23280068.284   -13153416.73049 -10233892.15746  23280067.924    23280072.246
  21418195.361   -18229302.09649 -14189369.56447  21418195.102    21418197.111
 03  4 15  3 47 30.0000000  0  5G20G25G14G 1G11
  22245439.059   -17803502.08549 -13860416.61947  22245438.413    22245441.221
  20808549.003   -23362452.12749 -17926456.89548  20808548.861    20808550.954
  23797618.962    -7254267.74549  -5630133.33445  23797618.362    23797620.700
  23267432.237   -13219819.61449 -10285634.58546  23267431.803    23267436.108
  21424515.962   -18196087.34649 -14163487.93547  21424515.686    21424517.673
 03  4 15  3 48  0.0000000  0  5G20G25G14G 1G11
  22230262.994   -17883252.78949 -13922559.99047  22230262.320    22230265.162
  20813682.504   -23335475.43649 -17905436.08548  20813682.377    20813684.433
  23812669.257    -7175177.57749  -5568504.64245  23812668.732    23812671.119
  23254826.741   -13286061.66949 -10337251.68546  23254826.319    23254830.626
  21430933.679   -18162362.11049 -14137208.55047  21430933.393    21430935.345
 03  4 15  3 48 30.0000000  0  5G20G25G14G 1G11
  22215114.613   -17962858.15549 -13984590.11747  22215113.947    22215116.762
  20818907.826   -23308015.97549 -17884039.09348  20818907.700    20818909.744
  23827720.235    -7096083.80649  -5506873.18245  23827719.793    23827722.295
  23242252.049   -13352141.32749 -10388742.24146  23242251.644    23242255.997
  21437448.563   -18128126.27949 -14110531.29747  21437448.254    21437450.199
 03  4 15  3 49  0.0000000  0  5G20G25G14G 1G11
  22199994.041   -18042317.17449 -14046506.21147  22199993.365    22199996.083
  20824224.689   -23280075.79749 -17862267.51748  20824224.569    20824226.607
  23842771.733    -7016987.61049  -5445239.82145  23842771.322    23842773.842
  23229708.253   -13418059.48349 -10440106.96946  23229707.828    23229712.107
  21444060.126   -18093382.02849 -14083457.86547  21444059.866    21444061.832
 03  4 15  3 49 30.0000000  0  5G20G25G14G 1G11
  22184901.240   -18121630.34849 -14108308.64947  22184900.593    22184903.239
  20829632.264   -23251659.05449 -17840124.59048  20829632.116    20829634.156
  23857823.417    -6937891.87149  -5383606.80045  23857822.883    23857825.273
  23217194.730   -13483818.71349 -10491347.91246  23217194.251    23217198.408
  21450767.759   -18058133.31449 -14055991.34347  21450767.473    21450769.461
 03  4 15  3 50  0.0000000  0  6G20G25G14G16G 1G11
  22169836.852   -18200793.96049 -14169994.54647  22169836.212    22169838.833
  20835130.560   -23222764.96049 -17817609.70048  20835130.429    20835132.457
  23872874.789    -6858795.36949  -5321973.16445  23872874.343    23872876.764
  24684768.538    -2605917.72359  -2018421.47145  24684768.100    24684771.891
  23204711.618   -13549417.08049 -10542463.47846  23204711.153    23204715.346
  21457571.384   -18022379.74249 -14028131.41347  21457571.133    21457573.151
 03  4 15  3 50 30.0000000  0  6G20G25G14G16G 1G11
  22154801.515   -18279804.90949 -14231561.48847  22154800.901    22154803.546
  20840719.707   -23193393.95449 -17794723.19648  20840719.550    20840721.551
  23887926.615    -6779697.16949  -5260338.23145  23887926.242    23887928.669
  24667982.786    -2694127.30649  -2087156.11945  24667982.381    24667986.144
  23192259.446   -13614853.40549 -10593452.78746  23192258.974    23192263.175
  21464471.194   -17986121.27249 -13999878.07647  21464470.936    21464472.932
 03  4 15  3 51  0.0000000  0  6G20G25G14G16G 1G11
  22139795.179   -18358663.60349 -14293009.79147  22139794.549    22139797.231
  20846398.880   -23163549.48749 -17771467.75848  20846398.719    20846400.757
  23902978.540    -6700599.96149  -5198704.08345  23902978.023    23902980.363
  24651185.847    -2782396.95049  -2155937.59945  24651185.030    24651188.861
  23179837.670   -13680130.24949 -10644317.81846  23179837.233    23179841.369
  21471466.173   -17949362.21349 -13971234.67647  21471465.923    21471467.925
 03  4 15  3 51 30.0000000  0  6G20G25G14G16G 1G11
  22124818.416   -18437367.08249 -14354337.14147  22124817.767    22124820.413
  20852168.028   -23133232.23549 -17747843.92148  20852167.915    20852169.953
  23918030.014    -6621503.40549  -5137070.43745  23918029.463    23918031.987
  24634377.861    -2870722.99349  -2224763.01545  24634376.975    24634381.059
  23167446.359   -13745246.53949 -10695057.71746  23167445.892    23167450.224
  21478556.369   -17912102.94849 -13942201.50547  21478556.125    21478558.130
 03  4 15  3 52  0.0000000  0  6G20G25G14G16G 1G11
  22109871.731   -18515912.51149 -14415541.34247  22109871.075    22109873.701
  20858027.149   -23102442.54449 -17723851.94148  20858027.008    20858029.027
  23933081.539    -6542406.72149  -5075436.67645  23933081.122    23933083.676
  24617559.919    -2959101.41749  -2293629.27545  24617559.228    24617563.125
  23155085.730   -13810201.39649 -10745671.82146  23155085.328    23155089.660
  21485741.577   -17874344.36249 -13912779.23547  21485741.331    21485743.354
 03  4 15  3 52 30.0000000  0  6G20G25G14G16G 1G11
  22094955.159   -18594299.17749 -14476621.82947  22094954.522    22094957.169
  20863975.609   -23071183.29349 -17699494.07548  20863975.430    20863977.478
  23948133.062    -6463311.56849  -5013804.12245  23948132.543    23948135.027
  24600732.395    -3047530.63249  -2362535.09645  24600731.788    24600735.382
  23142755.770   -13874996.05449 -10796161.08546  23142755.314    23142759.692
  21493021.480   -17836088.65349 -13882969.60447  21493021.231    21493023.222
 03  4 15  3 53  0.0000000  0  6G20G25G14G16G 1G11
  22080069.258   -18672525.10549 -14537577.06647  22080068.616    22080071.220
  20870013.118   -23039455.70149 -17674771.27448  20870012.991    20870015.038
  23963183.821    -6384218.45149  -4952173.13145  23963183.414    23963185.972
  24583895.711    -3136007.95749  -2431478.39045  24583895.093    24583898.650
  23130456.109   -13939630.69549 -10846525.65846  23130455.698    23130460.032
  21500395.472   -17797337.92449 -13852774.24747  21500395.236    21500397.208
 03  4 15  3 53 30.0000000  0  6G20G25G14G16G 1G11
  22065214.339   -18750588.30549 -14598405.50747  22065213.680    22065216.268
  20876139.551   -23007261.32849 -17649684.74148  20876139.409    20876141.428
  23978234.381    -6305127.61549  -4890543.92845  23978233.934    23978236.449
  24567050.382    -3224530.35949  -2500456.84145  24567049.765    24567053.518
  23118186.927   -14004105.39149 -10896765.61446  23118186.492    23118190.795
  21507863.447   -17758093.60649 -13822194.27947  21507863.196    21507865.174
 03  4 15  3 54  0.0000000  0  6G20G25G14G16G 1G11
  22050390.688   -18828486.71249 -14659105.52547  22050390.033    22050392.690
  20882354.465   -22974601.64649 -17624235.63148  20882354.317    20882356.337
  23993284.511    -6226039.54449  -4828916.87845  23993284.015    23993286.349
  24550196.767    -3313095.00949  -2569468.20645  24550196.353    24550200.114
  23105948.168   -14068420.22949 -10946881.02546  23105947.725    23105952.009
  21515425.065   -17718357.18249 -13791230.84147  21515424.811    21515426.783
 03  4 15  3 54 30.0000000  0  6G20G25G14G16G 1G11
  22035598.797   -18906218.04349 -14719675.35647  22035598.123    22035600.872
  20888657.711   -22941477.78549 -17598424.82448  20888657.573    20888659.630
  24008333.999    -6146953.95649  -4767291.76745  24008333.496    24008335.890
  24533335.814    -3401698.40249  -2638509.76345  24533335.655    24533339.362
  23093739.831   -14132575.12349 -10996871.80746  23093739.407    23093743.688
  21523080.038   -17678130.03649 -13759885.03247  21523079.772    21523081.798
 03  4 15  3 55  0.0000000  0  6G20G25G14G16G 1G11
  22020838.983   -18983781.13649 -14780114.10547  22020838.341    22020841.080
  20895048.831   -22907892.07549 -17572254.13748  20895048.709    20895050.772
  24023382.611    -6067872.03149  -4705669.49045  24023382.239    24023384.696
  24516467.988    -3490338.76149  -2707580.12645  24516467.864    24516471.568
  23081561.909   -14196570.68449 -11046738.44146  23081561.428    23081565.730
  21530827.972   -17637414.53249 -13728158.70047  21530827.698    21530829.712
 03  4 15  3 55 30.0000000  0  6G20G25G14G16G 1G11
  22006111.852   -19061172.86349 -14840419.32147  22006111.216    22006113.874
  20901527.750   -22873845.15949 -17545724.06748  20901527.613    20901529.651
  24038430.787    -5988793.12749  -4644049.58545  24038430.360    24038433.078
  24499594.091    -3579011.83349  -2776675.96145  24499593.914    24499597.624
  23069414.473   -14260405.86249 -11096480.06346  23069413.957    23069418.253
  21538668.668   -17596211.43549 -13696052.42047  21538668.420    21538670.401
 03  4 15  3 56  0.0000000  0  6G20G25G14G16G 1G11
  21991416.982   -19138394.37049 -14900591.88747  21991416.389    21991419.089
  20908093.578   -22839341.41749 -17518838.02948  20908093.428    20908095.498
  24053478.016    -5909720.76849  -4582434.76445  24053477.444    24053480.160
  24482713.921    -3667717.93849  -2845797.56045  24482713.680    24482717.364
  23057296.808   -14324083.93449 -11146099.27446  23057296.336    23057300.631
  21546601.318   -17554525.28449 -13663569.72847  21546601.039    21546603.039
 03  4 15  3 56 30.0000000  0  6G20G25G14G16G 1G11
  21976755.347   -19215441.43249 -14960628.52647  21976754.759    21976757.502
  20914746.421   -22804380.27449 -17491595.57748  20914746.332    20914748.388
  24068523.887    -5830653.02949  -4520823.54845  24068523.439    24068526.239
  24465828.505    -3756451.97749  -2914940.94745  24465828.140    24465831.651
  23045209.463   -14387602.72549 -11195594.39746  23045209.034    23045213.355
  21554625.884   -17512355.68949 -13630710.30047  21554625.613    21554627.667
 03  4 15  3 57  0.0000000  0  6G20G25G14G16G 1G11
  21962127.382   -19292312.05649 -15020527.69447  21962126.806    21962129.420
  20921486.101   -22768963.23449 -17463997.88048  20921485.996    20921487.991
  24083568.926    -5751590.38349  -4459216.34545  24083568.512    24083571.384
  24448938.306    -3845210.99049  -2984103.75645  24448937.983    24448941.258
  23033152.553   -14450962.47049 -11244965.55446  23033152.091    23033156.372
  21562742.090   -17469704.62449 -13597475.70947  21562741.824    21562743.923
 03  4 15  3 57 30.0000000  0  6G20G25G14G16G 1G11
  21947533.348   -19369004.32049 -15080287.87447  21947532.740    21947535.317
  20928312.172   -22733092.20249 -17436046.41748  20928312.031    20928314.024
  24098613.244    -5672533.16149  -4397613.32745  24098612.797    24098615.493
  24432043.701    -3933992.16749  -3053283.86545  24432043.439    24432046.741
  23021125.739   -14514163.36949 -11294212.94246  23021125.317    23021129.539
  21570949.631   -17426573.80649 -13563867.28847  21570949.382    21570951.483
 03  4 15  3 58  0.0000000  0  6G20G25G14G16G 1G11
  21932973.408   -19445517.39149 -15139908.41547  21932972.789    21932975.387
  20935223.989   -22696770.04749 -17407743.43648  20935223.886    20935225.886
  24113656.122    -5593482.84449  -4336015.71645  24113655.703    24113658.207
  24415145.216    -4022793.65049  -3122479.79145  24415145.057    24415148.285
  23009128.906   -14577206.73349 -11343337.58546  23009128.432    23009132.710
  21579247.954   -17382966.10549 -13529887.27947  21579247.708    21579249.809
 03  4 15  3 58 30.0000000  0  6G20G25G14G16G 1G11
  21918448.183   -19521847.69449 -15199386.53947  21918447.574    21918450.170
  20942221.796   -22659996.38949 -17379088.63148  20942221.672    20942223.668
  24128697.914    -5514438.00249  -4274422.34045  24128697.440    24128700.153
  24398243.818    -4111610.98149  -3191688.05645  24398243.697    24398246.830
  22997162.364   -14640090.96949 -11392338.24346  22997161.867    22997166.150
  21587636.826   -17338881.92749 -13495535.97947  21587636.580    21587638.754
 03  4 15  3 59  0.0000000  0  6G20G25G14G16G 1G11
  21903958.005   -19597994.15449 -15258721.41647  21903957.386    21903959.901
  20949304.895   -22622774.35649 -17350084.44448  20949304.798    20949306.809
  24143738.299    -5435400.24649  -4212834.50145  24143737.958    24143740.447
  24381339.736    -4200442.49549  -3260907.35945  24381339.540    24381342.707
  22985225.751   -14702817.26149 -11441215.81046  22985225.330    22985229.654
  21596115.953   -17294323.94449 -13460815.48547  21596115.710    21596117.880
 03  4 15  3 59 30.0000000  0  6G20G25G14G16G 1G11
  21889503.173   -19673954.81549 -15317911.51747  21889502.533    21889505.059
  20956473.100   -22585105.21849 -17320731.86948  20956473.006    20956475.018
  24158777.316    -5356369.80649  -4151252.35345  24158776.937    24158779.505
  24364433.775    -4289285.10449  -3330135.33145  24364433.304    24364436.469
  22973319.349   -14765385.69149 -11489970.40246  22973318.932    22973323.240
  21604684.892   -17249294.02049 -13425727.25947  21604684.638    21604686.799
 03  4 15  4  0  0.0000000  0  6G20G25G14G16G 1G11
  21875084.058   -19749727.46249 -15376955.09747  21875083.415    21875085.994
  20963726.113   -22546990.54349 -17291032.11348  20963726.004    20963728.005
  24173814.797    -5277346.75449  -4089675.97745  24173814.526    24173817.074
  24347525.913    -4378135.56749  -3399369.40245  24347525.649    24347528.769
  22961443.101   -14827796.14749 -11538601.86146  22961442.704    22961446.934
  21613343.329   -17203793.97649 -13390272.69747  21613343.064    21613345.182
 03  4 15  4  0 30.0000000  0  6G20G25G14G16G 1G11
  21860701.101   -19825310.21149 -15435850.72847  21860700.492    21860703.051
  20971063.554   -22508432.20049 -17260986.65248  20971063.435    20971065.424
  24188851.015    -5198331.58249  -4028105.72745  24188850.578    24188853.134
  24330617.161    -4466991.02049  -3468607.36845  24330616.964    24330620.066
  22949596.745   -14890049.13949 -11587110.66346  22949596.325    22949600.510
  21622090.761   -17157825.74949 -13354453.30447  21622090.498    21622092.650
 03  4 15  4  1  0.0000000  0  6G20G25G14G16G 1G11
  21846354.615   -19900702.01949 -15494597.56647  21846353.974    21846356.446
  20978484.789   -22469433.04849 -17230597.69648  20978484.667    20978486.694
  24203885.340    -5119325.66249  -3966542.68145  24203884.949    24203887.371
  24313707.959    -4555850.02549  -3537848.10145  24313707.660    24313710.555
  22937780.110   -14952145.81549 -11635497.65246  22937779.716    22937783.798
  21630926.830   -17111392.11349 -13318271.25047  21630926.561    21630928.673
 03  4 15  4  1 30.0000000  0  6G20G25G14G16G 1G11
  21832045.017   -19975899.13949 -15553192.69147  21832044.390    21832046.925
  20985989.895   -22429993.20049 -17199865.34848  20985989.832    20985991.867
  24218918.025    -5040327.55649  -3904985.70445  24218917.752    24218920.106
  24296798.958    -4644707.45949  -3607087.61945  24296798.447    24296801.610
  22925993.572   -15014084.70649 -11683761.69546  22925993.135    22925997.137
  21639851.365   -17064493.55449 -13281726.92747  21639851.093    21639853.145
 03  4 15  4  2  0.0000000  0  6G20G25G14G16G 1G11
  21817772.767   -20050900.08449 -15611634.95047  21817772.191    21817774.742
  20993578.587   -22390114.52849 -17168791.05748  20993578.468    20993580.501
  24233949.337    -4961338.02149  -3843435.45045  24233948.956    24233951.519
  24279890.619    -4733561.06749  -3676324.14645  24279890.192    24279893.420
  22914236.928   -15075866.34749 -11731903.22146  22914236.484    22914240.507
  21648863.874   -17017132.47249 -13244822.18247  21648863.594    21648865.649
 03  4 15  4  2 30.0000000  0  6G20G25G14G16G 1G11
  21803538.124   -20125703.91249 -15669923.62647  21803537.495    21803540.031
  21001250.170   -22349800.03349 -17137377.16648  21001250.037    21001252.081
  24248978.571    -4882358.67149  -3781893.12445  24248978.222    24248980.791
  24262983.481    -4822409.13849  -3745556.35045  24262983.135    24262986.086
  22902509.898   -15137492.01849 -11779923.18946  22902509.463    22902513.591
  21657963.739   -16969312.23649 -13207559.66547  21657963.464    21657965.541
 03  4 15  4  3  0.0000000  0  6G20G25G14G16G 1G11
  21789341.659   -20200306.59249 -15728055.55547  21789341.053    21789343.520
  21009004.690   -22309049.48249 -17105623.49448  21009004.599    21009006.649
  24264006.196    -4803387.61049  -3720357.25545  24264005.839    24264008.472
  24246078.192    -4911246.57949  -3814780.26645  24246077.870    24246081.018
  22890813.001   -15198959.92149 -11827820.25046  22890812.570    22890816.642
  21667151.075   -16921032.45249 -13169939.07747  21667150.813    21667152.864
 03  4 15  4  3 30.0000000  0  6G20G25G14G16G 1G11
  21775183.554   -20274708.06749 -15786030.70047  21775182.925    21775185.416
  21016841.503   -22267866.72749 -17073533.03448  21016841.394    21016843.443
  24279032.033    -4724426.99349  -3658829.50645  24279031.456    24279034.154
  24229175.099    -5000072.44049  -3883995.17745  24229174.722    24229178.118
  22879145.661   -15260272.16549 -11875595.97646  22879145.227    22879149.261
  21676425.136   -16872297.28049 -13131963.65747  21676424.833    21676426.866
 03  4 15  4  4  0.0000000  0  6G20G25G14G16G 1G11
  21761064.251   -20348905.17849 -15843846.60047  21761063.619    21761066.127
  21024760.436   -22226252.45149 -17041106.32148  21024760.341    21024762.392
  24294055.791    -4645476.43849  -3597309.57745  24294055.235    24294057.989
  24212274.938    -5088882.61649  -3953197.87245  24212274.651    24212277.977
  22867508.042   -15321427.79649 -11923249.66146  22867507.634    22867511.633
  21685785.622   -16823107.54649 -13093634.00347  21685785.353    21685787.401
 03  4 15  4  4 30.0000000  0  6G20G25G14G16G 1G11
  21746984.160   -20422896.24149 -15901501.94347  21746983.527    21746986.055
  21032761.043   -22184208.94449 -17008345.14948  21032760.923    21032763.024
  24309077.556    -4566536.37749  -3535797.85945  24309076.996    24309079.969
  24195378.376    -5177674.92849  -4022386.64945  24195377.889    24195381.220
  22855900.078   -15382427.55549 -11970781.92546  22855899.700    22855903.672
  21695232.248   -16773465.63349 -13054952.02047  21695231.973    21695233.985
 03  4 15  4  5  0.0000000  0  6G20G25G14G16G 1G11
  21732943.670   -20496679.57549 -15958995.42747  21732943.046    21732945.519
  21040842.979   -22141738.07949 -16975250.96648  21040842.867    21040844.936
  24324097.329    -4487607.29949  -3474294.68645  24324096.670    24324099.545
  24178485.610    -5266446.36449  -4091559.15645  24178485.183    24178488.563
  22844321.771   -15443271.78049 -12018192.99446  22844321.395    22844325.365
  21704764.337   -16723374.05649 -13015919.65847  21704764.075    21704766.118
 03  4 15  4  5 30.0000000  0  6G20G25G14G16G 1G11
  21718943.434   -20570251.17749 -16016323.91647  21718942.779    21718945.265
  21049006.262   -22098840.03749 -16941823.92148  21049006.106    21049008.147
  24339115.047    -4408687.77049  -3412798.97745  24339114.492    24339117.164
  24161597.831    -5355191.88049  -4160711.46445  24161597.504    24161600.770
  22832773.376   -15503958.96349 -12065481.70246  22832772.951    22832776.972
  21714381.990   -16672833.05349 -12976537.09547  21714381.756    21714383.788
 03  4 15  4  6  0.0000000  0  6G20G25G14G16G 1G11
  21704983.270   -20643611.85149 -16073488.05047  21704982.643    21704985.146
  21057249.899   -22055519.28849 -16908067.49848  21057249.739    21057251.840
  24354130.555    -4329780.85349  -3351313.08945  24354130.006    24354132.785
  24144714.963    -5443911.77049  -4229843.80545  24144714.523    24144717.992
  22821254.357   -15564491.95649 -12112650.24746  22821253.935    22821257.928
  21724084.154   -16621847.72649 -12936808.29747  21724083.910    21724085.987
 03  4 15  4  6 30.0000000  0  6G20G25G14G16G 1G11
  21691064.062   -20716757.89849 -16130484.94747  21691063.429    21691065.875
  21065573.839   -22011776.34449 -16873982.09148  21065573.727    21065575.867
  24369143.883    -4250885.16949  -3289835.93945  24369143.393    24369146.250
  24127837.777    -5532601.29749  -4298952.48445  24127837.356    24127840.686
  22809764.908   -15624869.45949 -12159697.62646  22809764.479    22809768.471
  21733870.916   -16570418.20049 -12896733.37747  21733870.645    21733872.739
 03  4 15  4  7  0.0000000  0  6G20G25G14G16G 1G11
  21677185.814   -20789688.32649 -16187313.82447  21677185.197    21677187.624
  21073977.592   -21967614.25749 -16839570.07748  21073977.509    21073979.584
  24384155.017    -4172001.96249  -3228368.49945  24384154.521    24384157.293
  24110966.984    -5621258.52749  -4368035.97645  24110966.306    24110969.887
  22798304.799   -15685092.76049 -12206624.88346  22798304.382    22798308.328
  21743741.500   -16518547.79149 -12856314.91247  21743741.241    21743743.432
 03  4 15  4  7 30.0000000  0  7G20G25G14G16G 1G 2G11
  21663349.080   -20862400.62149 -16243972.73347  21663348.496    21663350.914
  21082460.984   -21923034.11149 -16804832.29948  21082460.866    21082462.896
  24399163.414    -4093131.18249  -3166910.80045  24399162.951    24399165.994
  24094102.860    -5709880.12849  -4437091.74645  24094102.299    24094105.766
  22786874.160   -15745161.65449 -12253431.79046  22786873.685    22786877.622
  24474213.136    -4290396.53459  -3323310.39945  24474212.375    24474217.532
  21753695.710   -16466238.18149 -12815554.19047  21753695.450    21753697.625
